Wetterdaten: Montag, 14.03.2022
Datum Zeit Temp. I. Temp. A. Feuchte I. Feuchte A. Luftdruck Regen Wind Richtung Richtung Sonnenschein Solar Taupunkt Windchill Windböen
14.03.2022 00:00 23,6 °C 0,2 °C 36 % 64 % 1020,4 hPa 0,0 l/m² 4,0 km/h (1 Bft) O-NO 58 ° 0 min 0 W/m² -5,8 °C 0,2 °C 6,4 km/h (2 Bft)
14.03.2022 00:02 23,6 °C 0,4 °C 36 % 62 % 1020,4 hPa 0,0 l/m² 4,8 km/h (1 Bft) O-NO 57 ° 0 min 0 W/m² -6,0 °C 0,4 °C 6,4 km/h (2 Bft)
14.03.2022 00:03 23,6 °C 0,5 °C 36 % 62 % 1020,4 hPa 0,0 l/m² 4,6 km/h (1 Bft) O-NO 59 ° 0 min 0 W/m² -5,9 °C 0,5 °C 8,0 km/h (2 Bft)
14.03.2022 00:05 23,6 °C 0,8 °C 36 % 61 % 1020,5 hPa 0,0 l/m² 5,1 km/h (1 Bft) O-NO 57 ° 0 min 0 W/m² -5,8 °C 0,8 °C 8,0 km/h (2 Bft)
14.03.2022 00:06 23,6 °C 0,8 °C 36 % 60 % 1020,5 hPa 0,0 l/m² 5,0 km/h (1 Bft) O-NO 59 ° 0 min 0 W/m² -6,1 °C 0,8 °C 8,0 km/h (2 Bft)
14.03.2022 00:08 23,6 °C 0,6 °C 36 % 62 % 1020,4 hPa 0,0 l/m² 4,8 km/h (1 Bft) O-NO 61 ° 0 min 0 W/m² -5,8 °C 0,6 °C 8,0 km/h (2 Bft)
14.03.2022 00:10 23,6 °C 0,2 °C 36 % 63 % 1020,4 hPa 0,0 l/m² 4,4 km/h (1 Bft) O-NO 61 ° 0 min 0 W/m² -6,0 °C 0,2 °C 8,0 km/h (2 Bft)
14.03.2022 00:11 23,6 °C 0,0 °C 36 % 63 % 1020,5 hPa 0,0 l/m² 4,9 km/h (1 Bft) O-NO 62 ° 0 min 0 W/m² -6,2 °C 0,0 °C 6,4 km/h (2 Bft)
14.03.2022 00:12 23,6 °C -0,1 °C 36 % 63 % 1020,4 hPa 0,0 l/m² 4,9 km/h (1 Bft) O-NO 62 ° 0 min 0 W/m² -6,3 °C -0,1 °C 6,4 km/h (2 Bft)
14.03.2022 00:13 23,6 °C -0,2 °C 36 % 63 % 1020,4 hPa 0,0 l/m² 4,4 km/h (1 Bft) O-NO 68 ° 0 min 0 W/m² -6,4 °C -0,2 °C 6,4 km/h (2 Bft)
14.03.2022 00:15 23,6 °C -0,6 °C 36 % 65 % 1020,4 hPa 0,0 l/m² 3,0 km/h (1 Bft) O-NO 68 ° 0 min 0 W/m² -6,3 °C -0,6 °C 4,8 km/h (1 Bft)
14.03.2022 00:17 23,6 °C -0,8 °C 36 % 66 % 1020,3 hPa 0,0 l/m² 4,2 km/h (1 Bft) O-NO 69 ° 0 min 0 W/m² -6,3 °C -0,8 °C 8,0 km/h (2 Bft)
14.03.2022 00:19 23,6 °C -0,8 °C 36 % 66 % 1020,4 hPa 0,0 l/m² 3,6 km/h (1 Bft) O-NO 69 ° 0 min 0 W/m² -6,3 °C -0,8 °C 6,4 km/h (2 Bft)
14.03.2022 00:21 23,6 °C -1,0 °C 36 % 67 % 1020,4 hPa 0,0 l/m² 3,9 km/h (1 Bft) O-NO 65 ° 0 min 0 W/m² -6,3 °C -1,0 °C 6,4 km/h (2 Bft)
14.03.2022 00:23 23,6 °C -1,0 °C 36 % 68 % 1020,4 hPa 0,0 l/m² 4,2 km/h (1 Bft) O-NO 65 ° 0 min 0 W/m² -6,1 °C -1,0 °C 6,4 km/h (2 Bft)
14.03.2022 00:25 23,6 °C -1,1 °C 36 % 68 % 1020,4 hPa 0,0 l/m² 3,8 km/h (1 Bft) O-NO 65 ° 0 min 0 W/m² -6,2 °C -1,1 °C 6,4 km/h (2 Bft)
14.03.2022 00:27 23,6 °C -1,0 °C 36 % 69 % 1020,4 hPa 0,0 l/m² 3,7 km/h (1 Bft) O-NO 65 ° 0 min 0 W/m² -5,9 °C -1,0 °C 6,4 km/h (2 Bft)
14.03.2022 00:29 23,6 °C -0,9 °C 36 % 68 % 1020,4 hPa 0,0 l/m² 2,5 km/h (1 Bft) O-NO 65 ° 0 min 0 W/m² -6,0 °C -0,9 °C 4,8 km/h (1 Bft)
14.03.2022 00:31 23,6 °C -0,9 °C 36 % 68 % 1020,4 hPa 0,0 l/m² 2,8 km/h (1 Bft) O-NO 65 ° 0 min 0 W/m² -6,0 °C -0,9 °C 4,8 km/h (1 Bft)
14.03.2022 00:33 23,6 °C -0,9 °C 36 % 68 % 1020,4 hPa 0,0 l/m² 3,9 km/h (1 Bft) O-NO 65 ° 0 min 0 W/m² -6,0 °C -0,9 °C 6,4 km/h (2 Bft)
14.03.2022 00:34 23,6 °C -0,9 °C 36 % 68 % 1020,4 hPa 0,0 l/m² 3,8 km/h (1 Bft) O-NO 65 ° 0 min 0 W/m² -6,0 °C -0,9 °C 4,8 km/h (1 Bft)
14.03.2022 00:35 23,6 °C -0,9 °C 36 % 67 % 1020,4 hPa 0,0 l/m² 4,3 km/h (1 Bft) O-NO 66 ° 0 min 0 W/m² -6,2 °C -0,9 °C 6,4 km/h (2 Bft)
14.03.2022 00:37 23,6 °C -0,9 °C 36 % 67 % 1020,4 hPa 0,0 l/m² 3,7 km/h (1 Bft) O-NO 66 ° 0 min 0 W/m² -6,2 °C -0,9 °C 4,8 km/h (1 Bft)
14.03.2022 00:39 23,6 °C -0,9 °C 36 % 68 % 1020,4 hPa 0,0 l/m² 2,5 km/h (1 Bft) O-NO 66 ° 0 min 0 W/m² -6,0 °C -0,9 °C 3,2 km/h (1 Bft)
14.03.2022 00:41 23,6 °C -1,0 °C 36 % 69 % 1020,5 hPa 0,0 l/m² 2,8 km/h (1 Bft) O-NO 66 ° 0 min 0 W/m² -5,9 °C -1,0 °C 3,2 km/h (1 Bft)
14.03.2022 00:42 23,6 °C -0,9 °C 36 % 69 % 1020,5 hPa 0,0 l/m² 2,9 km/h (1 Bft) O-NO 66 ° 0 min 0 W/m² -5,9 °C -0,9 °C 4,8 km/h (1 Bft)
14.03.2022 00:43 23,6 °C -0,9 °C 36 % 69 % 1020,4 hPa 0,0 l/m² 1,2 km/h (1 Bft) O-NO 66 ° 0 min 0 W/m² -5,9 °C -0,9 °C 3,2 km/h (1 Bft)
14.03.2022 00:45 23,6 °C -0,8 °C 36 % 68 % 1020,4 hPa 0,0 l/m² 0,0 km/h (0 Bft) O-NO 66 ° 0 min 0 W/m² -5,9 °C -0,8 °C 1,6 km/h (1 Bft)
14.03.2022 00:47 23,6 °C -0,7 °C 36 % 68 % 1020,4 hPa 0,0 l/m² 0,0 km/h (0 Bft) O-NO 66 ° 0 min 0 W/m² -5,9 °C -0,7 °C 0,0 km/h (0 Bft)
14.03.2022 00:49 23,6 °C -0,7 °C 36 % 67 % 1020,4 hPa 0,0 l/m² 0,1 km/h (0 Bft) O-NO 66 ° 0 min 0 W/m² -6,0 °C -0,7 °C 1,6 km/h (1 Bft)
14.03.2022 00:51 23,6 °C -0,7 °C 36 % 67 % 1020,4 hPa 0,0 l/m² 0,4 km/h (0 Bft) O-NO 66 ° 0 min 0 W/m² -6,0 °C -0,7 °C 1,6 km/h (1 Bft)
14.03.2022 00:52 23,6 °C -0,7 °C 36 % 67 % 1020,4 hPa 0,0 l/m² 1,6 km/h (1 Bft) O-NO 66 ° 0 min 0 W/m² -6,0 °C -0,7 °C 3,2 km/h (1 Bft)
14.03.2022 00:53 23,6 °C -0,7 °C 36 % 67 % 1020,4 hPa 0,0 l/m² 2,2 km/h (1 Bft) O-NO 66 ° 0 min 0 W/m² -6,0 °C -0,7 °C 4,8 km/h (1 Bft)
14.03.2022 00:55 23,6 °C -0,7 °C 36 % 67 % 1020,4 hPa 0,0 l/m² 3,7 km/h (1 Bft) O-NO 66 ° 0 min 0 W/m² -6,0 °C -0,7 °C 6,4 km/h (2 Bft)
14.03.2022 00:57 23,6 °C -0,7 °C 36 % 67 % 1020,4 hPa 0,0 l/m² 5,0 km/h (1 Bft) O-NO 66 ° 0 min 0 W/m² -6,0 °C -0,7 °C 6,4 km/h (2 Bft)
14.03.2022 00:59 23,6 °C -0,7 °C 36 % 67 % 1020,4 hPa 0,0 l/m² 4,8 km/h (1 Bft) O-NO 67 ° 0 min 0 W/m² -6,0 °C -0,7 °C 6,4 km/h (2 Bft)
14.03.2022 01:01 23,6 °C -0,8 °C 36 % 68 % 1020,4 hPa 0,0 l/m² 5,6 km/h (2 Bft) O-NO 76 ° 0 min 0 W/m² -5,9 °C -0,8 °C 11,3 km/h (2 Bft)
14.03.2022 01:03 23,5 °C -0,9 °C 36 % 68 % 1020,4 hPa 0,0 l/m² 5,1 km/h (1 Bft) O-NO 77 ° 0 min 0 W/m² -6,0 °C -0,9 °C 6,4 km/h (2 Bft)
14.03.2022 01:05 23,6 °C -1,0 °C 37 % 68 % 1020,5 hPa 0,0 l/m² 5,0 km/h (1 Bft) O-NO 77 ° 0 min 0 W/m² -6,1 °C -1,0 °C 8,0 km/h (2 Bft)
14.03.2022 01:07 23,6 °C -1,1 °C 37 % 68 % 1020,5 hPa 0,0 l/m² 5,3 km/h (1 Bft) O-NO 77 ° 0 min 0 W/m² -6,2 °C -1,1 °C 6,4 km/h (2 Bft)
14.03.2022 01:09 23,5 °C -1,3 °C 36 % 69 % 1020,5 hPa 0,0 l/m² 4,6 km/h (1 Bft) O-NO 77 ° 0 min 0 W/m² -6,2 °C -1,3 °C 6,4 km/h (2 Bft)
14.03.2022 01:11 23,6 °C -1,3 °C 36 % 70 % 1020,5 hPa 0,0 l/m² 2,0 km/h (1 Bft) O-NO 77 ° 0 min 0 W/m² -6,0 °C -1,3 °C 3,2 km/h (1 Bft)
14.03.2022 01:13 23,6 °C -1,3 °C 36 % 71 % 1020,5 hPa 0,0 l/m² 0,2 km/h (0 Bft) O-NO 77 ° 0 min 0 W/m² -5,9 °C -1,3 °C 1,6 km/h (1 Bft)
14.03.2022 01:15 23,6 °C -1,3 °C 37 % 70 % 1020,5 hPa 0,0 l/m² 0,3 km/h (0 Bft) O-NO 77 ° 0 min 0 W/m² -6,0 °C -1,3 °C 1,6 km/h (1 Bft)
14.03.2022 01:17 23,6 °C -1,3 °C 36 % 70 % 1020,5 hPa 0,0 l/m² 0,0 km/h (0 Bft) O-NO 77 ° 0 min 0 W/m² -6,0 °C -1,3 °C 1,6 km/h (1 Bft)
14.03.2022 01:19 23,6 °C -1,3 °C 37 % 70 % 1020,5 hPa 0,0 l/m² 0,0 km/h (0 Bft) O-NO 77 ° 0 min 0 W/m² -6,0 °C -1,3 °C 0,0 km/h (0 Bft)
14.03.2022 01:21 23,6 °C -1,1 °C 36 % 70 % 1020,5 hPa 0,0 l/m² 0,2 km/h (0 Bft) O-NO 77 ° 0 min 0 W/m² -5,9 °C -1,1 °C 1,6 km/h (1 Bft)
14.03.2022 01:23 23,6 °C -1,1 °C 36 % 70 % 1020,5 hPa 0,0 l/m² 0,3 km/h (0 Bft) O-NO 77 ° 0 min 0 W/m² -5,9 °C -1,1 °C 1,6 km/h (1 Bft)
14.03.2022 01:25 23,6 °C -1,1 °C 36 % 70 % 1020,6 hPa 0,0 l/m² 0,1 km/h (0 Bft) O-NO 77 ° 0 min 0 W/m² -5,9 °C -1,1 °C 1,6 km/h (1 Bft)
14.03.2022 01:27 23,6 °C -1,2 °C 36 % 69 % 1020,6 hPa 0,0 l/m² 0,8 km/h (0 Bft) O-NO 77 ° 0 min 0 W/m² -6,1 °C -1,2 °C 3,2 km/h (1 Bft)
14.03.2022 01:29 23,6 °C -1,3 °C 36 % 69 % 1020,5 hPa 0,0 l/m² 0,1 km/h (0 Bft) O-NO 77 ° 0 min 0 W/m² -6,2 °C -1,3 °C 1,6 km/h (1 Bft)
14.03.2022 01:31 23,6 °C -1,3 °C 36 % 70 % 1020,6 hPa 0,0 l/m² 0,0 km/h (0 Bft) O-NO 77 ° 0 min 0 W/m² -6,0 °C -1,3 °C 1,6 km/h (1 Bft)
14.03.2022 01:33 23,6 °C -1,3 °C 36 % 70 % 1020,5 hPa 0,0 l/m² 1,4 km/h (1 Bft) O-NO 77 ° 0 min 0 W/m² -6,0 °C -1,3 °C 1,6 km/h (1 Bft)
14.03.2022 01:35 23,6 °C -1,4 °C 36 % 70 % 1020,6 hPa 0,0 l/m² 2,9 km/h (1 Bft) O-NO 77 ° 0 min 0 W/m² -6,1 °C -1,4 °C 4,8 km/h (1 Bft)
14.03.2022 01:37 23,6 °C -1,4 °C 36 % 70 % 1020,7 hPa 0,0 l/m² 3,7 km/h (1 Bft) O-NO 77 ° 0 min 0 W/m² -6,1 °C -1,4 °C 4,8 km/h (1 Bft)
14.03.2022 01:39 23,6 °C -1,4 °C 36 % 70 % 1020,7 hPa 0,0 l/m² 3,7 km/h (1 Bft) O-NO 77 ° 0 min 0 W/m² -6,1 °C -1,4 °C 4,8 km/h (1 Bft)
14.03.2022 01:41 23,6 °C -1,4 °C 36 % 70 % 1020,7 hPa 0,0 l/m² 1,7 km/h (1 Bft) O-NO 77 ° 0 min 0 W/m² -6,1 °C -1,4 °C 3,2 km/h (1 Bft)
14.03.2022 01:42 23,6 °C -1,4 °C 36 % 70 % 1020,7 hPa 0,0 l/m² 1,1 km/h (1 Bft) O-NO 77 ° 0 min 0 W/m² -6,1 °C -1,4 °C 1,6 km/h (1 Bft)
14.03.2022 01:44 23,6 °C -1,4 °C 36 % 70 % 1020,7 hPa 0,0 l/m² 1,6 km/h (1 Bft) O-NO 77 ° 0 min 0 W/m² -6,1 °C -1,4 °C 3,2 km/h (1 Bft)
14.03.2022 01:46 23,6 °C -1,4 °C 36 % 70 % 1020,7 hPa 0,0 l/m² 1,3 km/h (1 Bft) O-NO 77 ° 0 min 0 W/m² -6,1 °C -1,4 °C 1,6 km/h (1 Bft)
14.03.2022 01:48 23,6 °C -1,4 °C 36 % 70 % 1020,7 hPa 0,0 l/m² 0,1 km/h (0 Bft) O-NO 77 ° 0 min 0 W/m² -6,1 °C -1,4 °C 1,6 km/h (1 Bft)
14.03.2022 01:50 23,6 °C -1,5 °C 36 % 70 % 1020,7 hPa 0,0 l/m² 0,6 km/h (0 Bft) O-NO 77 ° 0 min 0 W/m² -6,2 °C -1,5 °C 1,6 km/h (1 Bft)
14.03.2022 01:52 23,6 °C -1,5 °C 36 % 70 % 1020,6 hPa 0,0 l/m² 0,5 km/h (0 Bft) O-NO 77 ° 0 min 0 W/m² -6,2 °C -1,5 °C 1,6 km/h (1 Bft)
14.03.2022 01:53 23,6 °C -1,6 °C 36 % 70 % 1020,6 hPa 0,0 l/m² 1,2 km/h (1 Bft) O-NO 77 ° 0 min 0 W/m² -6,3 °C -1,6 °C 1,6 km/h (1 Bft)
14.03.2022 01:54 23,6 °C -1,6 °C 36 % 70 % 1020,6 hPa 0,0 l/m² 2,1 km/h (1 Bft) O-NO 77 ° 0 min 0 W/m² -6,3 °C -1,6 °C 3,2 km/h (1 Bft)
14.03.2022 01:56 23,6 °C -1,5 °C 36 % 70 % 1020,7 hPa 0,0 l/m² 0,4 km/h (0 Bft) O-NO 77 ° 0 min 0 W/m² -6,2 °C -1,5 °C 3,2 km/h (1 Bft)
14.03.2022 01:58 23,6 °C -1,5 °C 36 % 70 % 1020,7 hPa 0,0 l/m² 0,0 km/h (0 Bft) O-NO 77 ° 0 min 0 W/m² -6,2 °C -1,5 °C 0,0 km/h (0 Bft)
14.03.2022 02:00 23,6 °C -1,4 °C 36 % 70 % 1020,6 hPa 0,0 l/m² 0,0 km/h (0 Bft) O-NO 77 ° 0 min 0 W/m² -6,1 °C -1,4 °C 0,0 km/h (0 Bft)
14.03.2022 02:02 23,6 °C -1,6 °C 36 % 69 % 1020,6 hPa 0,0 l/m² 0,0 km/h (0 Bft) O-NO 77 ° 0 min 0 W/m² -6,5 °C -1,6 °C 0,0 km/h (0 Bft)
14.03.2022 02:03 23,6 °C -1,6 °C 36 % 70 % 1020,6 hPa 0,0 l/m² 0,0 km/h (0 Bft) O-NO 77 ° 0 min 0 W/m² -6,3 °C -1,6 °C 0,0 km/h (0 Bft)
14.03.2022 02:04 23,6 °C -1,7 °C 36 % 70 % 1020,6 hPa 0,0 l/m² 0,0 km/h (0 Bft) O-NO 77 ° 0 min 0 W/m² -6,4 °C -1,7 °C 0,0 km/h (0 Bft)
14.03.2022 02:06 23,6 °C -1,8 °C 36 % 70 % 1020,7 hPa 0,0 l/m² 0,0 km/h (0 Bft) O-NO 77 ° 0 min 0 W/m² -6,5 °C -1,8 °C 0,0 km/h (0 Bft)
14.03.2022 02:08 23,6 °C -1,8 °C 36 % 71 % 1020,7 hPa 0,0 l/m² 0,0 km/h (0 Bft) O-NO 77 ° 0 min 0 W/m² -6,3 °C -1,8 °C 0,0 km/h (0 Bft)
14.03.2022 02:10 23,6 °C -1,9 °C 36 % 71 % 1020,7 hPa 0,0 l/m² 0,0 km/h (0 Bft) O-NO 77 ° 0 min 0 W/m² -6,4 °C -1,9 °C 0,0 km/h (0 Bft)
14.03.2022 02:12 23,6 °C -1,9 °C 36 % 71 % 1020,7 hPa 0,0 l/m² 0,0 km/h (0 Bft) O-NO 77 ° 0 min 0 W/m² -6,4 °C -1,9 °C 0,0 km/h (0 Bft)
14.03.2022 02:13 23,6 °C -2,0 °C 36 % 71 % 1020,7 hPa 0,0 l/m² 1,3 km/h (1 Bft) O-NO 77 ° 0 min 0 W/m² -6,5 °C -2,0 °C 3,2 km/h (1 Bft)
14.03.2022 02:14 23,6 °C -2,0 °C 36 % 71 % 1020,8 hPa 0,0 l/m² 1,9 km/h (1 Bft) O-NO 77 ° 0 min 0 W/m² -6,5 °C -2,0 °C 3,2 km/h (1 Bft)
14.03.2022 02:16 23,7 °C -2,0 °C 36 % 71 % 1020,7 hPa 0,0 l/m² 2,4 km/h (1 Bft) O-NO 77 ° 0 min 0 W/m² -6,5 °C -2,0 °C 3,2 km/h (1 Bft)
14.03.2022 02:18 23,7 °C -2,0 °C 36 % 71 % 1020,8 hPa 0,0 l/m² 1,3 km/h (1 Bft) O-NO 77 ° 0 min 0 W/m² -6,5 °C -2,0 °C 3,2 km/h (1 Bft)
14.03.2022 02:20 23,7 °C -2,0 °C 36 % 71 % 1020,8 hPa 0,0 l/m² 1,0 km/h (0 Bft) O-NO 77 ° 0 min 0 W/m² -6,5 °C -2,0 °C 1,6 km/h (1 Bft)
14.03.2022 02:22 23,7 °C -2,0 °C 36 % 71 % 1020,7 hPa 0,0 l/m² 0,1 km/h (0 Bft) O-NO 77 ° 0 min 0 W/m² -6,5 °C -2,0 °C 1,6 km/h (1 Bft)
14.03.2022 02:23 23,7 °C -2,0 °C 36 % 71 % 1020,7 hPa 0,0 l/m² 0,0 km/h (0 Bft) O-NO 77 ° 0 min 0 W/m² -6,5 °C -2,0 °C 0,0 km/h (0 Bft)
14.03.2022 02:24 23,7 °C -2,1 °C 36 % 71 % 1020,8 hPa 0,0 l/m² 0,0 km/h (0 Bft) O-NO 77 ° 0 min 0 W/m² -6,6 °C -2,1 °C 0,0 km/h (0 Bft)
14.03.2022 02:26 23,7 °C -2,2 °C 36 % 70 % 1020,8 hPa 0,0 l/m² 0,0 km/h (0 Bft) O-NO 77 ° 0 min 0 W/m² -6,9 °C -2,2 °C 0,0 km/h (0 Bft)
14.03.2022 02:28 23,7 °C -2,5 °C 36 % 71 % 1020,8 hPa 0,0 l/m² 0,0 km/h (0 Bft) O-NO 77 ° 0 min 0 W/m² -7,0 °C -2,5 °C 0,0 km/h (0 Bft)
14.03.2022 02:30 23,7 °C -2,7 °C 36 % 71 % 1020,8 hPa 0,0 l/m² 0,0 km/h (0 Bft) O-NO 77 ° 0 min 0 W/m² -7,2 °C -2,7 °C 0,0 km/h (0 Bft)
14.03.2022 02:32 23,7 °C -2,8 °C 36 % 72 % 1020,9 hPa 0,0 l/m² 0,0 km/h (0 Bft) O-NO 77 ° 0 min 0 W/m² -7,1 °C -2,8 °C 0,0 km/h (0 Bft)
14.03.2022 02:33 23,7 °C -2,9 °C 36 % 72 % 1020,8 hPa 0,0 l/m² 0,0 km/h (0 Bft) O-NO 77 ° 0 min 0 W/m² -7,2 °C -2,9 °C 0,0 km/h (0 Bft)
14.03.2022 02:35 23,7 °C -2,9 °C 36 % 73 % 1020,9 hPa 0,0 l/m² 0,8 km/h (0 Bft) O-NO 77 ° 0 min 0 W/m² -7,0 °C -2,9 °C 1,6 km/h (1 Bft)
14.03.2022 02:37 23,7 °C -2,9 °C 36 % 73 % 1020,9 hPa 0,0 l/m² 1,3 km/h (1 Bft) O-NO 77 ° 0 min 0 W/m² -7,0 °C -2,9 °C 3,2 km/h (1 Bft)
14.03.2022 02:39 23,7 °C -2,8 °C 36 % 73 % 1020,9 hPa 0,0 l/m² 0,0 km/h (0 Bft) O-NO 77 ° 0 min 0 W/m² -6,9 °C -2,8 °C 1,6 km/h (1 Bft)
14.03.2022 02:41 23,7 °C -2,8 °C 36 % 73 % 1020,8 hPa 0,0 l/m² 0,0 km/h (0 Bft) O-NO 77 ° 0 min 0 W/m² -6,9 °C -2,8 °C 0,0 km/h (0 Bft)
14.03.2022 02:43 23,7 °C -2,8 °C 36 % 73 % 1020,8 hPa 0,0 l/m² 0,0 km/h (0 Bft) O-NO 77 ° 0 min 0 W/m² -6,9 °C -2,8 °C 0,0 km/h (0 Bft)
14.03.2022 02:44 23,7 °C -2,8 °C 36 % 73 % 1020,8 hPa 0,0 l/m² 0,0 km/h (0 Bft) O-NO 77 ° 0 min 0 W/m² -6,9 °C -2,8 °C 0,0 km/h (0 Bft)
14.03.2022 02:45 23,7 °C -2,8 °C 36 % 73 % 1020,9 hPa 0,0 l/m² 0,0 km/h (0 Bft) O-NO 77 ° 0 min 0 W/m² -6,9 °C -2,8 °C 0,0 km/h (0 Bft)
14.03.2022 02:47 23,7 °C -2,8 °C 36 % 73 % 1020,9 hPa 0,0 l/m² 0,0 km/h (0 Bft) O-NO 77 ° 0 min 0 W/m² -6,9 °C -2,8 °C 0,0 km/h (0 Bft)
14.03.2022 02:49 23,7 °C -2,9 °C 36 % 73 % 1020,9 hPa 0,0 l/m² 0,0 km/h (0 Bft) O-NO 77 ° 0 min 0 W/m² -7,0 °C -2,9 °C 0,0 km/h (0 Bft)
14.03.2022 02:51 23,7 °C -2,9 °C 36 % 74 % 1021,0 hPa 0,0 l/m² 0,0 km/h (0 Bft) O-NO 77 ° 0 min 0 W/m² -6,9 °C -2,9 °C 0,0 km/h (0 Bft)
14.03.2022 02:52 23,7 °C -2,9 °C 36 % 74 % 1021,0 hPa 0,0 l/m² 0,0 km/h (0 Bft) O-NO 77 ° 0 min 0 W/m² -6,9 °C -2,9 °C 0,0 km/h (0 Bft)
14.03.2022 02:54 23,7 °C -2,9 °C 36 % 74 % 1020,9 hPa 0,0 l/m² 0,0 km/h (0 Bft) O-NO 77 ° 0 min 0 W/m² -6,9 °C -2,9 °C 0,0 km/h (0 Bft)
14.03.2022 02:56 23,7 °C -3,1 °C 36 % 74 % 1021,0 hPa 0,0 l/m² 0,0 km/h (0 Bft) O-NO 77 ° 0 min 0 W/m² -7,1 °C -3,1 °C 0,0 km/h (0 Bft)
14.03.2022 02:58 23,7 °C -3,2 °C 36 % 74 % 1021,0 hPa 0,0 l/m² 0,0 km/h (0 Bft) O-NO 77 ° 0 min 0 W/m² -7,2 °C -3,2 °C 0,0 km/h (0 Bft)
14.03.2022 03:00 23,7 °C -3,3 °C 36 % 74 % 1021,0 hPa 0,0 l/m² 0,0 km/h (0 Bft) O-NO 77 ° 0 min 0 W/m² -7,3 °C -3,3 °C 0,0 km/h (0 Bft)
14.03.2022 03:01 23,7 °C -3,3 °C 36 % 74 % 1021,0 hPa 0,0 l/m² 0,0 km/h (0 Bft) N 0 ° 0 min 0 W/m² -7,3 °C -3,3 °C 0,0 km/h (0 Bft)
14.03.2022 03:06 23,7 °C -3,4 °C 36 % 75 % 1020,9 hPa 0,0 l/m² 1,2 km/h (1 Bft) O-NO 77 ° 0 min 0 W/m² -7,2 °C -3,4 °C 1,6 km/h (1 Bft)
14.03.2022 03:08 23,7 °C -3,4 °C 36 % 75 % 1021,0 hPa 0,0 l/m² 0,6 km/h (0 Bft) O-NO 77 ° 0 min 0 W/m² -7,2 °C -3,4 °C 1,6 km/h (1 Bft)
14.03.2022 03:09 23,7 °C -3,4 °C 36 % 75 % 1021,0 hPa 0,0 l/m² 0,0 km/h (0 Bft) O-NO 77 ° 0 min 0 W/m² -7,2 °C -3,4 °C 0,0 km/h (0 Bft)
14.03.2022 03:11 23,7 °C -3,3 °C 36 % 76 % 1020,9 hPa 0,0 l/m² 0,0 km/h (0 Bft) O-NO 77 ° 0 min 0 W/m² -6,9 °C -3,3 °C 0,0 km/h (0 Bft)
14.03.2022 03:12 23,7 °C -3,3 °C 36 % 76 % 1020,9 hPa 0,0 l/m² 0,0 km/h (0 Bft) O-NO 77 ° 0 min 0 W/m² -6,9 °C -3,3 °C 0,0 km/h (0 Bft)
14.03.2022 03:14 23,7 °C -3,3 °C 36 % 76 % 1020,9 hPa 0,0 l/m² 0,0 km/h (0 Bft) O-NO 77 ° 0 min 0 W/m² -6,9 °C -3,3 °C 1,6 km/h (1 Bft)
14.03.2022 03:16 23,7 °C -3,3 °C 36 % 76 % 1021,0 hPa 0,0 l/m² 0,5 km/h (0 Bft) O-NO 77 ° 0 min 0 W/m² -6,9 °C -3,3 °C 1,6 km/h (1 Bft)
14.03.2022 03:18 23,7 °C -3,3 °C 36 % 75 % 1021,0 hPa 0,0 l/m² 0,1 km/h (0 Bft) O-NO 77 ° 0 min 0 W/m² -7,1 °C -3,3 °C 1,6 km/h (1 Bft)
14.03.2022 03:19 23,7 °C -3,3 °C 36 % 76 % 1021,0 hPa 0,0 l/m² 0,9 km/h (0 Bft) O-NO 77 ° 0 min 0 W/m² -6,9 °C -3,3 °C 1,6 km/h (1 Bft)
14.03.2022 03:21 23,7 °C -3,3 °C 36 % 76 % 1021,0 hPa 0,0 l/m² 0,0 km/h (0 Bft) O-NO 77 ° 0 min 0 W/m² -6,9 °C -3,3 °C 0,0 km/h (0 Bft)
14.03.2022 03:22 23,7 °C -3,3 °C 36 % 76 % 1021,0 hPa 0,0 l/m² 0,0 km/h (0 Bft) O-NO 77 ° 0 min 0 W/m² -6,9 °C -3,3 °C 0,0 km/h (0 Bft)
14.03.2022 03:24 23,7 °C -3,3 °C 36 % 75 % 1021,0 hPa 0,0 l/m² 0,0 km/h (0 Bft) O-NO 77 ° 0 min 0 W/m² -7,1 °C -3,3 °C 0,0 km/h (0 Bft)
14.03.2022 03:26 23,7 °C -3,4 °C 36 % 75 % 1021,0 hPa 0,0 l/m² 0,0 km/h (0 Bft) O-NO 77 ° 0 min 0 W/m² -7,2 °C -3,4 °C 0,0 km/h (0 Bft)
14.03.2022 03:28 23,7 °C -3,5 °C 36 % 75 % 1021,0 hPa 0,0 l/m² 0,0 km/h (0 Bft) O-NO 77 ° 0 min 0 W/m² -7,3 °C -3,5 °C 0,0 km/h (0 Bft)
14.03.2022 03:30 23,7 °C -3,5 °C 36 % 75 % 1021,0 hPa 0,0 l/m² 0,0 km/h (0 Bft) O-NO 77 ° 0 min 0 W/m² -7,3 °C -3,5 °C 0,0 km/h (0 Bft)
14.03.2022 03:31 23,7 °C -3,6 °C 36 % 75 % 1020,9 hPa 0,0 l/m² 0,0 km/h (0 Bft) O-NO 77 ° 0 min 0 W/m² -7,4 °C -3,6 °C 0,0 km/h (0 Bft)
14.03.2022 03:32 23,7 °C -3,7 °C 36 % 75 % 1021,0 hPa 0,0 l/m² 0,0 km/h (0 Bft) O-NO 77 ° 0 min 0 W/m² -7,5 °C -3,7 °C 0,0 km/h (0 Bft)
14.03.2022 03:33 23,7 °C -3,7 °C 36 % 75 % 1021,0 hPa 0,0 l/m² 0,0 km/h (0 Bft) O-NO 77 ° 0 min 0 W/m² -7,5 °C -3,7 °C 0,0 km/h (0 Bft)
14.03.2022 03:35 23,7 °C -3,8 °C 36 % 75 % 1021,0 hPa 0,0 l/m² 0,7 km/h (0 Bft) O-NO 77 ° 0 min 0 W/m² -7,6 °C -3,8 °C 1,6 km/h (1 Bft)
14.03.2022 03:37 23,7 °C -3,8 °C 36 % 76 % 1021,0 hPa 0,0 l/m² 0,6 km/h (0 Bft) O-NO 77 ° 0 min 0 W/m² -7,4 °C -3,8 °C 1,6 km/h (1 Bft)
14.03.2022 03:38 23,7 °C -3,9 °C 36 % 76 % 1021,0 hPa 0,0 l/m² 0,3 km/h (0 Bft) O-NO 77 ° 0 min 0 W/m² -7,5 °C -3,9 °C 1,6 km/h (1 Bft)
14.03.2022 03:40 23,7 °C -3,8 °C 36 % 77 % 1021,0 hPa 0,0 l/m² 0,0 km/h (0 Bft) O-NO 77 ° 0 min 0 W/m² -7,2 °C -3,8 °C 0,0 km/h (0 Bft)
14.03.2022 03:41 23,7 °C -3,8 °C 36 % 77 % 1021,0 hPa 0,0 l/m² 0,0 km/h (0 Bft) O-NO 77 ° 0 min 0 W/m² -7,2 °C -3,8 °C 0,0 km/h (0 Bft)
14.03.2022 03:42 23,7 °C -3,8 °C 36 % 78 % 1021,0 hPa 0,0 l/m² 0,0 km/h (0 Bft) O-NO 77 ° 0 min 0 W/m² -7,1 °C -3,8 °C 0,0 km/h (0 Bft)
14.03.2022 03:43 23,7 °C -3,8 °C 36 % 78 % 1021,1 hPa 0,0 l/m² 0,0 km/h (0 Bft) O-NO 77 ° 0 min 0 W/m² -7,1 °C -3,8 °C 0,0 km/h (0 Bft)
14.03.2022 03:45 23,7 °C -3,7 °C 36 % 79 % 1021,2 hPa 0,0 l/m² 0,0 km/h (0 Bft) O-NO 77 ° 0 min 0 W/m² -6,8 °C -3,7 °C 0,0 km/h (0 Bft)
14.03.2022 03:47 23,7 °C -3,7 °C 36 % 79 % 1021,1 hPa 0,0 l/m² 0,0 km/h (0 Bft) O-NO 77 ° 0 min 0 W/m² -6,8 °C -3,7 °C 0,0 km/h (0 Bft)
14.03.2022 03:49 23,7 °C -3,6 °C 36 % 79 % 1021,1 hPa 0,0 l/m² 0,0 km/h (0 Bft) O-NO 77 ° 0 min 0 W/m² -6,7 °C -3,6 °C 0,0 km/h (0 Bft)
14.03.2022 03:51 23,7 °C -3,7 °C 36 % 79 % 1021,0 hPa 0,0 l/m² 2,2 km/h (1 Bft) O-NO 77 ° 0 min 0 W/m² -6,8 °C -3,7 °C 3,2 km/h (1 Bft)
14.03.2022 03:52 23,7 °C -3,7 °C 36 % 78 % 1021,0 hPa 0,0 l/m² 3,2 km/h (1 Bft) O-NO 77 ° 0 min 0 W/m² -7,0 °C -3,7 °C 4,8 km/h (1 Bft)
14.03.2022 03:53 23,7 °C -3,7 °C 36 % 78 % 1021,0 hPa 0,0 l/m² 2,8 km/h (1 Bft) O-NO 77 ° 0 min 0 W/m² -7,0 °C -3,7 °C 4,8 km/h (1 Bft)
14.03.2022 03:55 23,7 °C -3,7 °C 36 % 79 % 1021,0 hPa 0,0 l/m² 0,4 km/h (0 Bft) O-NO 77 ° 0 min 0 W/m² -6,8 °C -3,7 °C 1,6 km/h (1 Bft)
14.03.2022 03:56 23,7 °C -3,6 °C 36 % 79 % 1021,1 hPa 0,0 l/m² 0,0 km/h (0 Bft) O-NO 77 ° 0 min 0 W/m² -6,7 °C -3,6 °C 0,0 km/h (0 Bft)
14.03.2022 03:58 23,7 °C -3,7 °C 36 % 79 % 1021,1 hPa 0,0 l/m² 0,0 km/h (0 Bft) O-NO 77 ° 0 min 0 W/m² -6,8 °C -3,7 °C 0,0 km/h (0 Bft)
14.03.2022 04:00 23,7 °C -3,7 °C 36 % 78 % 1021,1 hPa 0,0 l/m² 0,0 km/h (0 Bft) O-NO 77 ° 0 min 0 W/m² -7,0 °C -3,7 °C 0,0 km/h (0 Bft)
14.03.2022 04:01 23,7 °C -3,7 °C 36 % 78 % 1021,2 hPa 0,0 l/m² 0,0 km/h (0 Bft) O-NO 77 ° 0 min 0 W/m² -7,0 °C -3,7 °C 0,0 km/h (0 Bft)
14.03.2022 04:03 23,7 °C -3,7 °C 36 % 78 % 1021,2 hPa 0,0 l/m² 0,0 km/h (0 Bft) O-NO 77 ° 0 min 0 W/m² -7,0 °C -3,7 °C 0,0 km/h (0 Bft)
14.03.2022 04:04 23,7 °C -3,7 °C 36 % 79 % 1021,1 hPa 0,0 l/m² 0,0 km/h (0 Bft) O-NO 77 ° 0 min 0 W/m² -6,8 °C -3,7 °C 0,0 km/h (0 Bft)
14.03.2022 04:05 23,7 °C -3,8 °C 36 % 79 % 1021,2 hPa 0,0 l/m² 0,0 km/h (0 Bft) O-NO 77 ° 0 min 0 W/m² -6,9 °C -3,8 °C 0,0 km/h (0 Bft)
14.03.2022 04:07 23,7 °C -3,8 °C 36 % 79 % 1021,2 hPa 0,0 l/m² 0,0 km/h (0 Bft) O-NO 77 ° 0 min 0 W/m² -6,9 °C -3,8 °C 0,0 km/h (0 Bft)
14.03.2022 04:09 23,6 °C -3,8 °C 36 % 78 % 1021,3 hPa 0,0 l/m² 0,0 km/h (0 Bft) O-NO 77 ° 0 min 0 W/m² -7,1 °C -3,8 °C 1,6 km/h (1 Bft)
14.03.2022 04:10 23,7 °C -3,8 °C 36 % 78 % 1021,3 hPa 0,0 l/m² 1,1 km/h (1 Bft) O-NO 77 ° 0 min 0 W/m² -7,1 °C -3,8 °C 1,6 km/h (1 Bft)
14.03.2022 04:12 23,7 °C -3,9 °C 36 % 78 % 1021,2 hPa 0,0 l/m² 1,6 km/h (1 Bft) O-NO 77 ° 0 min 0 W/m² -7,2 °C -3,9 °C 3,2 km/h (1 Bft)
14.03.2022 04:13 23,7 °C -3,9 °C 36 % 78 % 1021,3 hPa 0,0 l/m² 2,4 km/h (1 Bft) O-NO 77 ° 0 min 0 W/m² -7,2 °C -3,9 °C 4,8 km/h (1 Bft)
14.03.2022 04:15 23,6 °C -4,0 °C 36 % 78 % 1021,3 hPa 0,0 l/m² 0,6 km/h (0 Bft) O-NO 77 ° 0 min 0 W/m² -7,3 °C -4,0 °C 3,2 km/h (1 Bft)
14.03.2022 04:17 23,7 °C -4,1 °C 36 % 77 % 1021,3 hPa 0,0 l/m² 1,4 km/h (1 Bft) O-NO 77 ° 0 min 0 W/m² -7,5 °C -4,1 °C 3,2 km/h (1 Bft)
14.03.2022 04:18 23,7 °C -4,2 °C 36 % 77 % 1021,3 hPa 0,0 l/m² 0,2 km/h (0 Bft) O-NO 77 ° 0 min 0 W/m² -7,6 °C -4,2 °C 1,6 km/h (1 Bft)
14.03.2022 04:20 23,7 °C -4,2 °C 36 % 77 % 1021,4 hPa 0,0 l/m² 0,6 km/h (0 Bft) O-NO 77 ° 0 min 0 W/m² -7,6 °C -4,2 °C 1,6 km/h (1 Bft)
14.03.2022 04:22 23,7 °C -4,3 °C 36 % 77 % 1021,4 hPa 0,0 l/m² 1,1 km/h (1 Bft) O-NO 77 ° 0 min 0 W/m² -7,7 °C -4,3 °C 1,6 km/h (1 Bft)
14.03.2022 04:23 23,7 °C -4,3 °C 36 % 77 % 1021,4 hPa 0,0 l/m² 1,1 km/h (1 Bft) O-NO 77 ° 0 min 0 W/m² -7,7 °C -4,3 °C 1,6 km/h (1 Bft)
14.03.2022 04:25 23,7 °C -4,3 °C 36 % 77 % 1021,3 hPa 0,0 l/m² 0,2 km/h (0 Bft) O-NO 77 ° 0 min 0 W/m² -7,7 °C -4,3 °C 1,6 km/h (1 Bft)
14.03.2022 04:26 23,7 °C -4,2 °C 36 % 77 % 1021,3 hPa 0,0 l/m² 0,0 km/h (0 Bft) O-NO 77 ° 0 min 0 W/m² -7,6 °C -4,2 °C 0,0 km/h (0 Bft)
14.03.2022 04:28 23,7 °C -4,3 °C 36 % 77 % 1021,3 hPa 0,0 l/m² 0,0 km/h (0 Bft) O-NO 77 ° 0 min 0 W/m² -7,7 °C -4,3 °C 0,0 km/h (0 Bft)
14.03.2022 04:30 23,7 °C -4,6 °C 36 % 76 % 1021,4 hPa 0,0 l/m² 0,0 km/h (0 Bft) O-NO 77 ° 0 min 0 W/m² -8,2 °C -4,6 °C 0,0 km/h (0 Bft)
14.03.2022 04:31 23,7 °C -4,7 °C 36 % 77 % 1021,4 hPa 0,0 l/m² 0,0 km/h (0 Bft) O-NO 77 ° 0 min 0 W/m² -8,1 °C -4,7 °C 0,0 km/h (0 Bft)
14.03.2022 04:33 23,7 °C -4,9 °C 36 % 77 % 1021,3 hPa 0,0 l/m² 0,0 km/h (0 Bft) O-NO 77 ° 0 min 0 W/m² -8,3 °C -4,9 °C 0,0 km/h (0 Bft)
14.03.2022 04:34 23,7 °C -4,9 °C 36 % 78 % 1021,4 hPa 0,0 l/m² 0,0 km/h (0 Bft) O-NO 77 ° 0 min 0 W/m² -8,1 °C -4,9 °C 0,0 km/h (0 Bft)
14.03.2022 04:36 23,7 °C -4,9 °C 36 % 78 % 1021,4 hPa 0,0 l/m² 1,0 km/h (0 Bft) O-NO 77 ° 0 min 0 W/m² -8,1 °C -4,9 °C 1,6 km/h (1 Bft)
14.03.2022 04:38 23,7 °C -4,9 °C 36 % 79 % 1021,4 hPa 0,0 l/m² 0,0 km/h (0 Bft) O-NO 77 ° 0 min 0 W/m² -8,0 °C -4,9 °C 1,6 km/h (1 Bft)
14.03.2022 04:40 23,7 °C -4,8 °C 36 % 79 % 1021,4 hPa 0,0 l/m² 0,0 km/h (0 Bft) O-NO 77 ° 0 min 0 W/m² -7,9 °C -4,8 °C 0,0 km/h (0 Bft)
14.03.2022 04:41 23,7 °C -4,8 °C 36 % 79 % 1021,4 hPa 0,0 l/m² 0,0 km/h (0 Bft) O-NO 77 ° 0 min 0 W/m² -7,9 °C -4,8 °C 0,0 km/h (0 Bft)
14.03.2022 04:43 23,7 °C -4,8 °C 36 % 79 % 1021,3 hPa 0,0 l/m² 0,5 km/h (0 Bft) O-NO 77 ° 0 min 0 W/m² -7,9 °C -4,8 °C 1,6 km/h (1 Bft)
14.03.2022 04:44 23,7 °C -4,8 °C 36 % 79 % 1021,3 hPa 0,0 l/m² 2,1 km/h (1 Bft) O-NO 77 ° 0 min 0 W/m² -7,9 °C -4,8 °C 3,2 km/h (1 Bft)
14.03.2022 04:46 23,7 °C -4,8 °C 36 % 80 % 1021,4 hPa 0,0 l/m² 2,0 km/h (1 Bft) O-NO 77 ° 0 min 0 W/m² -7,7 °C -4,8 °C 3,2 km/h (1 Bft)
14.03.2022 04:48 23,7 °C -4,7 °C 36 % 80 % 1021,4 hPa 0,0 l/m² 0,9 km/h (0 Bft) O-NO 77 ° 0 min 0 W/m² -7,6 °C -4,7 °C 1,6 km/h (1 Bft)
14.03.2022 04:50 23,7 °C -4,7 °C 36 % 80 % 1021,4 hPa 0,0 l/m² 0,8 km/h (0 Bft) O-NO 77 ° 0 min 0 W/m² -7,6 °C -4,7 °C 1,6 km/h (1 Bft)
14.03.2022 04:51 23,7 °C -4,6 °C 36 % 80 % 1021,5 hPa 0,0 l/m² 0,0 km/h (0 Bft) O-NO 77 ° 0 min 0 W/m² -7,5 °C -4,6 °C 0,0 km/h (0 Bft)
14.03.2022 04:53 23,7 °C -4,6 °C 36 % 81 % 1021,5 hPa 0,0 l/m² 0,0 km/h (0 Bft) O-NO 77 ° 0 min 0 W/m² -7,4 °C -4,6 °C 0,0 km/h (0 Bft)
14.03.2022 04:54 23,7 °C -4,5 °C 36 % 81 % 1021,5 hPa 0,0 l/m² 0,0 km/h (0 Bft) O-NO 77 ° 0 min 0 W/m² -7,3 °C -4,5 °C 0,0 km/h (0 Bft)
14.03.2022 04:56 23,7 °C -4,4 °C 36 % 81 % 1021,5 hPa 0,0 l/m² 0,0 km/h (0 Bft) O-NO 77 ° 0 min 0 W/m² -7,2 °C -4,4 °C 0,0 km/h (0 Bft)
14.03.2022 04:58 23,7 °C -4,4 °C 36 % 81 % 1021,5 hPa 0,0 l/m² 0,0 km/h (0 Bft) O-NO 77 ° 0 min 0 W/m² -7,2 °C -4,4 °C 0,0 km/h (0 Bft)
14.03.2022 05:00 23,7 °C -4,4 °C 36 % 81 % 1021,6 hPa 0,0 l/m² 0,0 km/h (0 Bft) O-NO 77 ° 0 min 0 W/m² -7,2 °C -4,4 °C 0,0 km/h (0 Bft)
14.03.2022 05:01 23,7 °C -4,4 °C 36 % 81 % 1021,5 hPa 0,0 l/m² 0,0 km/h (0 Bft) O-NO 77 ° 0 min 0 W/m² -7,2 °C -4,4 °C 0,0 km/h (0 Bft)
14.03.2022 05:03 23,7 °C -4,4 °C 36 % 81 % 1021,6 hPa 0,0 l/m² 0,0 km/h (0 Bft) O-NO 77 ° 0 min 0 W/m² -7,2 °C -4,4 °C 0,0 km/h (0 Bft)
14.03.2022 05:04 23,7 °C -4,4 °C 36 % 80 % 1021,6 hPa 0,0 l/m² 0,0 km/h (0 Bft) O-NO 77 ° 0 min 0 W/m² -7,3 °C -4,4 °C 0,0 km/h (0 Bft)
14.03.2022 05:05 23,7 °C -4,4 °C 36 % 80 % 1021,6 hPa 0,0 l/m² 0,0 km/h (0 Bft) O-NO 77 ° 0 min 0 W/m² -7,3 °C -4,4 °C 0,0 km/h (0 Bft)
14.03.2022 05:07 23,7 °C -4,4 °C 36 % 80 % 1021,7 hPa 0,0 l/m² 0,0 km/h (0 Bft) O-NO 77 ° 0 min 0 W/m² -7,3 °C -4,4 °C 0,0 km/h (0 Bft)
14.03.2022 05:09 23,7 °C -4,4 °C 36 % 80 % 1021,7 hPa 0,0 l/m² 0,0 km/h (0 Bft) O-NO 77 ° 0 min 0 W/m² -7,3 °C -4,4 °C 0,0 km/h (0 Bft)
14.03.2022 05:10 23,7 °C -4,4 °C 36 % 80 % 1021,8 hPa 0,0 l/m² 0,0 km/h (0 Bft) O-NO 77 ° 0 min 0 W/m² -7,3 °C -4,4 °C 0,0 km/h (0 Bft)
14.03.2022 05:12 23,7 °C -4,3 °C 36 % 79 % 1021,7 hPa 0,0 l/m² 0,0 km/h (0 Bft) O-NO 77 ° 0 min 0 W/m² -7,4 °C -4,3 °C 0,0 km/h (0 Bft)
14.03.2022 05:13 23,7 °C -4,3 °C 36 % 80 % 1021,7 hPa 0,0 l/m² 0,0 km/h (0 Bft) O-NO 77 ° 0 min 0 W/m² -7,2 °C -4,3 °C 0,0 km/h (0 Bft)
14.03.2022 05:15 23,7 °C -4,3 °C 36 % 80 % 1021,8 hPa 0,0 l/m² 0,0 km/h (0 Bft) O-NO 77 ° 0 min 0 W/m² -7,2 °C -4,3 °C 0,0 km/h (0 Bft)
14.03.2022 05:17 23,7 °C -4,4 °C 36 % 79 % 1021,8 hPa 0,0 l/m² 0,0 km/h (0 Bft) O-NO 77 ° 0 min 0 W/m² -7,5 °C -4,4 °C 0,0 km/h (0 Bft)
14.03.2022 05:18 23,7 °C -4,6 °C 36 % 78 % 1021,7 hPa 0,0 l/m² 0,0 km/h (0 Bft) O-NO 77 ° 0 min 0 W/m² -7,8 °C -4,6 °C 0,0 km/h (0 Bft)
14.03.2022 05:20 23,7 °C -4,9 °C 36 % 78 % 1021,6 hPa 0,0 l/m² 0,0 km/h (0 Bft) O-NO 77 ° 0 min 0 W/m² -8,1 °C -4,9 °C 0,0 km/h (0 Bft)
14.03.2022 05:21 23,7 °C -5,0 °C 36 % 78 % 1021,7 hPa 0,0 l/m² 0,0 km/h (0 Bft) O-NO 77 ° 0 min 0 W/m² -8,2 °C -5,0 °C 0,0 km/h (0 Bft)
14.03.2022 05:23 23,7 °C -5,1 °C 36 % 79 % 1021,7 hPa 0,0 l/m² 0,0 km/h (0 Bft) O-NO 77 ° 0 min 0 W/m² -8,2 °C -5,1 °C 0,0 km/h (0 Bft)
14.03.2022 05:24 23,7 °C -5,1 °C 36 % 79 % 1021,7 hPa 0,0 l/m² 0,0 km/h (0 Bft) O-NO 77 ° 0 min 0 W/m² -8,2 °C -5,1 °C 0,0 km/h (0 Bft)
14.03.2022 05:26 23,7 °C -5,0 °C 36 % 80 % 1021,7 hPa 0,0 l/m² 0,0 km/h (0 Bft) O-NO 77 ° 0 min 0 W/m² -7,9 °C -5,0 °C 0,0 km/h (0 Bft)
14.03.2022 05:28 23,7 °C -4,9 °C 36 % 81 % 1021,6 hPa 0,0 l/m² 0,0 km/h (0 Bft) O-NO 77 ° 0 min 0 W/m² -7,6 °C -4,9 °C 0,0 km/h (0 Bft)
14.03.2022 05:30 23,7 °C -4,8 °C 36 % 81 % 1021,6 hPa 0,0 l/m² 0,0 km/h (0 Bft) O-NO 77 ° 0 min 0 W/m² -7,5 °C -4,8 °C 0,0 km/h (0 Bft)
14.03.2022 05:31 23,7 °C -4,7 °C 36 % 81 % 1021,6 hPa 0,0 l/m² 0,0 km/h (0 Bft) O-NO 77 ° 0 min 0 W/m² -7,4 °C -4,7 °C 0,0 km/h (0 Bft)
14.03.2022 05:33 23,7 °C -4,7 °C 36 % 81 % 1021,6 hPa 0,0 l/m² 0,0 km/h (0 Bft) O-NO 77 ° 0 min 0 W/m² -7,4 °C -4,7 °C 0,0 km/h (0 Bft)
14.03.2022 05:34 23,7 °C -4,7 °C 36 % 81 % 1021,7 hPa 0,0 l/m² 0,0 km/h (0 Bft) O-NO 77 ° 0 min 0 W/m² -7,4 °C -4,7 °C 0,0 km/h (0 Bft)
14.03.2022 05:36 23,7 °C -4,7 °C 36 % 81 % 1021,6 hPa 0,0 l/m² 0,0 km/h (0 Bft) O-NO 77 ° 0 min 0 W/m² -7,4 °C -4,7 °C 0,0 km/h (0 Bft)
14.03.2022 05:38 23,7 °C -4,7 °C 36 % 81 % 1021,6 hPa 0,0 l/m² 0,0 km/h (0 Bft) O-NO 77 ° 0 min 0 W/m² -7,4 °C -4,7 °C 0,0 km/h (0 Bft)
14.03.2022 05:39 23,7 °C -4,7 °C 36 % 81 % 1021,6 hPa 0,0 l/m² 0,0 km/h (0 Bft) O-NO 77 ° 0 min 0 W/m² -7,4 °C -4,7 °C 0,0 km/h (0 Bft)
14.03.2022 05:41 23,7 °C -4,7 °C 36 % 82 % 1021,6 hPa 0,0 l/m² 0,0 km/h (0 Bft) O-NO 77 ° 0 min 0 W/m² -7,3 °C -4,7 °C 0,0 km/h (0 Bft)
14.03.2022 05:42 23,7 °C -4,7 °C 36 % 82 % 1021,7 hPa 0,0 l/m² 0,0 km/h (0 Bft) O-NO 77 ° 0 min 0 W/m² -7,3 °C -4,7 °C 0,0 km/h (0 Bft)
14.03.2022 05:43 23,7 °C -4,7 °C 36 % 82 % 1021,6 hPa 0,0 l/m² 0,0 km/h (0 Bft) O-NO 77 ° 0 min 0 W/m² -7,3 °C -4,7 °C 0,0 km/h (0 Bft)
14.03.2022 05:44 23,7 °C -4,7 °C 36 % 82 % 1021,6 hPa 0,0 l/m² 0,0 km/h (0 Bft) O-NO 77 ° 0 min 0 W/m² -7,3 °C -4,7 °C 0,0 km/h (0 Bft)
14.03.2022 05:46 23,7 °C -4,7 °C 36 % 82 % 1021,6 hPa 0,0 l/m² 0,0 km/h (0 Bft) O-NO 77 ° 0 min 0 W/m² -7,3 °C -4,7 °C 0,0 km/h (0 Bft)
14.03.2022 05:48 23,7 °C -4,7 °C 36 % 82 % 1021,6 hPa 0,0 l/m² 0,0 km/h (0 Bft) O-NO 77 ° 0 min 0 W/m² -7,3 °C -4,7 °C 0,0 km/h (0 Bft)
14.03.2022 05:50 23,7 °C -4,6 °C 36 % 82 % 1021,6 hPa 0,0 l/m² 0,0 km/h (0 Bft) O-NO 77 ° 0 min 0 W/m² -7,2 °C -4,6 °C 0,0 km/h (0 Bft)
14.03.2022 05:51 23,7 °C -4,6 °C 36 % 82 % 1021,6 hPa 0,0 l/m² 0,0 km/h (0 Bft) O-NO 77 ° 0 min 0 W/m² -7,2 °C -4,6 °C 0,0 km/h (0 Bft)
14.03.2022 05:53 23,7 °C -4,7 °C 36 % 82 % 1021,6 hPa 0,0 l/m² 0,0 km/h (0 Bft) O-NO 77 ° 0 min 0 W/m² -7,3 °C -4,7 °C 0,0 km/h (0 Bft)
14.03.2022 05:54 23,7 °C -4,7 °C 36 % 81 % 1021,6 hPa 0,0 l/m² 0,0 km/h (0 Bft) O-NO 77 ° 0 min 0 W/m² -7,4 °C -4,7 °C 0,0 km/h (0 Bft)
14.03.2022 05:56 23,7 °C -4,7 °C 36 % 81 % 1021,6 hPa 0,0 l/m² 0,0 km/h (0 Bft) O-NO 77 ° 0 min 0 W/m² -7,4 °C -4,7 °C 0,0 km/h (0 Bft)
14.03.2022 05:58 23,7 °C -4,7 °C 36 % 81 % 1021,6 hPa 0,0 l/m² 0,0 km/h (0 Bft) O-NO 77 ° 0 min 0 W/m² -7,4 °C -4,7 °C 0,0 km/h (0 Bft)
14.03.2022 06:00 23,7 °C -4,8 °C 36 % 81 % 1021,6 hPa 0,0 l/m² 0,0 km/h (0 Bft) O-NO 77 ° 0 min 0 W/m² -7,5 °C -4,8 °C 0,0 km/h (0 Bft)
14.03.2022 06:01 23,7 °C -4,8 °C 36 % 81 % 1021,7 hPa 0,0 l/m² 0,0 km/h (0 Bft) O-NO 77 ° 0 min 0 W/m² -7,5 °C -4,8 °C 0,0 km/h (0 Bft)
14.03.2022 06:03 23,7 °C -4,8 °C 36 % 80 % 1021,8 hPa 0,0 l/m² 0,0 km/h (0 Bft) O-NO 77 ° 0 min 0 W/m² -7,7 °C -4,8 °C 0,0 km/h (0 Bft)
14.03.2022 06:04 23,7 °C -4,8 °C 36 % 80 % 1021,7 hPa 0,0 l/m² 0,0 km/h (0 Bft) O-NO 77 ° 0 min 0 W/m² -7,7 °C -4,8 °C 0,0 km/h (0 Bft)
14.03.2022 06:06 23,7 °C -4,8 °C 36 % 80 % 1021,7 hPa 0,0 l/m² 0,0 km/h (0 Bft) O-NO 77 ° 0 min 0 W/m² -7,7 °C -4,8 °C 0,0 km/h (0 Bft)
14.03.2022 06:08 23,7 °C -4,8 °C 36 % 81 % 1021,8 hPa 0,0 l/m² 0,0 km/h (0 Bft) O-NO 77 ° 0 min 0 W/m² -7,5 °C -4,8 °C 0,0 km/h (0 Bft)
14.03.2022 06:10 23,7 °C -4,8 °C 36 % 81 % 1021,8 hPa 0,0 l/m² 0,0 km/h (0 Bft) O-NO 77 ° 0 min 0 W/m² -7,5 °C -4,8 °C 0,0 km/h (0 Bft)
14.03.2022 06:11 23,7 °C -4,8 °C 36 % 81 % 1021,8 hPa 0,0 l/m² 0,1 km/h (0 Bft) O-NO 77 ° 0 min 0 W/m² -7,5 °C -4,8 °C 1,6 km/h (1 Bft)
14.03.2022 06:13 23,7 °C -4,8 °C 36 % 81 % 1021,8 hPa 0,0 l/m² 0,0 km/h (0 Bft) O-NO 77 ° 0 min 0 W/m² -7,5 °C -4,8 °C 0,0 km/h (0 Bft)
14.03.2022 06:14 23,7 °C -4,8 °C 36 % 81 % 1021,8 hPa 0,0 l/m² 0,0 km/h (0 Bft) O-NO 77 ° 0 min 0 W/m² -7,5 °C -4,8 °C 0,0 km/h (0 Bft)
14.03.2022 06:16 23,7 °C -4,7 °C 36 % 81 % 1021,8 hPa 0,0 l/m² 0,0 km/h (0 Bft) O-NO 77 ° 0 min 0 W/m² -7,4 °C -4,7 °C 0,0 km/h (0 Bft)
14.03.2022 06:18 23,7 °C -4,7 °C 36 % 82 % 1021,8 hPa 0,0 l/m² 0,0 km/h (0 Bft) O-NO 77 ° 0 min 0 W/m² -7,3 °C -4,7 °C 0,0 km/h (0 Bft)
14.03.2022 06:20 23,7 °C -4,7 °C 36 % 82 % 1021,9 hPa 0,0 l/m² 0,0 km/h (0 Bft) O-NO 77 ° 0 min 0 W/m² -7,3 °C -4,7 °C 0,0 km/h (0 Bft)
14.03.2022 06:21 23,7 °C -4,7 °C 36 % 82 % 1022,0 hPa 0,0 l/m² 0,0 km/h (0 Bft) O-NO 77 ° 0 min 0 W/m² -7,3 °C -4,7 °C 0,0 km/h (0 Bft)
14.03.2022 06:23 23,7 °C -4,7 °C 36 % 82 % 1021,9 hPa 0,0 l/m² 0,0 km/h (0 Bft) O-NO 77 ° 0 min 0 W/m² -7,3 °C -4,7 °C 0,0 km/h (0 Bft)
14.03.2022 06:24 23,7 °C -4,7 °C 36 % 82 % 1021,9 hPa 0,0 l/m² 0,0 km/h (0 Bft) O-NO 77 ° 0 min 0 W/m² -7,3 °C -4,7 °C 0,0 km/h (0 Bft)
14.03.2022 06:26 23,7 °C -4,7 °C 36 % 82 % 1022,0 hPa 0,0 l/m² 0,0 km/h (0 Bft) O-NO 77 ° 0 min 0 W/m² -7,3 °C -4,7 °C 0,0 km/h (0 Bft)
14.03.2022 06:28 23,7 °C -4,7 °C 36 % 82 % 1022,0 hPa 0,0 l/m² 0,0 km/h (0 Bft) O-NO 77 ° 0 min 5 W/m² -7,3 °C -4,7 °C 0,0 km/h (0 Bft)
14.03.2022 06:30 23,7 °C -4,7 °C 36 % 82 % 1022,0 hPa 0,0 l/m² 0,0 km/h (0 Bft) O-NO 77 ° 0 min 5 W/m² -7,3 °C -4,7 °C 0,0 km/h (0 Bft)
14.03.2022 06:31 23,7 °C -4,7 °C 36 % 82 % 1022,0 hPa 0,0 l/m² 0,0 km/h (0 Bft) O-NO 77 ° 0 min 7 W/m² -7,3 °C -4,7 °C 0,0 km/h (0 Bft)
14.03.2022 06:33 23,7 °C -4,7 °C 36 % 82 % 1022,0 hPa 0,0 l/m² 0,0 km/h (0 Bft) O-NO 77 ° 0 min 7 W/m² -7,3 °C -4,7 °C 0,0 km/h (0 Bft)
14.03.2022 06:34 23,7 °C -4,7 °C 36 % 82 % 1022,0 hPa 0,0 l/m² 0,0 km/h (0 Bft) O-NO 77 ° 0 min 7 W/m² -7,3 °C -4,7 °C 0,0 km/h (0 Bft)
14.03.2022 06:36 23,7 °C -4,7 °C 36 % 82 % 1022,0 hPa 0,0 l/m² 0,0 km/h (0 Bft) O-NO 77 ° 0 min 9 W/m² -7,3 °C -4,7 °C 0,0 km/h (0 Bft)
14.03.2022 06:38 23,7 °C -4,7 °C 36 % 82 % 1022,1 hPa 0,0 l/m² 0,0 km/h (0 Bft) O-NO 77 ° 0 min 11 W/m² -7,3 °C -4,7 °C 0,0 km/h (0 Bft)
14.03.2022 06:40 23,7 °C -4,7 °C 36 % 82 % 1022,3 hPa 0,0 l/m² 0,0 km/h (0 Bft) O-NO 77 ° 0 min 11 W/m² -7,3 °C -4,7 °C 0,0 km/h (0 Bft)
14.03.2022 06:41 23,7 °C -4,7 °C 36 % 82 % 1022,1 hPa 0,0 l/m² 0,0 km/h (0 Bft) O-NO 77 ° 0 min 11 W/m² -7,3 °C -4,7 °C 0,0 km/h (0 Bft)
14.03.2022 06:43 23,7 °C -4,7 °C 36 % 82 % 1022,2 hPa 0,0 l/m² 0,0 km/h (0 Bft) O-NO 77 ° 0 min 12 W/m² -7,3 °C -4,7 °C 0,0 km/h (0 Bft)
14.03.2022 06:44 23,7 °C -4,7 °C 36 % 81 % 1022,2 hPa 0,0 l/m² 0,0 km/h (0 Bft) O-NO 77 ° 0 min 12 W/m² -7,4 °C -4,7 °C 0,0 km/h (0 Bft)
14.03.2022 06:46 23,7 °C -4,7 °C 36 % 81 % 1022,3 hPa 0,0 l/m² 0,0 km/h (0 Bft) O-NO 77 ° 0 min 14 W/m² -7,4 °C -4,7 °C 0,0 km/h (0 Bft)
14.03.2022 06:48 23,7 °C -4,6 °C 36 % 81 % 1022,3 hPa 0,0 l/m² 0,0 km/h (0 Bft) O-NO 77 ° 0 min 16 W/m² -7,4 °C -4,6 °C 0,0 km/h (0 Bft)
14.03.2022 06:50 23,7 °C -4,6 °C 36 % 81 % 1022,2 hPa 0,0 l/m² 0,0 km/h (0 Bft) O-NO 77 ° 0 min 18 W/m² -7,4 °C -4,6 °C 0,0 km/h (0 Bft)
14.03.2022 06:51 23,7 °C -4,4 °C 36 % 81 % 1022,3 hPa 0,0 l/m² 0,5 km/h (0 Bft) O-NO 77 ° 0 min 18 W/m² -7,2 °C -4,4 °C 1,6 km/h (1 Bft)
14.03.2022 06:53 23,7 °C -4,4 °C 36 % 81 % 1022,3 hPa 0,0 l/m² 1,3 km/h (1 Bft) O-NO 77 ° 0 min 19 W/m² -7,2 °C -4,4 °C 1,6 km/h (1 Bft)
14.03.2022 06:54 23,7 °C -4,4 °C 36 % 81 % 1022,3 hPa 0,0 l/m² 1,2 km/h (1 Bft) O-NO 77 ° 0 min 19 W/m² -7,2 °C -4,4 °C 1,6 km/h (1 Bft)
14.03.2022 06:56 23,7 °C -4,3 °C 36 % 81 % 1022,4 hPa 0,0 l/m² 1,3 km/h (1 Bft) O-NO 77 ° 0 min 23 W/m² -7,1 °C -4,3 °C 1,6 km/h (1 Bft)
14.03.2022 06:58 23,7 °C -4,2 °C 36 % 80 % 1022,4 hPa 0,0 l/m² 0,2 km/h (0 Bft) O-NO 77 ° 0 min 26 W/m² -7,1 °C -4,2 °C 1,6 km/h (1 Bft)
14.03.2022 07:00 23,7 °C -4,1 °C 36 % 80 % 1022,4 hPa 0,0 l/m² 0,0 km/h (0 Bft) O-NO 77 ° 0 min 28 W/m² -7,0 °C -4,1 °C 0,0 km/h (0 Bft)
14.03.2022 07:01 23,7 °C -4,0 °C 36 % 80 % 1022,5 hPa 0,0 l/m² 0,0 km/h (0 Bft) O-NO 77 ° 0 min 33 W/m² -6,9 °C -4,0 °C 0,0 km/h (0 Bft)
14.03.2022 07:03 23,7 °C -3,9 °C 36 % 80 % 1022,5 hPa 0,0 l/m² 0,0 km/h (0 Bft) O-NO 77 ° 0 min 37 W/m² -6,8 °C -3,9 °C 0,0 km/h (0 Bft)
14.03.2022 07:04 23,7 °C -3,9 °C 36 % 79 % 1022,6 hPa 0,0 l/m² 0,0 km/h (0 Bft) O-NO 77 ° 0 min 39 W/m² -7,0 °C -3,9 °C 0,0 km/h (0 Bft)
14.03.2022 07:06 23,7 °C -3,8 °C 36 % 79 % 1022,6 hPa 0,0 l/m² 0,0 km/h (0 Bft) O-NO 77 ° 0 min 42 W/m² -6,9 °C -3,8 °C 0,0 km/h (0 Bft)
14.03.2022 07:08 23,7 °C -3,7 °C 36 % 79 % 1022,6 hPa 0,0 l/m² 0,0 km/h (0 Bft) O-NO 77 ° 0 min 49 W/m² -6,8 °C -3,7 °C 0,0 km/h (0 Bft)
14.03.2022 07:10 23,7 °C -3,7 °C 36 % 79 % 1022,7 hPa 0,0 l/m² 0,0 km/h (0 Bft) O-NO 77 ° 2 min 53 W/m² -6,8 °C -3,7 °C 0,0 km/h (0 Bft)
14.03.2022 07:11 23,7 °C -3,7 °C 36 % 79 % 1022,6 hPa 0,0 l/m² 0,0 km/h (0 Bft) O-NO 77 ° 1 min 54 W/m² -6,8 °C -3,7 °C 0,0 km/h (0 Bft)
14.03.2022 07:13 23,7 °C -3,7 °C 36 % 79 % 1022,5 hPa 0,0 l/m² 0,0 km/h (0 Bft) O-NO 77 ° 2 min 62 W/m² -6,8 °C -3,7 °C 0,0 km/h (0 Bft)
14.03.2022 07:14 23,7 °C -3,7 °C 36 % 79 % 1022,6 hPa 0,0 l/m² 0,0 km/h (0 Bft) O-NO 77 ° 1 min 63 W/m² -6,8 °C -3,7 °C 0,0 km/h (0 Bft)
14.03.2022 07:16 23,7 °C -3,7 °C 36 % 79 % 1022,6 hPa 0,0 l/m² 0,0 km/h (0 Bft) O-NO 77 ° 2 min 67 W/m² -6,8 °C -3,7 °C 0,0 km/h (0 Bft)
14.03.2022 07:18 23,7 °C -3,6 °C 36 % 79 % 1022,6 hPa 0,0 l/m² 0,0 km/h (0 Bft) O-NO 77 ° 2 min 70 W/m² -6,7 °C -3,6 °C 0,0 km/h (0 Bft)
14.03.2022 07:20 23,7 °C -3,5 °C 36 % 79 % 1022,6 hPa 0,0 l/m² 0,0 km/h (0 Bft) O-NO 77 ° 2 min 77 W/m² -6,6 °C -3,5 °C 0,0 km/h (0 Bft)
14.03.2022 07:21 23,7 °C -3,4 °C 36 % 79 % 1022,7 hPa 0,0 l/m² 0,0 km/h (0 Bft) O-NO 77 ° 1 min 81 W/m² -6,5 °C -3,4 °C 0,0 km/h (0 Bft)
14.03.2022 07:23 23,7 °C -3,4 °C 36 % 80 % 1022,8 hPa 0,0 l/m² 0,0 km/h (0 Bft) O-NO 77 ° 2 min 86 W/m² -6,3 °C -3,4 °C 0,0 km/h (0 Bft)
14.03.2022 07:24 23,7 °C -3,3 °C 36 % 80 % 1022,9 hPa 0,0 l/m² 0,0 km/h (0 Bft) O-NO 77 ° 1 min 90 W/m² -6,2 °C -3,3 °C 0,0 km/h (0 Bft)
14.03.2022 07:26 23,7 °C -3,3 °C 36 % 80 % 1022,9 hPa 0,0 l/m² 0,0 km/h (0 Bft) O-NO 77 ° 2 min 95 W/m² -6,2 °C -3,3 °C 0,0 km/h (0 Bft)
14.03.2022 07:28 23,7 °C -3,3 °C 36 % 81 % 1022,9 hPa 0,0 l/m² 0,0 km/h (0 Bft) O-NO 77 ° 2 min 98 W/m² -6,1 °C -3,3 °C 0,0 km/h (0 Bft)
14.03.2022 07:30 23,7 °C -3,2 °C 36 % 81 % 1023,0 hPa 0,0 l/m² 0,0 km/h (0 Bft) O-NO 77 ° 2 min 105 W/m² -6,0 °C -3,2 °C 0,0 km/h (0 Bft)
14.03.2022 07:31 23,7 °C -3,1 °C 36 % 82 % 1023,0 hPa 0,0 l/m² 0,0 km/h (0 Bft) O-NO 77 ° 1 min 107 W/m² -5,7 °C -3,1 °C 0,0 km/h (0 Bft)
14.03.2022 07:33 23,7 °C -3,1 °C 36 % 82 % 1023,0 hPa 0,0 l/m² 0,0 km/h (0 Bft) O-NO 77 ° 2 min 113 W/m² -5,7 °C -3,1 °C 0,0 km/h (0 Bft)
14.03.2022 07:34 23,7 °C -3,0 °C 36 % 82 % 1023,0 hPa 0,0 l/m² 0,0 km/h (0 Bft) O-NO 77 ° 1 min 114 W/m² -5,6 °C -3,0 °C 0,0 km/h (0 Bft)
14.03.2022 07:36 23,7 °C -2,9 °C 36 % 82 % 1023,0 hPa 0,0 l/m² 0,0 km/h (0 Bft) O-NO 77 ° 2 min 121 W/m² -5,5 °C -2,9 °C 0,0 km/h (0 Bft)
14.03.2022 07:38 23,7 °C -2,7 °C 36 % 82 % 1022,9 hPa 0,0 l/m² 0,0 km/h (0 Bft) O-NO 77 ° 2 min 125 W/m² -5,3 °C -2,7 °C 1,6 km/h (1 Bft)
14.03.2022 07:40 23,7 °C -2,5 °C 36 % 82 % 1022,9 hPa 0,0 l/m² 0,0 km/h (0 Bft) O-NO 77 ° 2 min 130 W/m² -5,1 °C -2,5 °C 0,0 km/h (0 Bft)
14.03.2022 07:41 23,7 °C -2,3 °C 36 % 81 % 1022,9 hPa 0,0 l/m² 0,0 km/h (0 Bft) O-NO 77 ° 1 min 125 W/m² -5,1 °C -2,3 °C 0,0 km/h (0 Bft)
14.03.2022 07:43 23,7 °C -2,1 °C 36 % 80 % 1023,0 hPa 0,0 l/m² 0,0 km/h (0 Bft) O-NO 77 ° 2 min 125 W/m² -5,1 °C -2,1 °C 0,0 km/h (0 Bft)
14.03.2022 07:44 23,7 °C -2,0 °C 36 % 80 % 1023,0 hPa 0,0 l/m² 0,6 km/h (0 Bft) O-NO 77 ° 1 min 128 W/m² -5,0 °C -2,0 °C 3,2 km/h (1 Bft)
14.03.2022 07:46 23,7 °C -1,8 °C 36 % 79 % 1023,0 hPa 0,0 l/m² 0,8 km/h (0 Bft) O-NO 77 ° 2 min 134 W/m² -4,9 °C -1,8 °C 1,6 km/h (1 Bft)
14.03.2022 07:48 23,7 °C -1,6 °C 36 % 78 % 1023,1 hPa 0,0 l/m² 0,8 km/h (0 Bft) O-NO 77 ° 2 min 144 W/m² -4,9 °C -1,6 °C 1,6 km/h (1 Bft)
14.03.2022 07:50 23,7 °C -1,3 °C 36 % 77 % 1023,1 hPa 0,0 l/m² 1,2 km/h (1 Bft) O-NO 77 ° 2 min 151 W/m² -4,8 °C -1,3 °C 1,6 km/h (1 Bft)
14.03.2022 07:51 23,7 °C -1,2 °C 36 % 76 % 1023,0 hPa 0,0 l/m² 1,6 km/h (1 Bft) O-NO 77 ° 1 min 155 W/m² -4,9 °C -1,2 °C 3,2 km/h (1 Bft)
14.03.2022 07:53 23,7 °C -0,9 °C 36 % 76 % 1023,1 hPa 0,0 l/m² 2,6 km/h (1 Bft) O-NO 77 ° 2 min 163 W/m² -4,6 °C -0,9 °C 4,8 km/h (1 Bft)
14.03.2022 07:54 23,7 °C -0,8 °C 36 % 76 % 1023,1 hPa 0,0 l/m² 2,7 km/h (1 Bft) O-NO 77 ° 1 min 167 W/m² -4,5 °C -0,8 °C 3,2 km/h (1 Bft)
14.03.2022 07:56 23,7 °C -0,6 °C 36 % 75 % 1023,1 hPa 0,0 l/m² 2,2 km/h (1 Bft) O-NO 77 ° 2 min 169 W/m² -4,5 °C -0,6 °C 3,2 km/h (1 Bft)
14.03.2022 07:58 23,7 °C -0,4 °C 36 % 74 % 1023,0 hPa 0,0 l/m² 2,5 km/h (1 Bft) O-NO 77 ° 2 min 178 W/m² -4,5 °C -0,4 °C 4,8 km/h (1 Bft)
14.03.2022 08:00 23,7 °C -0,2 °C 36 % 71 % 1023,0 hPa 0,0 l/m² 3,5 km/h (1 Bft) O-NO 78 ° 2 min 185 W/m² -4,8 °C -0,2 °C 6,4 km/h (2 Bft)
14.03.2022 08:01 23,7 °C -0,1 °C 36 % 71 % 1023,2 hPa 0,0 l/m² 2,4 km/h (1 Bft) O 79 ° 1 min 188 W/m² -4,7 °C -0,1 °C 4,8 km/h (1 Bft)
14.03.2022 08:03 23,7 °C 0,2 °C 36 % 69 % 1023,1 hPa 0,0 l/m² 2,3 km/h (1 Bft) O 79 ° 2 min 193 W/m² -4,8 °C 0,2 °C 3,2 km/h (1 Bft)
14.03.2022 08:04 23,7 °C 0,3 °C 36 % 69 % 1023,2 hPa 0,0 l/m² 3,7 km/h (1 Bft) O 79 ° 1 min 197 W/m² -4,7 °C 0,3 °C 4,8 km/h (1 Bft)
14.03.2022 08:06 23,7 °C 0,4 °C 36 % 69 % 1023,3 hPa 0,0 l/m² 3,7 km/h (1 Bft) O 86 ° 2 min 206 W/m² -4,6 °C 0,4 °C 6,4 km/h (2 Bft)
14.03.2022 08:08 23,7 °C 0,6 °C 36 % 69 % 1023,3 hPa 0,0 l/m² 4,2 km/h (1 Bft) O 90 ° 2 min 213 W/m² -4,4 °C 0,6 °C 6,4 km/h (2 Bft)
14.03.2022 08:10 23,7 °C 0,8 °C 36 % 67 % 1023,2 hPa 0,0 l/m² 4,3 km/h (1 Bft) O-SO 103 ° 2 min 216 W/m² -4,6 °C 0,8 °C 6,4 km/h (2 Bft)
14.03.2022 08:11 23,8 °C 0,8 °C 36 % 68 % 1023,4 hPa 0,0 l/m² 5,2 km/h (1 Bft) SO 126 ° 1 min 225 W/m² -4,4 °C 0,8 °C 6,4 km/h (2 Bft)
14.03.2022 08:13 23,8 °C 0,9 °C 36 % 66 % 1023,4 hPa 0,0 l/m² 5,2 km/h (1 Bft) SO 130 ° 2 min 232 W/m² -4,7 °C 0,9 °C 8,0 km/h (2 Bft)
14.03.2022 08:15 23,7 °C 1,2 °C 36 % 66 % 1023,4 hPa 0,0 l/m² 3,7 km/h (1 Bft) SO 130 ° 2 min 237 W/m² -4,4 °C 1,2 °C 6,4 km/h (2 Bft)
14.03.2022 08:17 23,8 °C 1,3 °C 36 % 66 % 1023,4 hPa 0,0 l/m² 3,0 km/h (1 Bft) SO 130 ° 2 min 250 W/m² -4,3 °C 1,3 °C 4,8 km/h (1 Bft)
14.03.2022 08:19 23,8 °C 1,5 °C 36 % 66 % 1023,4 hPa 0,0 l/m² 5,6 km/h (2 Bft) SO 134 ° 2 min 258 W/m² -4,1 °C 1,5 °C 8,0 km/h (2 Bft)
14.03.2022 08:21 23,8 °C 1,6 °C 36 % 64 % 1023,4 hPa 0,0 l/m² 5,8 km/h (2 Bft) S-SO 151 ° 2 min 269 W/m² -4,5 °C 1,6 °C 8,0 km/h (2 Bft)
14.03.2022 08:22 23,8 °C 1,6 °C 36 % 64 % 1023,4 hPa 0,0 l/m² 5,2 km/h (1 Bft) S-SO 151 ° 1 min 279 W/m² -4,5 °C 1,6 °C 6,4 km/h (2 Bft)
14.03.2022 08:23 23,8 °C 1,6 °C 36 % 64 % 1023,4 hPa 0,0 l/m² 2,6 km/h (1 Bft) S-SO 151 ° 1 min 287 W/m² -4,5 °C 1,6 °C 3,2 km/h (1 Bft)
14.03.2022 08:26 23,8 °C 1,8 °C 36 % 63 % 1023,4 hPa 0,0 l/m² 2,1 km/h (1 Bft) S-SO 151 ° 3 min 308 W/m² -4,5 °C 1,8 °C 4,8 km/h (1 Bft)
14.03.2022 08:28 23,8 °C 1,9 °C 36 % 63 % 1023,4 hPa 0,0 l/m² 0,1 km/h (0 Bft) S-SO 151 ° 2 min 323 W/m² -4,4 °C 1,9 °C 1,6 km/h (1 Bft)
14.03.2022 08:30 23,8 °C 2,2 °C 36 % 62 % 1023,4 hPa 0,0 l/m² 1,6 km/h (1 Bft) S-SO 151 ° 2 min 338 W/m² -4,3 °C 2,2 °C 3,2 km/h (1 Bft)
14.03.2022 08:31 23,8 °C 2,2 °C 36 % 61 % 1023,5 hPa 0,0 l/m² 1,9 km/h (1 Bft) S-SO 151 ° 1 min 348 W/m² -4,5 °C 2,2 °C 3,2 km/h (1 Bft)
14.03.2022 08:33 23,8 °C 2,3 °C 36 % 61 % 1023,5 hPa 0,0 l/m² 0,7 km/h (0 Bft) S-SO 151 ° 2 min 359 W/m² -4,4 °C 2,3 °C 1,6 km/h (1 Bft)
14.03.2022 08:34 23,8 °C 2,4 °C 36 % 61 % 1023,5 hPa 0,0 l/m² 0,8 km/h (0 Bft) S-SO 151 ° 1 min 364 W/m² -4,3 °C 2,4 °C 3,2 km/h (1 Bft)
14.03.2022 08:36 23,8 °C 2,6 °C 36 % 62 % 1023,5 hPa 0,0 l/m² 0,5 km/h (0 Bft) S-SO 151 ° 2 min 353 W/m² -3,9 °C 2,6 °C 1,6 km/h (1 Bft)
14.03.2022 08:38 23,8 °C 2,8 °C 36 % 61 % 1023,5 hPa 0,0 l/m² 3,9 km/h (1 Bft) S-SO 151 ° 2 min 388 W/m² -4,0 °C 2,8 °C 6,4 km/h (2 Bft)
14.03.2022 08:40 23,8 °C 2,9 °C 36 % 60 % 1023,5 hPa 0,0 l/m² 2,5 km/h (1 Bft) S-SO 151 ° 2 min 390 W/m² -4,1 °C 2,9 °C 4,8 km/h (1 Bft)
14.03.2022 08:41 23,8 °C 3,1 °C 36 % 59 % 1023,5 hPa 0,0 l/m² 3,3 km/h (1 Bft) S-SO 151 ° 1 min 394 W/m² -4,1 °C 3,1 °C 6,4 km/h (2 Bft)
14.03.2022 08:42 23,8 °C 3,1 °C 36 % 59 % 1023,5 hPa 0,0 l/m² 6,2 km/h (2 Bft) S-SO 159 ° 1 min 396 W/m² -4,1 °C 3,1 °C 8,0 km/h (2 Bft)
14.03.2022 08:44 23,8 °C 3,3 °C 36 % 59 % 1023,5 hPa 0,0 l/m² 5,5 km/h (2 Bft) S 173 ° 2 min 387 W/m² -3,9 °C 3,3 °C 12,9 km/h (3 Bft)
14.03.2022 08:46 23,8 °C 3,8 °C 36 % 59 % 1023,6 hPa 0,0 l/m² 5,9 km/h (2 Bft) S 181 ° 2 min 410 W/m² -3,5 °C 3,8 °C 9,7 km/h (2 Bft)
14.03.2022 08:48 23,8 °C 3,9 °C 36 % 57 % 1023,5 hPa 0,0 l/m² 3,8 km/h (1 Bft) S 181 ° 2 min 355 W/m² -3,8 °C 3,9 °C 6,4 km/h (2 Bft)
14.03.2022 08:50 23,8 °C 4,2 °C 36 % 58 % 1023,5 hPa 0,0 l/m² 3,7 km/h (1 Bft) S 181 ° 2 min 383 W/m² -3,3 °C 4,2 °C 6,4 km/h (2 Bft)
14.03.2022 08:51 23,8 °C 4,3 °C 36 % 56 % 1023,5 hPa 0,0 l/m² 4,5 km/h (1 Bft) S 181 ° 1 min 341 W/m² -3,7 °C 4,3 °C 6,4 km/h (2 Bft)
14.03.2022 08:53 23,8 °C 4,4 °C 36 % 55 % 1023,6 hPa 0,0 l/m² 5,7 km/h (2 Bft) S 182 ° 2 min 258 W/m² -3,8 °C 4,4 °C 8,0 km/h (2 Bft)
14.03.2022 08:54 23,8 °C 4,4 °C 36 % 54 % 1023,6 hPa 0,0 l/m² 8,0 km/h (2 Bft) S 186 ° 1 min 251 W/m² -4,1 °C 3,0 °C 9,7 km/h (2 Bft)
14.03.2022 08:56 23,8 °C 4,5 °C 36 % 55 % 1023,6 hPa 0,0 l/m² 7,7 km/h (2 Bft) SW 216 ° 2 min 297 W/m² -3,7 °C 3,3 °C 9,7 km/h (2 Bft)
14.03.2022 08:58 23,8 °C 4,6 °C 36 % 54 % 1023,6 hPa 0,0 l/m² 8,0 km/h (2 Bft) S 186 ° 2 min 206 W/m² -3,9 °C 3,2 °C 11,3 km/h (2 Bft)
14.03.2022 09:00 23,8 °C 4,6 °C 36 % 55 % 1023,6 hPa 0,0 l/m² 7,7 km/h (2 Bft) S-SW 194 ° 2 min 206 W/m² -3,6 °C 3,4 °C 9,7 km/h (2 Bft)
14.03.2022 09:01 23,8 °C 4,6 °C 36 % 54 % 1023,6 hPa 0,0 l/m² 7,4 km/h (2 Bft) S-SW 202 ° 1 min 188 W/m² -3,9 °C 3,7 °C 9,7 km/h (2 Bft)
14.03.2022 09:03 23,8 °C 4,5 °C 36 % 54 % 1023,5 hPa 0,0 l/m² 7,3 km/h (2 Bft) S-SW 207 ° 2 min 176 W/m² -4,0 °C 3,7 °C 9,7 km/h (2 Bft)
14.03.2022 09:04 23,8 °C 4,5 °C 36 % 55 % 1023,5 hPa 0,0 l/m² 6,2 km/h (2 Bft) S-SW 208 ° 1 min 176 W/m² -3,7 °C 4,5 °C 8,0 km/h (2 Bft)
14.03.2022 09:06 23,8 °C 4,5 °C 36 % 55 % 1023,5 hPa 0,0 l/m² 6,0 km/h (2 Bft) S-SW 207 ° 2 min 183 W/m² -3,7 °C 4,5 °C 6,4 km/h (2 Bft)
14.03.2022 09:08 23,8 °C 4,6 °C 36 % 56 % 1023,6 hPa 0,0 l/m² 5,9 km/h (2 Bft) S-SW 207 ° 2 min 190 W/m² -3,4 °C 4,6 °C 8,0 km/h (2 Bft)
14.03.2022 09:10 23,8 °C 4,6 °C 36 % 55 % 1023,6 hPa 0,0 l/m² 6,0 km/h (2 Bft) S-SW 208 ° 2 min 202 W/m² -3,6 °C 4,6 °C 8,0 km/h (2 Bft)
14.03.2022 09:11 23,8 °C 4,6 °C 36 % 55 % 1023,6 hPa 0,0 l/m² 4,8 km/h (1 Bft) S-SW 208 ° 1 min 207 W/m² -3,6 °C 4,6 °C 6,4 km/h (2 Bft)
14.03.2022 09:13 23,8 °C 4,7 °C 36 % 55 % 1023,5 hPa 0,0 l/m² 5,1 km/h (1 Bft) S-SW 208 ° 2 min 211 W/m² -3,6 °C 4,7 °C 6,4 km/h (2 Bft)
14.03.2022 09:14 23,8 °C 4,7 °C 36 % 55 % 1023,5 hPa 0,0 l/m² 5,8 km/h (2 Bft) S-SW 208 ° 1 min 216 W/m² -3,6 °C 4,7 °C 8,0 km/h (2 Bft)
14.03.2022 09:16 23,8 °C 4,8 °C 36 % 55 % 1023,6 hPa 0,0 l/m² 5,0 km/h (1 Bft) S-SW 208 ° 2 min 225 W/m² -3,5 °C 4,8 °C 6,4 km/h (2 Bft)
14.03.2022 09:18 23,8 °C 4,8 °C 36 % 54 % 1023,5 hPa 0,0 l/m² 2,8 km/h (1 Bft) S-SW 208 ° 2 min 229 W/m² -3,7 °C 4,8 °C 4,8 km/h (1 Bft)
14.03.2022 09:20 23,8 °C 4,8 °C 36 % 55 % 1023,5 hPa 0,0 l/m² 2,2 km/h (1 Bft) S-SW 208 ° 2 min 227 W/m² -3,5 °C 4,8 °C 4,8 km/h (1 Bft)
14.03.2022 09:21 23,8 °C 4,8 °C 36 % 54 % 1023,5 hPa 0,0 l/m² 3,9 km/h (1 Bft) S-SW 208 ° 1 min 232 W/m² -3,7 °C 4,8 °C 4,8 km/h (1 Bft)
14.03.2022 09:23 23,8 °C 4,9 °C 36 % 55 % 1023,6 hPa 0,0 l/m² 5,0 km/h (1 Bft) S-SW 208 ° 2 min 241 W/m² -3,4 °C 4,9 °C 6,4 km/h (2 Bft)
14.03.2022 09:24 23,8 °C 5,0 °C 36 % 54 % 1023,6 hPa 0,0 l/m² 4,9 km/h (1 Bft) S-SW 208 ° 1 min 241 W/m² -3,5 °C 5,0 °C 6,4 km/h (2 Bft)
14.03.2022 09:26 23,8 °C 5,1 °C 36 % 54 % 1023,6 hPa 0,0 l/m² 5,4 km/h (2 Bft) S-SW 208 ° 2 min 216 W/m² -3,4 °C 5,1 °C 6,4 km/h (2 Bft)
14.03.2022 09:28 23,8 °C 5,1 °C 36 % 56 % 1023,7 hPa 0,0 l/m² 6,1 km/h (2 Bft) S-SW 208 ° 2 min 202 W/m² -2,9 °C 5,1 °C 8,0 km/h (2 Bft)
14.03.2022 09:30 23,8 °C 5,1 °C 36 % 55 % 1023,7 hPa 0,0 l/m² 5,3 km/h (1 Bft) S-SW 208 ° 2 min 276 W/m² -3,2 °C 5,1 °C 8,0 km/h (2 Bft)
14.03.2022 09:31 23,8 °C 5,1 °C 36 % 55 % 1023,7 hPa 0,0 l/m² 7,0 km/h (2 Bft) S-SW 209 ° 1 min 297 W/m² -3,2 °C 4,6 °C 9,7 km/h (2 Bft)
14.03.2022 09:33 23,8 °C 5,3 °C 36 % 55 % 1023,6 hPa 0,0 l/m² 5,2 km/h (1 Bft) S-SW 209 ° 2 min 304 W/m² -3,0 °C 5,3 °C 8,0 km/h (2 Bft)
14.03.2022 09:35 23,8 °C 5,4 °C 36 % 55 % 1023,7 hPa 0,0 l/m² 6,9 km/h (2 Bft) S-SW 209 ° 2 min 343 W/m² -2,9 °C 5,0 °C 8,0 km/h (2 Bft)
14.03.2022 09:37 23,8 °C 5,5 °C 36 % 53 % 1023,8 hPa 0,0 l/m² 6,5 km/h (2 Bft) S-SW 209 ° 2 min 364 W/m² -3,3 °C 5,4 °C 8,0 km/h (2 Bft)
14.03.2022 09:39 23,8 °C 5,6 °C 36 % 54 % 1023,8 hPa 0,0 l/m² 6,0 km/h (2 Bft) S-SW 209 ° 2 min 309 W/m² -3,0 °C 5,6 °C 8,0 km/h (2 Bft)
14.03.2022 09:41 23,8 °C 5,7 °C 36 % 53 % 1023,8 hPa 0,0 l/m² 5,2 km/h (1 Bft) S-SW 209 ° 2 min 264 W/m² -3,1 °C 5,7 °C 8,0 km/h (2 Bft)
14.03.2022 09:42 23,8 °C 5,7 °C 36 % 54 % 1023,7 hPa 0,0 l/m² 5,8 km/h (2 Bft) S-SW 209 ° 1 min 267 W/m² -2,9 °C 5,7 °C 6,4 km/h (2 Bft)
14.03.2022 09:43 23,8 °C 5,7 °C 36 % 54 % 1023,7 hPa 0,0 l/m² 4,3 km/h (1 Bft) S-SW 209 ° 1 min 283 W/m² -2,9 °C 5,7 °C 6,4 km/h (2 Bft)
14.03.2022 09:46 23,8 °C 5,8 °C 36 % 55 % 1023,8 hPa 0,0 l/m² 5,2 km/h (1 Bft) S-SW 209 ° 3 min 258 W/m² -2,5 °C 5,8 °C 6,4 km/h (2 Bft)
14.03.2022 09:47 23,8 °C 5,8 °C 36 % 55 % 1023,8 hPa 0,0 l/m² 5,6 km/h (2 Bft) S-SW 211 ° 1 min 265 W/m² -2,5 °C 5,8 °C 6,4 km/h (2 Bft)
14.03.2022 09:49 23,8 °C 5,9 °C 36 % 54 % 1023,8 hPa 0,0 l/m² 6,5 km/h (2 Bft) SW 219 ° 2 min 276 W/m² -2,7 °C 5,8 °C 9,7 km/h (2 Bft)
14.03.2022 09:51 23,8 °C 5,9 °C 36 % 54 % 1023,7 hPa 0,0 l/m² 6,9 km/h (2 Bft) SW 219 ° 2 min 336 W/m² -2,7 °C 5,5 °C 9,7 km/h (2 Bft)
14.03.2022 09:52 23,8 °C 6,1 °C 36 % 54 % 1023,7 hPa 0,0 l/m² 4,8 km/h (1 Bft) SW 219 ° 1 min 267 W/m² -2,5 °C 6,1 °C 6,4 km/h (2 Bft)
14.03.2022 09:53 23,8 °C 6,1 °C 36 % 55 % 1023,7 hPa 0,0 l/m² 8,6 km/h (2 Bft) SW 222 ° 1 min 304 W/m² -2,2 °C 4,3 °C 9,7 km/h (2 Bft)
14.03.2022 09:55 23,8 °C 6,1 °C 36 % 53 % 1023,8 hPa 0,0 l/m² 9,1 km/h (2 Bft) SW 221 ° 2 min 288 W/m² -2,7 °C 3,9 °C 12,9 km/h (3 Bft)
14.03.2022 09:57 23,8 °C 6,1 °C 36 % 53 % 1023,8 hPa 0,0 l/m² 9,6 km/h (2 Bft) S-SW 213 ° 2 min 294 W/m² -2,7 °C 3,6 °C 12,9 km/h (3 Bft)
14.03.2022 09:59 23,8 °C 6,1 °C 36 % 53 % 1023,8 hPa 0,0 l/m² 7,5 km/h (2 Bft) S-SW 206 ° 2 min 373 W/m² -2,7 °C 5,2 °C 12,9 km/h (3 Bft)
14.03.2022 10:01 23,8 °C 6,2 °C 36 % 53 % 1023,8 hPa 0,0 l/m² 6,2 km/h (2 Bft) S-SW 213 ° 2 min 288 W/m² -2,7 °C 6,2 °C 9,7 km/h (2 Bft)
14.03.2022 10:02 23,8 °C 6,3 °C 36 % 53 % 1023,8 hPa 0,0 l/m² 7,3 km/h (2 Bft) S-SW 213 ° 1 min 206 W/m² -2,6 °C 5,5 °C 9,7 km/h (2 Bft)
14.03.2022 10:03 23,8 °C 6,3 °C 36 % 53 % 1023,8 hPa 0,0 l/m² 7,5 km/h (2 Bft) S-SW 211 ° 1 min 200 W/m² -2,6 °C 5,4 °C 9,7 km/h (2 Bft)
14.03.2022 10:04 23,8 °C 6,3 °C 36 % 54 % 1023,8 hPa 0,0 l/m² 7,5 km/h (2 Bft) S-SW 209 ° 1 min 197 W/m² -2,3 °C 5,4 °C 8,0 km/h (2 Bft)
14.03.2022 10:05 23,8 °C 6,2 °C 36 % 53 % 1023,9 hPa 0,0 l/m² 7,6 km/h (2 Bft) S-SW 211 ° 1 min 202 W/m² -2,7 °C 5,2 °C 8,0 km/h (2 Bft)
14.03.2022 10:07 23,8 °C 6,2 °C 36 % 53 % 1023,9 hPa 0,0 l/m² 6,2 km/h (2 Bft) S-SW 211 ° 2 min 255 W/m² -2,7 °C 6,2 °C 8,0 km/h (2 Bft)
14.03.2022 10:09 23,8 °C 6,3 °C 36 % 54 % 1023,9 hPa 0,0 l/m² 5,5 km/h (2 Bft) S-SW 211 ° 2 min 223 W/m² -2,3 °C 6,3 °C 8,0 km/h (2 Bft)
14.03.2022 10:11 23,8 °C 6,3 °C 36 % 53 % 1023,9 hPa 0,0 l/m² 3,4 km/h (1 Bft) S-SW 211 ° 2 min 225 W/m² -2,6 °C 6,3 °C 6,4 km/h (2 Bft)
14.03.2022 10:12 23,8 °C 6,3 °C 36 % 53 % 1023,9 hPa 0,0 l/m² 4,4 km/h (1 Bft) S-SW 211 ° 1 min 227 W/m² -2,6 °C 6,3 °C 6,4 km/h (2 Bft)
14.03.2022 10:13 23,8 °C 6,3 °C 36 % 52 % 1023,9 hPa 0,0 l/m² 3,0 km/h (1 Bft) S-SW 211 ° 1 min 230 W/m² -2,8 °C 6,3 °C 4,8 km/h (1 Bft)
14.03.2022 10:15 23,8 °C 6,4 °C 36 % 53 % 1023,9 hPa 0,0 l/m² 3,0 km/h (1 Bft) S-SW 211 ° 2 min 241 W/m² -2,5 °C 6,4 °C 4,8 km/h (1 Bft)
14.03.2022 10:17 23,8 °C 6,5 °C 36 % 54 % 1024,0 hPa 0,0 l/m² 3,8 km/h (1 Bft) S-SW 211 ° 2 min 262 W/m² -2,1 °C 6,5 °C 4,8 km/h (1 Bft)
14.03.2022 10:19 23,8 °C 6,6 °C 36 % 53 % 1024,1 hPa 0,0 l/m² 3,5 km/h (1 Bft) S-SW 211 ° 2 min 292 W/m² -2,3 °C 6,6 °C 6,4 km/h (2 Bft)
14.03.2022 10:21 23,8 °C 6,8 °C 36 % 52 % 1024,1 hPa 0,0 l/m² 4,3 km/h (1 Bft) S-SW 211 ° 2 min 308 W/m² -2,4 °C 6,8 °C 8,0 km/h (2 Bft)
14.03.2022 10:22 23,8 °C 6,9 °C 36 % 52 % 1024,0 hPa 0,0 l/m² 4,9 km/h (1 Bft) S 185 ° 1 min 297 W/m² -2,3 °C 6,9 °C 8,0 km/h (2 Bft)
14.03.2022 10:23 23,8 °C 6,9 °C 36 % 52 % 1024,0 hPa 0,0 l/m² 6,6 km/h (2 Bft) S 177 ° 1 min 316 W/m² -2,3 °C 6,8 °C 11,3 km/h (2 Bft)
14.03.2022 10:26 23,8 °C 7,2 °C 36 % 52 % 1024,0 hPa 0,0 l/m² 2,0 km/h (1 Bft) S 176 ° 3 min 265 W/m² -2,0 °C 7,2 °C 6,4 km/h (2 Bft)
14.03.2022 10:28 23,8 °C 7,2 °C 36 % 50 % 1024,2 hPa 0,0 l/m² 2,6 km/h (1 Bft) S 176 ° 2 min 287 W/m² -2,5 °C 7,2 °C 4,8 km/h (1 Bft)
14.03.2022 10:30 23,8 °C 7,3 °C 36 % 51 % 1024,1 hPa 0,0 l/m² 2,4 km/h (1 Bft) S 176 ° 2 min 316 W/m² -2,2 °C 7,3 °C 4,8 km/h (1 Bft)
14.03.2022 10:31 23,8 °C 7,3 °C 36 % 49 % 1024,1 hPa 0,0 l/m² 0,7 km/h (0 Bft) S 176 ° 1 min 318 W/m² -2,7 °C 7,3 °C 3,2 km/h (1 Bft)
14.03.2022 10:33 23,8 °C 7,3 °C 36 % 49 % 1024,2 hPa 0,0 l/m² 3,3 km/h (1 Bft) S 176 ° 2 min 362 W/m² -2,7 °C 7,3 °C 4,8 km/h (1 Bft)
14.03.2022 10:35 23,8 °C 7,4 °C 36 % 50 % 1024,2 hPa 0,0 l/m² 4,3 km/h (1 Bft) S-SO 167 ° 2 min 378 W/m² -2,3 °C 7,4 °C 8,0 km/h (2 Bft)
14.03.2022 10:37 23,8 °C 7,7 °C 36 % 50 % 1024,2 hPa 0,0 l/m² 7,0 km/h (2 Bft) S 169 ° 2 min 378 W/m² -2,1 °C 7,2 °C 9,7 km/h (2 Bft)
14.03.2022 10:39 23,8 °C 8,1 °C 36 % 49 % 1024,2 hPa 0,0 l/m² 6,9 km/h (2 Bft) S 175 ° 2 min 601 W/m² -2,0 °C 7,7 °C 9,7 km/h (2 Bft)
14.03.2022 10:41 23,8 °C 8,2 °C 36 % 48 % 1024,2 hPa 0,0 l/m² 5,9 km/h (2 Bft) S 181 ° 2 min 496 W/m² -2,1 °C 8,2 °C 8,0 km/h (2 Bft)
14.03.2022 10:42 23,8 °C 8,3 °C 36 % 48 % 1024,3 hPa 0,0 l/m² 4,0 km/h (1 Bft) S 181 ° 1 min 503 W/m² -2,1 °C 8,3 °C 4,8 km/h (1 Bft)
14.03.2022 10:43 23,8 °C 8,4 °C 36 % 49 % 1024,3 hPa 0,0 l/m² 6,0 km/h (2 Bft) S-SW 205 ° 1 min 454 W/m² -1,7 °C 8,4 °C 9,7 km/h (2 Bft)
14.03.2022 10:45 23,8 °C 8,7 °C 36 % 48 % 1024,4 hPa 0,0 l/m² 8,3 km/h (2 Bft) S-SO 164 ° 2 min 519 W/m² -1,7 °C 7,3 °C 9,7 km/h (2 Bft)
14.03.2022 10:47 23,8 °C 8,8 °C 37 % 48 % 1024,5 hPa 0,0 l/m² 10,2 km/h (2 Bft) S-SW 192 ° 2 min 345 W/m² -1,6 °C 6,1 °C 17,7 km/h (3 Bft)
14.03.2022 10:49 23,8 °C 8,8 °C 36 % 46 % 1024,5 hPa 0,0 l/m² 9,9 km/h (2 Bft) S 186 ° 2 min 292 W/m² -2,2 °C 6,3 °C 12,9 km/h (3 Bft)
14.03.2022 10:51 23,8 °C 8,8 °C 37 % 46 % 1024,4 hPa 0,0 l/m² 8,6 km/h (2 Bft) S-SW 205 ° 2 min 290 W/m² -2,2 °C 7,2 °C 12,9 km/h (3 Bft)
14.03.2022 10:52 23,8 °C 8,8 °C 36 % 46 % 1024,5 hPa 0,0 l/m² 12,8 km/h (3 Bft) S 190 ° 1 min 290 W/m² -2,2 °C 4,7 °C 14,5 km/h (3 Bft)
14.03.2022 10:53 23,8 °C 8,8 °C 36 % 46 % 1024,5 hPa 0,0 l/m² 13,4 km/h (3 Bft) S-SW 204 ° 1 min 288 W/m² -2,2 °C 4,4 °C 17,7 km/h (3 Bft)
14.03.2022 10:55 23,8 °C 8,9 °C 36 % 49 % 1024,5 hPa 0,0 l/m² 9,3 km/h (2 Bft) S-SW 212 ° 2 min 313 W/m² -1,2 °C 6,8 °C 12,9 km/h (3 Bft)
14.03.2022 10:57 23,8 °C 8,8 °C 36 % 46 % 1024,6 hPa 0,0 l/m² 12,1 km/h (2 Bft) SW 224 ° 2 min 381 W/m² -2,2 °C 5,1 °C 16,1 km/h (3 Bft)
14.03.2022 10:59 23,8 °C 8,9 °C 36 % 47 % 1024,6 hPa 0,0 l/m² 11,6 km/h (2 Bft) S-SW 197 ° 2 min 381 W/m² -1,8 °C 5,5 °C 14,5 km/h (3 Bft)
14.03.2022 11:01 23,8 °C 9,0 °C 36 % 46 % 1024,5 hPa 0,0 l/m² 12,8 km/h (3 Bft) S-SW 211 ° 2 min 420 W/m² -2,0 °C 5,0 °C 16,1 km/h (3 Bft)
14.03.2022 11:02 23,8 °C 9,1 °C 36 % 46 % 1024,5 hPa 0,0 l/m² 10,2 km/h (2 Bft) S-SW 205 ° 1 min 454 W/m² -1,9 °C 6,5 °C 14,5 km/h (3 Bft)
14.03.2022 11:03 23,8 °C 9,1 °C 36 % 44 % 1024,5 hPa 0,0 l/m² 9,2 km/h (2 Bft) SW 217 ° 1 min 434 W/m² -2,5 °C 7,1 °C 11,3 km/h (2 Bft)
14.03.2022 11:06 23,8 °C 9,4 °C 36 % 47 % 1024,5 hPa 0,0 l/m² 10,2 km/h (2 Bft) W-SW 242 ° 3 min 438 W/m² -1,3 °C 6,8 °C 16,1 km/h (3 Bft)
14.03.2022 11:08 23,8 °C 9,6 °C 36 % 44 % 1024,5 hPa 0,0 l/m² 7,8 km/h (2 Bft) S-SW 207 ° 2 min 415 W/m² -2,0 °C 8,6 °C 11,3 km/h (2 Bft)
14.03.2022 11:10 23,8 °C 9,8 °C 36 % 44 % 1024,5 hPa 0,0 l/m² 9,1 km/h (2 Bft) SW 225 ° 2 min 424 W/m² -1,9 °C 7,9 °C 14,5 km/h (3 Bft)
14.03.2022 11:11 23,8 °C 10,0 °C 36 % 44 % 1024,6 hPa 0,0 l/m² 11,6 km/h (2 Bft) W-SW 252 ° 1 min 396 W/m² -1,7 °C 6,7 °C 16,1 km/h (3 Bft)
14.03.2022 11:13 23,8 °C 10,1 °C 37 % 41 % 1024,6 hPa 0,0 l/m² 12,9 km/h (3 Bft) S-SW 204 ° 2 min 487 W/m² -2,5 °C 6,2 °C 19,3 km/h (3 Bft)
14.03.2022 11:15 23,8 °C 10,3 °C 36 % 40 % 1024,5 hPa 0,0 l/m² 14,2 km/h (3 Bft) W 267 ° 2 min 487 W/m² -2,7 °C 5,8 °C 19,3 km/h (3 Bft)
14.03.2022 11:17 23,8 °C 10,6 °C 37 % 43 % 1024,5 hPa 0,0 l/m² 13,9 km/h (3 Bft) S-SW 212 ° 2 min 387 W/m² -1,4 °C 6,3 °C 19,3 km/h (3 Bft)
14.03.2022 11:19 23,8 °C 10,4 °C 37 % 41 % 1024,5 hPa 0,0 l/m² 14,8 km/h (3 Bft) W-SW 250 ° 2 min 350 W/m² -2,3 °C 5,7 °C 20,9 km/h (4 Bft)
14.03.2022 11:21 23,8 °C 10,4 °C 37 % 42 % 1024,6 hPa 0,0 l/m² 12,1 km/h (2 Bft) S-SW 211 ° 2 min 359 W/m² -1,9 °C 6,9 °C 17,7 km/h (3 Bft)
14.03.2022 11:22 23,8 °C 10,3 °C 36 % 41 % 1024,6 hPa 0,0 l/m² 17,8 km/h (3 Bft) SW 219 ° 1 min 427 W/m² -2,4 °C 4,4 °C 22,5 km/h (4 Bft)
14.03.2022 11:23 23,8 °C 10,3 °C 36 % 42 % 1024,6 hPa 0,0 l/m² 14,2 km/h (3 Bft) W-SW 244 ° 1 min 380 W/m² -2,0 °C 5,8 °C 16,1 km/h (3 Bft)
14.03.2022 11:26 23,8 °C 10,3 °C 36 % 43 % 1024,6 hPa 0,0 l/m² 13,8 km/h (3 Bft) SW 223 ° 3 min 457 W/m² -1,7 °C 6,0 °C 20,9 km/h (4 Bft)
14.03.2022 11:28 23,8 °C 10,7 °C 36 % 42 % 1024,6 hPa 0,0 l/m² 12,9 km/h (3 Bft) SW 232 ° 2 min 686 W/m² -1,7 °C 6,9 °C 17,7 km/h (3 Bft)
14.03.2022 11:30 23,8 °C 10,8 °C 37 % 42 % 1024,6 hPa 0,0 l/m² 9,6 km/h (2 Bft) S-SW 206 ° 2 min 496 W/m² -1,6 °C 8,7 °C 12,9 km/h (3 Bft)
14.03.2022 11:31 23,8 °C 10,9 °C 36 % 43 % 1024,7 hPa 0,0 l/m² 10,1 km/h (2 Bft) W-SW 238 ° 1 min 496 W/m² -1,2 °C 8,5 °C 12,9 km/h (3 Bft)
14.03.2022 11:33 23,8 °C 10,9 °C 36 % 44 % 1024,6 hPa 0,0 l/m² 10,4 km/h (2 Bft) SW 223 ° 2 min 306 W/m² -0,9 °C 8,4 °C 16,1 km/h (3 Bft)
14.03.2022 11:35 23,8 °C 10,7 °C 36 % 43 % 1024,7 hPa 0,0 l/m² 13,9 km/h (3 Bft) SW 215 ° 2 min 297 W/m² -1,4 °C 6,4 °C 20,9 km/h (4 Bft)
14.03.2022 11:37 23,8 °C 10,5 °C 36 % 43 % 1024,9 hPa 0,0 l/m² 13,9 km/h (3 Bft) S-SW 199 ° 2 min 279 W/m² -1,5 °C 6,2 °C 17,7 km/h (3 Bft)
14.03.2022 11:39 23,8 °C 10,3 °C 36 % 43 % 1025,0 hPa 0,0 l/m² 17,3 km/h (3 Bft) S-SW 202 ° 2 min 267 W/m² -1,7 °C 4,6 °C 20,9 km/h (4 Bft)
14.03.2022 11:41 23,8 °C 10,2 °C 36 % 43 % 1025,0 hPa 0,0 l/m² 15,9 km/h (3 Bft) S-SW 213 ° 2 min 269 W/m² -1,8 °C 5,0 °C 19,3 km/h (3 Bft)
14.03.2022 11:42 23,8 °C 10,2 °C 36 % 45 % 1025,0 hPa 0,0 l/m² 14,3 km/h (3 Bft) S-SW 205 ° 1 min 278 W/m² -1,2 °C 5,7 °C 16,1 km/h (3 Bft)
14.03.2022 11:43 23,8 °C 10,2 °C 36 % 44 % 1025,0 hPa 0,0 l/m² 16,4 km/h (3 Bft) SW 221 ° 1 min 279 W/m² -1,5 °C 4,8 °C 19,3 km/h (3 Bft)
14.03.2022 11:46 23,7 °C 10,2 °C 36 % 45 % 1025,2 hPa 0,0 l/m² 12,8 km/h (3 Bft) SW 216 ° 3 min 279 W/m² -1,2 °C 6,4 °C 17,7 km/h (3 Bft)
14.03.2022 11:48 23,7 °C 10,3 °C 37 % 45 % 1025,3 hPa 0,0 l/m² 13,3 km/h (3 Bft) W-SW 249 ° 2 min 283 W/m² -1,1 °C 6,2 °C 24,1 km/h (4 Bft)
14.03.2022 11:50 23,8 °C 10,3 °C 37 % 45 % 1025,3 hPa 0,0 l/m² 12,7 km/h (3 Bft) SW 231 ° 2 min 278 W/m² -1,1 °C 6,5 °C 17,7 km/h (3 Bft)
14.03.2022 11:51 23,7 °C 10,3 °C 37 % 44 % 1025,3 hPa 0,0 l/m² 13,9 km/h (3 Bft) SW 227 ° 1 min 271 W/m² -1,4 °C 6,0 °C 17,7 km/h (3 Bft)
14.03.2022 11:53 23,7 °C 10,3 °C 36 % 44 % 1025,3 hPa 0,0 l/m² 13,9 km/h (3 Bft) SW 236 ° 2 min 253 W/m² -1,4 °C 6,0 °C 20,9 km/h (4 Bft)
14.03.2022 11:55 23,7 °C 10,3 °C 37 % 46 % 1025,4 hPa 0,0 l/m² 12,7 km/h (3 Bft) W-SW 238 ° 2 min 229 W/m² -0,8 °C 6,5 °C 20,9 km/h (4 Bft)
14.03.2022 11:57 23,7 °C 10,2 °C 36 % 46 % 1025,5 hPa 0,0 l/m² 12,2 km/h (2 Bft) SW 215 ° 2 min 211 W/m² -0,9 °C 6,6 °C 17,7 km/h (3 Bft)
14.03.2022 11:59 23,7 °C 10,2 °C 37 % 46 % 1025,4 hPa 0,0 l/m² 14,9 km/h (3 Bft) SW 223 ° 2 min 202 W/m² -0,9 °C 5,4 °C 22,5 km/h (4 Bft)
14.03.2022 12:01 23,7 °C 10,2 °C 37 % 48 % 1025,4 hPa 0,0 l/m² 14,5 km/h (3 Bft) SW 219 ° 2 min 195 W/m² -0,3 °C 5,6 °C 19,3 km/h (3 Bft)
14.03.2022 12:02 23,7 °C 10,2 °C 36 % 48 % 1025,5 hPa 0,0 l/m² 12,7 km/h (3 Bft) SW 222 ° 1 min 192 W/m² -0,3 °C 6,4 °C 16,1 km/h (3 Bft)
14.03.2022 12:03 23,7 °C 10,1 °C 36 % 48 % 1025,5 hPa 0,0 l/m² 11,2 km/h (2 Bft) SW 215 ° 1 min 190 W/m² -0,4 °C 7,0 °C 14,5 km/h (3 Bft)
14.03.2022 12:06 23,7 °C 10,2 °C 37 % 49 % 1025,4 hPa 0,0 l/m² 12,7 km/h (3 Bft) SW 214 ° 3 min 181 W/m² -0,0 °C 6,4 °C 17,7 km/h (3 Bft)
14.03.2022 12:08 23,7 °C 10,2 °C 37 % 49 % 1025,4 hPa 0,0 l/m² 14,8 km/h (3 Bft) SW 224 ° 2 min 176 W/m² -0,0 °C 5,5 °C 19,3 km/h (3 Bft)
14.03.2022 12:10 23,7 °C 10,2 °C 37 % 49 % 1025,4 hPa 0,0 l/m² 14,4 km/h (3 Bft) SW 219 ° 2 min 176 W/m² -0,0 °C 5,6 °C 19,3 km/h (3 Bft)
14.03.2022 12:11 23,7 °C 10,1 °C 37 % 50 % 1025,4 hPa 0,0 l/m² 8,0 km/h (2 Bft) SW 222 ° 1 min 174 W/m² 0,2 °C 9,0 °C 9,7 km/h (2 Bft)
14.03.2022 12:13 23,7 °C 10,2 °C 37 % 50 % 1025,4 hPa 0,0 l/m² 10,7 km/h (2 Bft) S-SW 212 ° 2 min 171 W/m² 0,3 °C 7,4 °C 19,3 km/h (3 Bft)
14.03.2022 12:15 23,7 °C 10,2 °C 37 % 51 % 1025,4 hPa 0,0 l/m² 13,7 km/h (3 Bft) SW 220 ° 2 min 171 W/m² 0,5 °C 5,9 °C 17,7 km/h (3 Bft)
14.03.2022 12:17 23,7 °C 10,2 °C 37 % 51 % 1025,4 hPa 0,0 l/m² 14,4 km/h (3 Bft) SW 224 ° 2 min 176 W/m² 0,5 °C 5,6 °C 20,9 km/h (4 Bft)
14.03.2022 12:19 23,7 °C 10,1 °C 37 % 51 % 1025,4 hPa 0,0 l/m² 13,6 km/h (3 Bft) SW 226 ° 2 min 181 W/m² 0,4 °C 5,9 °C 19,3 km/h (3 Bft)
14.03.2022 12:21 23,7 °C 10,1 °C 37 % 51 % 1025,4 hPa 0,0 l/m² 13,3 km/h (3 Bft) SW 218 ° 2 min 185 W/m² 0,4 °C 6,0 °C 20,9 km/h (4 Bft)
14.03.2022 12:22 23,7 °C 10,1 °C 37 % 52 % 1025,4 hPa 0,0 l/m² 11,9 km/h (2 Bft) SW 231 ° 1 min 188 W/m² 0,7 °C 6,7 °C 14,5 km/h (3 Bft)
14.03.2022 12:23 23,7 °C 10,1 °C 37 % 52 % 1025,4 hPa 0,0 l/m² 11,7 km/h (2 Bft) SW 229 ° 1 min 204 W/m² 0,7 °C 6,8 °C 17,7 km/h (3 Bft)
14.03.2022 12:25 23,7 °C 10,2 °C 37 % 52 % 1025,3 hPa 0,0 l/m² 11,4 km/h (2 Bft) S-SW 211 ° 2 min 227 W/m² 0,8 °C 7,1 °C 16,1 km/h (3 Bft)
14.03.2022 12:27 23,6 °C 10,2 °C 37 % 52 % 1025,3 hPa 0,0 l/m² 12,0 km/h (2 Bft) SW 222 ° 2 min 246 W/m² 0,8 °C 6,7 °C 16,1 km/h (3 Bft)
14.03.2022 12:29 23,6 °C 10,3 °C 37 % 51 % 1025,4 hPa 0,0 l/m² 15,0 km/h (3 Bft) S-SW 211 ° 2 min 253 W/m² 0,6 °C 5,5 °C 19,3 km/h (3 Bft)
14.03.2022 12:31 23,6 °C 10,3 °C 37 % 52 % 1025,4 hPa 0,0 l/m² 15,7 km/h (3 Bft) SW 228 ° 2 min 271 W/m² 0,9 °C 5,2 °C 20,9 km/h (4 Bft)
14.03.2022 12:32 23,6 °C 10,3 °C 37 % 52 % 1025,4 hPa 0,0 l/m² 21,5 km/h (4 Bft) SW 225 ° 1 min 272 W/m² 0,9 °C 3,2 °C 27,4 km/h (5 Bft)
14.03.2022 12:33 23,6 °C 10,3 °C 37 % 51 % 1025,5 hPa 0,0 l/m² 21,2 km/h (4 Bft) SW 229 ° 1 min 271 W/m² 0,6 °C 3,3 °C 25,7 km/h (4 Bft)
14.03.2022 12:35 23,6 °C 10,3 °C 37 % 52 % 1025,4 hPa 0,0 l/m² 16,9 km/h (3 Bft) S-SW 213 ° 2 min 297 W/m² 0,9 °C 4,7 °C 22,5 km/h (4 Bft)
14.03.2022 12:37 23,6 °C 10,3 °C 37 % 51 % 1025,5 hPa 0,0 l/m² 21,4 km/h (4 Bft) SW 221 ° 2 min 327 W/m² 0,6 °C 3,2 °C 29,0 km/h (5 Bft)
14.03.2022 12:39 23,6 °C 10,3 °C 37 % 50 % 1025,4 hPa 0,0 l/m² 18,5 km/h (3 Bft) W-SW 241 ° 2 min 329 W/m² 0,3 °C 4,2 °C 24,1 km/h (4 Bft)
14.03.2022 12:41 23,6 °C 10,4 °C 37 % 50 % 1025,4 hPa 0,0 l/m² 17,9 km/h (3 Bft) S-SW 209 ° 2 min 281 W/m² 0,4 °C 4,5 °C 25,7 km/h (4 Bft)
14.03.2022 12:42 23,6 °C 10,4 °C 37 % 49 % 1025,4 hPa 0,0 l/m² 18,2 km/h (3 Bft) SW 220 ° 1 min 274 W/m² 0,2 °C 4,4 °C 25,7 km/h (4 Bft)
14.03.2022 12:43 23,6 °C 10,4 °C 37 % 49 % 1025,4 hPa 0,0 l/m² 16,9 km/h (3 Bft) SW 228 ° 1 min 251 W/m² 0,2 °C 4,9 °C 22,5 km/h (4 Bft)
14.03.2022 12:45 23,6 °C 10,4 °C 37 % 49 % 1025,4 hPa 0,0 l/m² 18,2 km/h (3 Bft) W-SW 251 ° 2 min 257 W/m² 0,2 °C 4,4 °C 24,1 km/h (4 Bft)
14.03.2022 12:48 23,6 °C 10,5 °C 37 % 50 % 1025,4 hPa 0,0 l/m² 18,0 km/h (3 Bft) SW 224 ° 3 min 239 W/m² 0,5 °C 4,6 °C 27,4 km/h (5 Bft)
14.03.2022 12:50 23,6 °C 10,6 °C 37 % 50 % 1025,5 hPa 0,0 l/m² 12,8 km/h (3 Bft) SW 221 ° 2 min 230 W/m² 0,6 °C 6,8 °C 22,5 km/h (4 Bft)
14.03.2022 12:52 23,6 °C 10,7 °C 37 % 50 % 1025,5 hPa 0,0 l/m² 15,1 km/h (3 Bft) SW 234 ° 2 min 230 W/m² 0,7 °C 5,9 °C 20,9 km/h (4 Bft)
14.03.2022 12:53 23,6 °C 10,7 °C 37 % 50 % 1025,5 hPa 0,0 l/m² 22,4 km/h (4 Bft) S-SW 206 ° 1 min 234 W/m² 0,7 °C 3,5 °C 27,4 km/h (5 Bft)
14.03.2022 12:54 23,6 °C 10,7 °C 37 % 48 % 1025,5 hPa 0,0 l/m² 20,6 km/h (4 Bft) S-SW 213 ° 1 min 237 W/m² 0,1 °C 4,0 °C 24,1 km/h (4 Bft)
14.03.2022 12:56 23,6 °C 10,8 °C 37 % 49 % 1025,4 hPa 0,0 l/m² 19,6 km/h (3 Bft) SW 216 ° 2 min 246 W/m² 0,5 °C 4,4 °C 25,7 km/h (4 Bft)
14.03.2022 12:58 23,6 °C 10,8 °C 37 % 48 % 1025,5 hPa 0,0 l/m² 19,3 km/h (3 Bft) S-SW 207 ° 2 min 255 W/m² 0,2 °C 4,5 °C 24,1 km/h (4 Bft)
14.03.2022 13:00 23,6 °C 10,8 °C 37 % 48 % 1025,5 hPa 0,0 l/m² 19,0 km/h (3 Bft) SW 217 ° 2 min 267 W/m² 0,2 °C 4,6 °C 25,7 km/h (4 Bft)
14.03.2022 13:02 23,6 °C 10,9 °C 37 % 48 % 1025,5 hPa 0,0 l/m² 19,0 km/h (3 Bft) SW 215 ° 2 min 285 W/m² 0,3 °C 4,8 °C 25,7 km/h (4 Bft)
14.03.2022 13:03 23,6 °C 10,9 °C 37 % 49 % 1025,5 hPa 0,0 l/m² 20,3 km/h (4 Bft) SW 225 ° 1 min 292 W/m² 0,6 °C 4,4 °C 25,7 km/h (4 Bft)
14.03.2022 13:04 23,6 °C 10,9 °C 37 % 50 % 1025,4 hPa 0,0 l/m² 17,3 km/h (3 Bft) SW 222 ° 1 min 299 W/m² 0,9 °C 5,4 °C 22,5 km/h (4 Bft)
14.03.2022 13:06 23,6 °C 11,1 °C 37 % 51 % 1025,4 hPa 0,0 l/m² 17,8 km/h (3 Bft) SW 223 ° 2 min 292 W/m² 1,4 °C 5,4 °C 24,1 km/h (4 Bft)
14.03.2022 13:08 23,6 °C 11,1 °C 37 % 49 % 1025,4 hPa 0,0 l/m² 16,1 km/h (3 Bft) S-SW 213 ° 2 min 279 W/m² 0,8 °C 6,0 °C 22,5 km/h (4 Bft)
14.03.2022 13:10 23,6 °C 11,1 °C 37 % 50 % 1025,3 hPa 0,0 l/m² 21,2 km/h (4 Bft) S-SW 208 ° 2 min 274 W/m² 1,1 °C 4,3 °C 25,7 km/h (4 Bft)
14.03.2022 13:12 23,6 °C 11,1 °C 37 % 50 % 1025,5 hPa 0,0 l/m² 17,0 km/h (3 Bft) W-SW 237 ° 2 min 274 W/m² 1,1 °C 5,7 °C 20,9 km/h (4 Bft)
14.03.2022 13:13 23,6 °C 11,2 °C 37 % 50 % 1025,5 hPa 0,0 l/m² 18,5 km/h (3 Bft) SW 233 ° 1 min 274 W/m² 1,2 °C 5,3 °C 22,5 km/h (4 Bft)
14.03.2022 13:14 23,6 °C 11,2 °C 37 % 50 % 1025,4 hPa 0,0 l/m² 17,4 km/h (3 Bft) SW 233 ° 1 min 271 W/m² 1,2 °C 5,7 °C 24,1 km/h (4 Bft)
14.03.2022 13:16 23,6 °C 11,2 °C 37 % 51 % 1025,4 hPa 0,0 l/m² 18,7 km/h (3 Bft) SW 221 ° 2 min 251 W/m² 1,4 °C 5,3 °C 22,5 km/h (4 Bft)
14.03.2022 13:18 23,6 °C 11,2 °C 37 % 50 % 1025,5 hPa 0,0 l/m² 18,0 km/h (3 Bft) S-SW 213 ° 2 min 250 W/m² 1,2 °C 5,5 °C 24,1 km/h (4 Bft)
14.03.2022 13:20 23,6 °C 11,2 °C 37 % 51 % 1025,5 hPa 0,0 l/m² 18,4 km/h (3 Bft) SW 224 ° 2 min 255 W/m² 1,4 °C 5,4 °C 22,5 km/h (4 Bft)
14.03.2022 13:22 23,5 °C 11,3 °C 37 % 52 % 1025,4 hPa 0,0 l/m² 16,7 km/h (3 Bft) SW 234 ° 2 min 260 W/m² 1,8 °C 6,1 °C 22,5 km/h (4 Bft)
14.03.2022 13:23 23,5 °C 11,3 °C 37 % 52 % 1025,4 hPa 0,0 l/m² 13,9 km/h (3 Bft) SW 221 ° 1 min 260 W/m² 1,8 °C 7,2 °C 20,9 km/h (4 Bft)
14.03.2022 13:24 23,6 °C 11,4 °C 37 % 52 % 1025,5 hPa 0,0 l/m² 11,0 km/h (2 Bft) W-SW 241 ° 1 min 258 W/m² 1,9 °C 8,6 °C 14,5 km/h (3 Bft)
14.03.2022 13:26 23,5 °C 11,4 °C 37 % 53 % 1025,4 hPa 0,0 l/m² 11,5 km/h (2 Bft) SW 225 ° 2 min 251 W/m² 2,2 °C 8,4 °C 19,3 km/h (3 Bft)
14.03.2022 13:28 23,5 °C 11,5 °C 37 % 54 % 1025,4 hPa 0,0 l/m² 12,5 km/h (2 Bft) S-SW 209 ° 2 min 232 W/m² 2,5 °C 8,0 °C 16,1 km/h (3 Bft)
14.03.2022 13:30 23,5 °C 11,4 °C 37 % 54 % 1025,5 hPa 0,0 l/m² 21,6 km/h (4 Bft) S-SW 211 ° 2 min 218 W/m² 2,4 °C 4,6 °C 29,0 km/h (5 Bft)
14.03.2022 13:32 23,4 °C 11,3 °C 37 % 56 % 1025,6 hPa 0,0 l/m² 19,6 km/h (3 Bft) S-SW 213 ° 2 min 206 W/m² 2,8 °C 5,1 °C 27,4 km/h (5 Bft)
14.03.2022 13:33 23,4 °C 11,2 °C 37 % 56 % 1025,6 hPa 0,0 l/m² 20,3 km/h (4 Bft) S-SW 204 ° 1 min 195 W/m² 2,8 °C 4,7 °C 24,1 km/h (4 Bft)
14.03.2022 13:34 23,5 °C 11,2 °C 37 % 57 % 1025,4 hPa 0,0 l/m² 19,2 km/h (3 Bft) S-SW 212 ° 1 min 188 W/m² 3,0 °C 5,1 °C 24,1 km/h (4 Bft)
14.03.2022 13:36 23,5 °C 11,0 °C 37 % 57 % 1025,6 hPa 0,0 l/m² 22,9 km/h (4 Bft) S-SW 205 ° 2 min 176 W/m² 2,8 °C 3,7 °C 29,0 km/h (5 Bft)
14.03.2022 13:38 23,4 °C 10,9 °C 37 % 59 % 1025,6 hPa 0,0 l/m² 20,3 km/h (4 Bft) SW 227 ° 2 min 162 W/m² 3,2 °C 4,4 °C 29,0 km/h (5 Bft)
14.03.2022 13:40 23,4 °C 10,8 °C 37 % 61 % 1025,7 hPa 0,0 l/m² 19,0 km/h (3 Bft) S-SW 201 ° 2 min 148 W/m² 3,6 °C 4,6 °C 27,4 km/h (5 Bft)
14.03.2022 13:42 23,5 °C 10,6 °C 37 % 63 % 1025,7 hPa 0,0 l/m² 18,8 km/h (3 Bft) SW 223 ° 2 min 146 W/m² 3,9 °C 4,5 °C 24,1 km/h (4 Bft)
14.03.2022 13:43 23,5 °C 10,6 °C 37 % 63 % 1025,7 hPa 0,0 l/m² 21,3 km/h (4 Bft) SW 219 ° 1 min 146 W/m² 3,9 °C 3,7 °C 24,1 km/h (4 Bft)
14.03.2022 13:44 23,4 °C 10,4 °C 37 % 64 % 1025,7 hPa 0,0 l/m² 17,1 km/h (3 Bft) S-SW 207 ° 1 min 148 W/m² 3,9 °C 4,8 °C 20,9 km/h (4 Bft)
14.03.2022 13:46 23,4 °C 10,4 °C 37 % 64 % 1025,7 hPa 0,0 l/m² 19,3 km/h (3 Bft) SW 233 ° 2 min 160 W/m² 3,9 °C 4,0 °C 25,7 km/h (4 Bft)
14.03.2022 13:48 23,4 °C 10,3 °C 37 % 65 % 1025,8 hPa 0,0 l/m² 16,2 km/h (3 Bft) SW 223 ° 2 min 167 W/m² 4,0 °C 5,0 °C 24,1 km/h (4 Bft)
14.03.2022 13:50 23,4 °C 10,3 °C 37 % 66 % 1025,8 hPa 0,0 l/m² 17,1 km/h (3 Bft) S-SW 207 ° 2 min 169 W/m² 4,2 °C 4,7 °C 30,6 km/h (5 Bft)
14.03.2022 13:52 23,4 °C 10,2 °C 37 % 66 % 1025,9 hPa 0,0 l/m² 22,2 km/h (4 Bft) S-SW 210 ° 2 min 155 W/m² 4,1 °C 2,9 °C 32,2 km/h (5 Bft)
14.03.2022 13:53 23,4 °C 10,1 °C 37 % 67 % 1025,9 hPa 0,0 l/m² 24,0 km/h (4 Bft) SW 218 ° 1 min 148 W/m² 4,3 °C 2,2 °C 32,2 km/h (5 Bft)
14.03.2022 13:54 23,4 °C 10,1 °C 37 % 67 % 1025,9 hPa 0,0 l/m² 22,6 km/h (4 Bft) SW 221 ° 1 min 141 W/m² 4,3 °C 2,6 °C 25,7 km/h (4 Bft)
14.03.2022 13:56 23,4 °C 10,1 °C 37 % 68 % 1025,9 hPa 0,0 l/m² 19,6 km/h (3 Bft) SW 223 ° 2 min 132 W/m² 4,5 °C 3,5 °C 25,7 km/h (4 Bft)
14.03.2022 13:58 23,4 °C 9,9 °C 37 % 69 % 1025,9 hPa 0,0 l/m² 17,8 km/h (3 Bft) SW 219 ° 2 min 121 W/m² 4,5 °C 3,9 °C 27,4 km/h (5 Bft)
14.03.2022 14:00 23,4 °C 9,9 °C 37 % 69 % 1026,0 hPa 0,0 l/m² 23,2 km/h (4 Bft) S-SW 211 ° 2 min 114 W/m² 4,5 °C 2,2 °C 32,2 km/h (5 Bft)
14.03.2022 14:02 23,4 °C 9,7 °C 37 % 70 % 1026,0 hPa 0,0 l/m² 24,2 km/h (4 Bft) SW 223 ° 2 min 105 W/m² 4,5 °C 1,6 °C 33,8 km/h (5 Bft)
14.03.2022 14:03 23,4 °C 9,7 °C 37 % 70 % 1026,0 hPa 0,0 l/m² 25,4 km/h (4 Bft) S-SW 205 ° 1 min 104 W/m² 4,5 °C 1,3 °C 32,2 km/h (5 Bft)
14.03.2022 14:04 23,4 °C 9,6 °C 37 % 71 % 1026,0 hPa 0,0 l/m² 25,8 km/h (4 Bft) SW 225 ° 1 min 100 W/m² 4,6 °C 1,1 °C 32,2 km/h (5 Bft)
14.03.2022 14:06 23,4 °C 9,5 °C 37 % 71 % 1026,1 hPa 0,0 l/m² 25,9 km/h (4 Bft) SW 215 ° 2 min 95 W/m² 4,5 °C 0,9 °C 35,4 km/h (5 Bft)
14.03.2022 14:08 23,4 °C 9,4 °C 37 % 73 % 1026,2 hPa 0,0 l/m² 21,5 km/h (4 Bft) SW 227 ° 2 min 91 W/m² 4,8 °C 2,0 °C 30,6 km/h (5 Bft)
14.03.2022 14:10 23,4 °C 9,3 °C 37 % 73 % 1026,1 hPa 0,0 l/m² 18,5 km/h (3 Bft) S-SW 212 ° 2 min 90 W/m² 4,7 °C 2,9 °C 24,1 km/h (4 Bft)
14.03.2022 14:12 23,3 °C 9,2 °C 37 % 74 % 1026,1 hPa 0,0 l/m² 21,4 km/h (4 Bft) S-SW 211 ° 2 min 91 W/m² 4,8 °C 1,8 °C 29,0 km/h (5 Bft)
14.03.2022 14:13 23,3 °C 9,2 °C 37 % 74 % 1026,1 hPa 0,0 l/m² 18,6 km/h (3 Bft) SW 231 ° 1 min 91 W/m² 4,8 °C 2,7 °C 24,1 km/h (4 Bft)
14.03.2022 14:14 23,4 °C 9,1 °C 37 % 75 % 1026,2 hPa 0,0 l/m² 18,5 km/h (3 Bft) SW 218 ° 1 min 91 W/m² 4,9 °C 2,7 °C 27,4 km/h (5 Bft)
14.03.2022 14:16 23,4 °C 9,0 °C 37 % 75 % 1026,1 hPa 0,0 l/m² 21,6 km/h (4 Bft) SW 228 ° 2 min 91 W/m² 4,8 °C 1,5 °C 30,6 km/h (5 Bft)
14.03.2022 14:18 23,3 °C 8,9 °C 37 % 76 % 1026,2 hPa 0,0 l/m² 20,1 km/h (4 Bft) S-SW 205 ° 2 min 95 W/m² 4,9 °C 1,8 °C 27,4 km/h (5 Bft)
14.03.2022 14:20 23,3 °C 8,8 °C 37 % 77 % 1026,2 hPa 0,0 l/m² 23,9 km/h (4 Bft) SW 217 ° 2 min 100 W/m² 5,0 °C 0,5 °C 29,0 km/h (5 Bft)
14.03.2022 14:22 23,3 °C 8,7 °C 37 % 77 % 1026,3 hPa 0,0 l/m² 20,9 km/h (4 Bft) S-SW 207 ° 2 min 98 W/m² 4,9 °C 1,3 °C 29,0 km/h (5 Bft)
14.03.2022 14:23 23,3 °C 8,7 °C 37 % 78 % 1026,3 hPa 0,0 l/m² 25,5 km/h (4 Bft) SW 216 ° 1 min 97 W/m² 5,1 °C -0,1 °C 30,6 km/h (5 Bft)
14.03.2022 14:24 23,3 °C 8,6 °C 37 % 78 % 1026,1 hPa 0,0 l/m² 21,3 km/h (4 Bft) S-SW 203 ° 1 min 95 W/m² 5,0 °C 1,0 °C 27,4 km/h (5 Bft)
14.03.2022 14:26 23,3 °C 8,5 °C 37 % 79 % 1026,2 hPa 0,0 l/m² 21,1 km/h (4 Bft) S-SW 207 ° 2 min 95 W/m² 5,1 °C 1,0 °C 30,6 km/h (5 Bft)
14.03.2022 14:28 23,3 °C 8,4 °C 37 % 79 % 1026,2 hPa 0,0 l/m² 24,1 km/h (4 Bft) SW 225 ° 2 min 93 W/m² 5,0 °C -0,1 °C 29,0 km/h (5 Bft)
14.03.2022 14:30 23,3 °C 8,3 °C 37 % 80 % 1026,3 hPa 0,0 l/m² 23,0 km/h (4 Bft) SW 219 ° 2 min 86 W/m² 5,1 °C 0,1 °C 30,6 km/h (5 Bft)
14.03.2022 14:32 23,3 °C 8,3 °C 37 % 80 % 1026,3 hPa 0,0 l/m² 22,1 km/h (4 Bft) SW 225 ° 2 min 77 W/m² 5,1 °C 0,4 °C 29,0 km/h (5 Bft)
14.03.2022 14:33 23,3 °C 8,2 °C 37 % 80 % 1026,3 hPa 0,0 l/m² 21,0 km/h (4 Bft) S-SW 209 ° 1 min 76 W/m² 5,0 °C 0,6 °C 27,4 km/h (5 Bft)
14.03.2022 14:34 23,3 °C 8,2 °C 37 % 80 % 1026,3 hPa 0,0 l/m² 15,5 km/h (3 Bft) S-SW 207 ° 1 min 74 W/m² 5,0 °C 2,7 °C 27,4 km/h (5 Bft)
14.03.2022 14:36 23,3 °C 8,1 °C 37 % 81 % 1026,4 hPa 0,0 l/m² 20,3 km/h (4 Bft) SW 217 ° 2 min 69 W/m² 5,0 °C 0,7 °C 27,4 km/h (5 Bft)
14.03.2022 14:38 23,3 °C 8,1 °C 37 % 81 % 1026,3 hPa 0,0 l/m² 21,3 km/h (4 Bft) S-SW 211 ° 2 min 63 W/m² 5,0 °C 0,4 °C 27,4 km/h (5 Bft)
14.03.2022 14:40 23,3 °C 8,1 °C 37 % 81 % 1026,4 hPa 0,2 l/m² 18,8 km/h (3 Bft) SW 215 ° 2 min 62 W/m² 5,0 °C 1,3 °C 24,1 km/h (4 Bft)
14.03.2022 14:42 23,3 °C 7,9 °C 37 % 82 % 1026,5 hPa 0,0 l/m² 17,2 km/h (3 Bft) S-SW 193 ° 2 min 63 W/m² 5,0 °C 1,6 °C 22,5 km/h (4 Bft)
14.03.2022 14:43 23,3 °C 7,9 °C 37 % 82 % 1026,5 hPa 0,0 l/m² 14,6 km/h (3 Bft) SW 215 ° 1 min 65 W/m² 5,0 °C 2,8 °C 19,3 km/h (3 Bft)
14.03.2022 14:44 23,3 °C 7,9 °C 37 % 82 % 1026,5 hPa 0,0 l/m² 16,2 km/h (3 Bft) SW 218 ° 1 min 67 W/m² 5,0 °C 2,1 °C 20,9 km/h (4 Bft)
14.03.2022 14:46 23,3 °C 7,8 °C 37 % 83 % 1026,5 hPa 0,0 l/m² 17,2 km/h (3 Bft) SW 219 ° 2 min 67 W/m² 5,1 °C 1,5 °C 24,1 km/h (4 Bft)
14.03.2022 14:48 23,3 °C 7,8 °C 37 % 83 % 1026,6 hPa 0,0 l/m² 15,9 km/h (3 Bft) SW 222 ° 2 min 67 W/m² 5,1 °C 2,1 °C 22,5 km/h (4 Bft)
14.03.2022 14:50 23,3 °C 7,8 °C 37 % 83 % 1026,5 hPa 0,0 l/m² 13,2 km/h (3 Bft) SW 215 ° 2 min 63 W/m² 5,1 °C 3,3 °C 20,9 km/h (4 Bft)
14.03.2022 14:52 23,3 °C 7,7 °C 37 % 84 % 1026,6 hPa 0,0 l/m² 13,2 km/h (3 Bft) S-SW 211 ° 2 min 62 W/m² 5,2 °C 3,2 °C 19,3 km/h (3 Bft)
14.03.2022 14:53 23,3 °C 7,7 °C 37 % 84 % 1026,6 hPa 0,2 l/m² 13,9 km/h (3 Bft) S-SW 201 ° 1 min 62 W/m² 5,2 °C 2,9 °C 17,7 km/h (3 Bft)
14.03.2022 14:54 23,3 °C 7,7 °C 37 % 84 % 1026,6 hPa 0,0 l/m² 16,4 km/h (3 Bft) S-SW 207 ° 1 min 62 W/m² 5,2 °C 1,7 °C 22,5 km/h (4 Bft)
14.03.2022 14:56 23,3 °C 7,7 °C 37 % 84 % 1026,6 hPa 0,0 l/m² 15,2 km/h (3 Bft) S-SW 213 ° 2 min 63 W/m² 5,2 °C 2,3 °C 20,9 km/h (4 Bft)
14.03.2022 14:58 23,3 °C 7,6 °C 37 % 84 % 1026,7 hPa 0,0 l/m² 11,7 km/h (2 Bft) SW 223 ° 2 min 62 W/m² 5,1 °C 3,9 °C 16,1 km/h (3 Bft)
14.03.2022 15:00 23,3 °C 7,6 °C 37 % 85 % 1026,7 hPa 0,0 l/m² 16,3 km/h (3 Bft) SW 219 ° 2 min 62 W/m² 5,2 °C 1,6 °C 25,7 km/h (4 Bft)
14.03.2022 15:02 23,3 °C 7,6 °C 37 % 85 % 1026,8 hPa 0,0 l/m² 13,0 km/h (3 Bft) S-SW 213 ° 2 min 60 W/m² 5,2 °C 3,2 °C 19,3 km/h (3 Bft)
14.03.2022 15:03 23,3 °C 7,6 °C 37 % 85 % 1026,8 hPa 0,0 l/m² 11,8 km/h (2 Bft) SW 227 ° 1 min 60 W/m² 5,2 °C 3,9 °C 16,1 km/h (3 Bft)
14.03.2022 15:04 23,3 °C 7,5 °C 37 % 85 % 1026,8 hPa 0,0 l/m² 14,7 km/h (3 Bft) SW 220 ° 1 min 58 W/m² 5,1 °C 2,2 °C 19,3 km/h (3 Bft)
14.03.2022 15:06 23,3 °C 7,4 °C 37 % 85 % 1026,8 hPa 0,2 l/m² 13,3 km/h (3 Bft) SW 231 ° 2 min 60 W/m² 5,0 °C 2,8 °C 19,3 km/h (3 Bft)
14.03.2022 15:08 23,3 °C 7,5 °C 37 % 85 % 1026,8 hPa 0,0 l/m² 14,0 km/h (3 Bft) SW 219 ° 2 min 60 W/m² 5,1 °C 2,6 °C 17,7 km/h (3 Bft)
14.03.2022 15:10 23,3 °C 7,4 °C 37 % 85 % 1026,9 hPa 0,0 l/m² 14,3 km/h (3 Bft) SW 215 ° 2 min 62 W/m² 5,0 °C 2,3 °C 20,9 km/h (4 Bft)
14.03.2022 15:12 23,3 °C 7,4 °C 37 % 85 % 1026,8 hPa 0,0 l/m² 16,2 km/h (3 Bft) SW 222 ° 2 min 63 W/m² 5,0 °C 1,4 °C 22,5 km/h (4 Bft)
14.03.2022 15:13 23,3 °C 7,4 °C 37 % 85 % 1026,8 hPa 0,0 l/m² 11,7 km/h (2 Bft) SW 223 ° 1 min 63 W/m² 5,0 °C 3,7 °C 14,5 km/h (3 Bft)
14.03.2022 15:14 23,3 °C 7,4 °C 37 % 86 % 1026,8 hPa 0,0 l/m² 6,8 km/h (2 Bft) SW 230 ° 1 min 63 W/m² 5,2 °C 7,1 °C 11,3 km/h (2 Bft)
14.03.2022 15:16 23,3 °C 7,4 °C 37 % 86 % 1026,9 hPa 0,0 l/m² 10,9 km/h (2 Bft) SW 221 ° 2 min 62 W/m² 5,2 °C 4,2 °C 14,5 km/h (3 Bft)
14.03.2022 15:18 23,3 °C 7,4 °C 37 % 86 % 1027,0 hPa 0,0 l/m² 9,8 km/h (2 Bft) SW 221 ° 2 min 56 W/m² 5,2 °C 4,9 °C 14,5 km/h (3 Bft)
14.03.2022 15:20 23,3 °C 7,4 °C 37 % 86 % 1027,0 hPa 0,2 l/m² 10,2 km/h (2 Bft) SW 226 ° 0 min 51 W/m² 5,2 °C 4,6 °C 17,7 km/h (3 Bft)
14.03.2022 15:22 23,3 °C 7,4 °C 37 % 86 % 1027,0 hPa 0,0 l/m² 13,9 km/h (3 Bft) SW 218 ° 0 min 46 W/m² 5,2 °C 2,5 °C 19,3 km/h (3 Bft)
14.03.2022 15:23 23,3 °C 7,3 °C 37 % 86 % 1027,0 hPa 0,0 l/m² 10,5 km/h (2 Bft) SW 217 ° 0 min 46 W/m² 5,1 °C 4,3 °C 12,9 km/h (3 Bft)
14.03.2022 15:24 23,3 °C 7,4 °C 37 % 86 % 1027,1 hPa 0,0 l/m² 14,2 km/h (3 Bft) SW 216 ° 0 min 44 W/m² 5,2 °C 2,4 °C 19,3 km/h (3 Bft)
14.03.2022 15:26 23,3 °C 7,3 °C 37 % 86 % 1027,0 hPa 0,0 l/m² 11,7 km/h (2 Bft) SW 223 ° 0 min 44 W/m² 5,1 °C 3,6 °C 17,7 km/h (3 Bft)
14.03.2022 15:28 23,3 °C 7,3 °C 36 % 86 % 1027,0 hPa 0,0 l/m² 10,1 km/h (2 Bft) SW 222 ° 0 min 44 W/m² 5,1 °C 4,5 °C 16,1 km/h (3 Bft)
14.03.2022 15:30 23,2 °C 7,3 °C 36 % 86 % 1027,1 hPa 0,0 l/m² 10,2 km/h (2 Bft) S-SW 209 ° 0 min 42 W/m² 5,1 °C 4,5 °C 14,5 km/h (3 Bft)
14.03.2022 15:32 23,2 °C 7,3 °C 36 % 87 % 1027,1 hPa 0,2 l/m² 12,1 km/h (2 Bft) S-SW 199 ° 0 min 40 W/m² 5,3 °C 3,3 °C 14,5 km/h (3 Bft)
14.03.2022 15:33 23,2 °C 7,3 °C 36 % 87 % 1027,1 hPa 0,0 l/m² 11,4 km/h (2 Bft) SW 235 ° 0 min 39 W/m² 5,3 °C 3,8 °C 12,9 km/h (3 Bft)
14.03.2022 15:34 23,2 °C 7,3 °C 36 % 87 % 1027,1 hPa 0,0 l/m² 8,3 km/h (2 Bft) SW 225 ° 0 min 37 W/m² 5,3 °C 5,8 °C 11,3 km/h (2 Bft)
14.03.2022 15:36 23,1 °C 7,3 °C 36 % 87 % 1027,0 hPa 0,0 l/m² 9,8 km/h (2 Bft) S-SW 210 ° 0 min 35 W/m² 5,3 °C 4,7 °C 12,9 km/h (3 Bft)
14.03.2022 15:38 23,1 °C 7,2 °C 36 % 87 % 1027,1 hPa 0,0 l/m² 9,1 km/h (2 Bft) SW 218 ° 0 min 35 W/m² 5,2 °C 5,1 °C 14,5 km/h (3 Bft)
14.03.2022 15:40 23,1 °C 7,2 °C 36 % 87 % 1027,1 hPa 0,2 l/m² 8,9 km/h (2 Bft) S-SW 213 ° 0 min 37 W/m² 5,2 °C 5,2 °C 12,9 km/h (3 Bft)
14.03.2022 15:42 23,1 °C 7,2 °C 37 % 87 % 1027,0 hPa 0,0 l/m² 7,4 km/h (2 Bft) SW 217 ° 0 min 40 W/m² 5,2 °C 6,4 °C 12,9 km/h (3 Bft)
14.03.2022 15:43 23,1 °C 7,2 °C 37 % 87 % 1027,0 hPa 0,0 l/m² 8,4 km/h (2 Bft) S-SW 204 ° 0 min 42 W/m² 5,2 °C 5,6 °C 9,7 km/h (2 Bft)
14.03.2022 15:45 23,1 °C 7,2 °C 37 % 87 % 1027,1 hPa 0,2 l/m² 5,0 km/h (1 Bft) S-SW 202 ° 0 min 44 W/m² 5,2 °C 7,2 °C 8,0 km/h (2 Bft)
14.03.2022 15:47 23,1 °C 7,2 °C 37 % 88 % 1027,1 hPa 0,0 l/m² 5,0 km/h (1 Bft) S-SW 199 ° 0 min 47 W/m² 5,3 °C 7,2 °C 8,0 km/h (2 Bft)
14.03.2022 15:49 23,1 °C 7,2 °C 37 % 88 % 1027,1 hPa 0,0 l/m² 6,8 km/h (2 Bft) S-SW 204 ° 2 min 53 W/m² 5,3 °C 6,9 °C 11,3 km/h (2 Bft)
14.03.2022 15:51 23,1 °C 7,2 °C 37 % 88 % 1027,1 hPa 0,2 l/m² 9,9 km/h (2 Bft) S-SW 198 ° 2 min 56 W/m² 5,3 °C 4,6 °C 12,9 km/h (3 Bft)
14.03.2022 15:52 23,1 °C 7,2 °C 37 % 88 % 1027,1 hPa 0,0 l/m² 7,9 km/h (2 Bft) S-SW 200 ° 1 min 58 W/m² 5,3 °C 6,0 °C 11,3 km/h (2 Bft)
14.03.2022 15:53 23,1 °C 7,2 °C 37 % 88 % 1027,2 hPa 0,0 l/m² 9,3 km/h (2 Bft) S-SW 200 ° 1 min 58 W/m² 5,3 °C 5,0 °C 11,3 km/h (2 Bft)
14.03.2022 15:55 23,2 °C 7,2 °C 37 % 88 % 1027,2 hPa 0,0 l/m² 6,9 km/h (2 Bft) SW 215 ° 2 min 58 W/m² 5,3 °C 6,8 °C 9,7 km/h (2 Bft)
14.03.2022 15:57 23,2 °C 7,2 °C 37 % 88 % 1027,1 hPa 0,0 l/m² 8,7 km/h (2 Bft) S-SW 200 ° 2 min 56 W/m² 5,3 °C 5,4 °C 12,9 km/h (3 Bft)
14.03.2022 15:59 23,2 °C 7,1 °C 37 % 88 % 1027,2 hPa 0,2 l/m² 8,5 km/h (2 Bft) S-SW 207 ° 2 min 56 W/m² 5,2 °C 5,4 °C 11,3 km/h (2 Bft)
14.03.2022 16:01 23,2 °C 7,2 °C 37 % 88 % 1027,1 hPa 0,0 l/m² 6,8 km/h (2 Bft) S-SW 200 ° 2 min 56 W/m² 5,3 °C 6,9 °C 11,3 km/h (2 Bft)
14.03.2022 16:02 23,2 °C 7,1 °C 37 % 88 % 1027,1 hPa 0,0 l/m² 5,0 km/h (1 Bft) S-SW 202 ° 1 min 56 W/m² 5,2 °C 7,1 °C 8,0 km/h (2 Bft)
14.03.2022 16:03 23,2 °C 7,2 °C 37 % 88 % 1027,2 hPa 0,0 l/m² 8,5 km/h (2 Bft) S-SW 204 ° 1 min 56 W/m² 5,3 °C 5,5 °C 9,7 km/h (2 Bft)
14.03.2022 16:05 23,2 °C 7,2 °C 37 % 88 % 1027,1 hPa 0,2 l/m² 9,5 km/h (2 Bft) S-SW 201 ° 2 min 53 W/m² 5,3 °C 4,8 °C 12,9 km/h (3 Bft)
14.03.2022 16:07 23,2 °C 7,1 °C 37 % 89 % 1027,2 hPa 0,0 l/m² 6,9 km/h (2 Bft) SW 218 ° 0 min 49 W/m² 5,4 °C 6,7 °C 9,7 km/h (2 Bft)
14.03.2022 16:09 23,2 °C 7,1 °C 37 % 89 % 1027,2 hPa 0,0 l/m² 9,4 km/h (2 Bft) SW 226 ° 0 min 44 W/m² 5,4 °C 4,8 °C 14,5 km/h (3 Bft)
14.03.2022 16:11 23,3 °C 7,1 °C 38 % 89 % 1027,3 hPa 0,2 l/m² 11,9 km/h (2 Bft) S-SW 199 ° 0 min 35 W/m² 5,4 °C 3,2 °C 16,1 km/h (3 Bft)
14.03.2022 16:12 23,3 °C 7,1 °C 38 % 89 % 1027,3 hPa 0,0 l/m² 11,9 km/h (2 Bft) S-SW 203 ° 0 min 33 W/m² 5,4 °C 3,2 °C 14,5 km/h (3 Bft)
14.03.2022 16:13 23,3 °C 7,1 °C 38 % 89 % 1027,3 hPa 0,0 l/m² 11,0 km/h (2 Bft) S-SW 209 ° 0 min 32 W/m² 5,4 °C 3,8 °C 12,9 km/h (3 Bft)
14.03.2022 16:15 23,3 °C 7,1 °C 38 % 89 % 1027,2 hPa 0,0 l/m² 9,0 km/h (2 Bft) S-SW 204 ° 0 min 30 W/m² 5,4 °C 5,1 °C 11,3 km/h (2 Bft)
14.03.2022 16:17 23,3 °C 7,1 °C 38 % 89 % 1027,3 hPa 0,0 l/m² 8,6 km/h (2 Bft) S-SW 204 ° 0 min 28 W/m² 5,4 °C 5,4 °C 12,9 km/h (3 Bft)
14.03.2022 16:19 23,3 °C 7,1 °C 38 % 89 % 1027,3 hPa 0,0 l/m² 10,3 km/h (2 Bft) S-SW 209 ° 0 min 26 W/m² 5,4 °C 4,2 °C 12,9 km/h (3 Bft)
14.03.2022 16:21 23,3 °C 7,1 °C 38 % 89 % 1027,4 hPa 0,2 l/m² 9,8 km/h (2 Bft) SW 215 ° 0 min 26 W/m² 5,4 °C 4,5 °C 14,5 km/h (3 Bft)
14.03.2022 16:22 23,3 °C 7,1 °C 38 % 89 % 1027,4 hPa 0,0 l/m² 7,2 km/h (2 Bft) SW 218 ° 0 min 26 W/m² 5,4 °C 6,4 °C 8,0 km/h (2 Bft)
14.03.2022 16:23 23,3 °C 7,1 °C 38 % 89 % 1027,4 hPa 0,0 l/m² 5,0 km/h (1 Bft) S-SW 201 ° 0 min 25 W/m² 5,4 °C 7,1 °C 8,0 km/h (2 Bft)
14.03.2022 16:25 23,3 °C 7,0 °C 38 % 89 % 1027,4 hPa 0,0 l/m² 5,2 km/h (1 Bft) S-SW 207 ° 0 min 25 W/m² 5,3 °C 7,0 °C 9,7 km/h (2 Bft)
14.03.2022 16:27 23,3 °C 7,0 °C 38 % 89 % 1027,4 hPa 0,0 l/m² 8,7 km/h (2 Bft) SW 221 ° 0 min 23 W/m² 5,3 °C 5,2 °C 12,9 km/h (3 Bft)
14.03.2022 16:29 23,3 °C 7,0 °C 38 % 89 % 1027,4 hPa 0,0 l/m² 6,7 km/h (2 Bft) SW 215 ° 0 min 21 W/m² 5,3 °C 6,8 °C 8,0 km/h (2 Bft)
14.03.2022 16:31 23,3 °C 7,0 °C 38 % 89 % 1027,4 hPa 0,2 l/m² 6,3 km/h (2 Bft) S-SW 209 ° 0 min 18 W/m² 5,3 °C 7,0 °C 8,0 km/h (2 Bft)
14.03.2022 16:32 23,3 °C 7,0 °C 38 % 89 % 1027,4 hPa 0,0 l/m² 5,1 km/h (1 Bft) S-SW 211 ° 0 min 18 W/m² 5,3 °C 7,0 °C 6,4 km/h (2 Bft)
14.03.2022 16:33 23,3 °C 6,9 °C 38 % 89 % 1027,5 hPa 0,0 l/m² 5,4 km/h (2 Bft) SW 220 ° 0 min 16 W/m² 5,2 °C 6,9 °C 8,0 km/h (2 Bft)
14.03.2022 16:35 23,4 °C 6,9 °C 38 % 89 % 1027,4 hPa 0,2 l/m² 5,5 km/h (2 Bft) S-SW 209 ° 0 min 16 W/m² 5,2 °C 6,9 °C 8,0 km/h (2 Bft)
14.03.2022 16:37 23,3 °C 6,9 °C 38 % 89 % 1027,5 hPa 0,0 l/m² 3,9 km/h (1 Bft) S-SW 205 ° 0 min 16 W/m² 5,2 °C 6,9 °C 6,4 km/h (2 Bft)
14.03.2022 16:39 23,3 °C 6,9 °C 38 % 89 % 1027,5 hPa 0,0 l/m² 3,5 km/h (1 Bft) S-SW 211 ° 0 min 16 W/m² 5,2 °C 6,9 °C 6,4 km/h (2 Bft)
14.03.2022 16:41 23,3 °C 6,9 °C 38 % 90 % 1027,5 hPa 0,2 l/m² 2,9 km/h (1 Bft) S-SW 209 ° 0 min 16 W/m² 5,4 °C 6,9 °C 6,4 km/h (2 Bft)
14.03.2022 16:42 23,3 °C 6,9 °C 38 % 90 % 1027,5 hPa 0,0 l/m² 3,1 km/h (1 Bft) S-SW 209 ° 0 min 16 W/m² 5,4 °C 6,9 °C 4,8 km/h (1 Bft)
14.03.2022 16:43 23,3 °C 6,9 °C 38 % 90 % 1027,6 hPa 0,0 l/m² 3,0 km/h (1 Bft) S-SW 209 ° 0 min 16 W/m² 5,4 °C 6,9 °C 4,8 km/h (1 Bft)
14.03.2022 16:45 23,3 °C 6,9 °C 38 % 90 % 1027,5 hPa 0,0 l/m² 1,7 km/h (1 Bft) S-SW 209 ° 0 min 16 W/m² 5,4 °C 6,9 °C 4,8 km/h (1 Bft)
14.03.2022 16:47 23,3 °C 6,9 °C 38 % 90 % 1027,6 hPa 0,2 l/m² 1,3 km/h (1 Bft) S-SW 209 ° 0 min 16 W/m² 5,4 °C 6,9 °C 3,2 km/h (1 Bft)
14.03.2022 16:49 23,3 °C 6,9 °C 38 % 90 % 1027,5 hPa 0,0 l/m² 2,0 km/h (1 Bft) S-SW 209 ° 0 min 16 W/m² 5,4 °C 6,9 °C 4,8 km/h (1 Bft)
14.03.2022 16:50 23,3 °C 6,9 °C 38 % 90 % 1027,6 hPa 0,0 l/m² 1,0 km/h (0 Bft) S-SW 209 ° 0 min 16 W/m² 5,4 °C 6,9 °C 1,6 km/h (1 Bft)
14.03.2022 16:52 23,3 °C 6,9 °C 38 % 90 % 1027,6 hPa 0,0 l/m² 3,5 km/h (1 Bft) S-SW 211 ° 0 min 16 W/m² 5,4 °C 6,9 °C 6,4 km/h (2 Bft)
14.03.2022 16:54 23,3 °C 6,8 °C 38 % 90 % 1027,7 hPa 0,0 l/m² 1,9 km/h (1 Bft) S-SW 211 ° 0 min 16 W/m² 5,3 °C 6,8 °C 4,8 km/h (1 Bft)
14.03.2022 16:56 23,3 °C 6,8 °C 38 % 90 % 1027,6 hPa 0,2 l/m² 0,0 km/h (0 Bft) S-SW 211 ° 0 min 14 W/m² 5,3 °C 6,8 °C 0,0 km/h (0 Bft)
14.03.2022 16:58 23,3 °C 6,9 °C 38 % 90 % 1027,6 hPa 0,0 l/m² 1,4 km/h (1 Bft) S-SW 211 ° 0 min 14 W/m² 5,4 °C 6,9 °C 4,8 km/h (1 Bft)
14.03.2022 17:00 23,3 °C 6,8 °C 38 % 90 % 1027,7 hPa 0,0 l/m² 3,2 km/h (1 Bft) S-SW 211 ° 0 min 14 W/m² 5,3 °C 6,8 °C 4,8 km/h (1 Bft)
14.03.2022 17:01 23,3 °C 6,8 °C 38 % 90 % 1027,7 hPa 0,0 l/m² 3,3 km/h (1 Bft) S-SW 211 ° 0 min 14 W/m² 5,3 °C 6,8 °C 6,4 km/h (2 Bft)
14.03.2022 17:02 23,3 °C 6,8 °C 38 % 90 % 1027,7 hPa 0,0 l/m² 2,1 km/h (1 Bft) S-SW 211 ° 0 min 14 W/m² 5,3 °C 6,8 °C 4,8 km/h (1 Bft)
14.03.2022 17:03 23,3 °C 6,8 °C 38 % 90 % 1027,7 hPa 0,0 l/m² 2,4 km/h (1 Bft) S-SW 211 ° 0 min 14 W/m² 5,3 °C 6,8 °C 4,8 km/h (1 Bft)
14.03.2022 17:04 23,3 °C 6,8 °C 38 % 90 % 1027,8 hPa 0,0 l/m² 1,3 km/h (1 Bft) S-SW 211 ° 0 min 12 W/m² 5,3 °C 6,8 °C 4,8 km/h (1 Bft)
14.03.2022 17:06 23,3 °C 6,8 °C 38 % 90 % 1027,7 hPa 0,2 l/m² 1,0 km/h (0 Bft) S-SW 211 ° 0 min 12 W/m² 5,3 °C 6,8 °C 3,2 km/h (1 Bft)
14.03.2022 17:08 23,3 °C 6,8 °C 38 % 90 % 1027,9 hPa 0,0 l/m² 0,8 km/h (0 Bft) S-SW 211 ° 0 min 11 W/m² 5,3 °C 6,8 °C 3,2 km/h (1 Bft)
14.03.2022 17:10 23,3 °C 6,8 °C 38 % 90 % 1027,8 hPa 0,0 l/m² 0,2 km/h (0 Bft) S-SW 211 ° 0 min 11 W/m² 5,3 °C 6,8 °C 1,6 km/h (1 Bft)
14.03.2022 17:11 23,3 °C 6,8 °C 38 % 91 % 1027,8 hPa 0,0 l/m² 0,0 km/h (0 Bft) S-SW 211 ° 0 min 11 W/m² 5,4 °C 6,8 °C 0,0 km/h (0 Bft)
14.03.2022 17:12 23,3 °C 6,8 °C 38 % 91 % 1027,8 hPa 0,0 l/m² 0,0 km/h (0 Bft) S-SW 211 ° 0 min 11 W/m² 5,4 °C 6,8 °C 0,0 km/h (0 Bft)
14.03.2022 17:13 23,3 °C 6,8 °C 38 % 91 % 1027,8 hPa 0,0 l/m² 0,0 km/h (0 Bft) S-SW 211 ° 0 min 11 W/m² 5,4 °C 6,8 °C 0,0 km/h (0 Bft)
14.03.2022 17:14 23,3 °C 6,8 °C 38 % 91 % 1027,8 hPa 0,2 l/m² 0,0 km/h (0 Bft) S-SW 211 ° 0 min 9 W/m² 5,4 °C 6,8 °C 0,0 km/h (0 Bft)
14.03.2022 17:16 23,3 °C 6,8 °C 38 % 91 % 1027,7 hPa 0,0 l/m² 0,0 km/h (0 Bft) S-SW 211 ° 0 min 9 W/m² 5,4 °C 6,8 °C 0,0 km/h (0 Bft)
14.03.2022 17:18 23,3 °C 6,8 °C 38 % 91 % 1027,9 hPa 0,0 l/m² 0,0 km/h (0 Bft) S-SW 211 ° 0 min 9 W/m² 5,4 °C 6,8 °C 0,0 km/h (0 Bft)
14.03.2022 17:20 23,3 °C 6,8 °C 38 % 91 % 1027,9 hPa 0,0 l/m² 0,0 km/h (0 Bft) S-SW 211 ° 0 min 7 W/m² 5,4 °C 6,8 °C 0,0 km/h (0 Bft)
14.03.2022 17:21 23,3 °C 6,8 °C 38 % 91 % 1027,9 hPa 0,0 l/m² 0,0 km/h (0 Bft) S-SW 211 ° 0 min 7 W/m² 5,4 °C 6,8 °C 0,0 km/h (0 Bft)
14.03.2022 17:22 23,3 °C 6,8 °C 38 % 91 % 1027,9 hPa 0,0 l/m² 0,0 km/h (0 Bft) S-SW 211 ° 0 min 7 W/m² 5,4 °C 6,8 °C 0,0 km/h (0 Bft)
14.03.2022 17:23 23,3 °C 6,8 °C 38 % 91 % 1027,9 hPa 0,0 l/m² 0,0 km/h (0 Bft) S-SW 211 ° 0 min 7 W/m² 5,4 °C 6,8 °C 0,0 km/h (0 Bft)
14.03.2022 17:24 23,3 °C 6,8 °C 38 % 91 % 1027,9 hPa 0,0 l/m² 0,0 km/h (0 Bft) S-SW 211 ° 0 min 7 W/m² 5,4 °C 6,8 °C 0,0 km/h (0 Bft)
14.03.2022 17:26 23,3 °C 6,7 °C 38 % 91 % 1028,0 hPa 0,2 l/m² 0,0 km/h (0 Bft) S-SW 211 ° 0 min 5 W/m² 5,3 °C 6,7 °C 0,0 km/h (0 Bft)
14.03.2022 17:28 23,3 °C 6,8 °C 38 % 91 % 1027,9 hPa 0,0 l/m² 0,3 km/h (0 Bft) S-SW 211 ° 0 min 5 W/m² 5,4 °C 6,8 °C 1,6 km/h (1 Bft)
14.03.2022 17:30 23,3 °C 6,8 °C 38 % 91 % 1027,9 hPa 0,0 l/m² 0,0 km/h (0 Bft) S-SW 211 ° 0 min 7 W/m² 5,4 °C 6,8 °C 1,6 km/h (1 Bft)
14.03.2022 17:31 23,3 °C 6,8 °C 38 % 91 % 1028,0 hPa 0,0 l/m² 0,0 km/h (0 Bft) S-SW 211 ° 0 min 7 W/m² 5,4 °C 6,8 °C 0,0 km/h (0 Bft)
14.03.2022 17:32 23,3 °C 6,7 °C 38 % 91 % 1028,0 hPa 0,0 l/m² 0,0 km/h (0 Bft) S-SW 211 ° 0 min 7 W/m² 5,3 °C 6,7 °C 0,0 km/h (0 Bft)
14.03.2022 17:34 23,3 °C 6,7 °C 38 % 91 % 1028,0 hPa 0,0 l/m² 0,0 km/h (0 Bft) S-SW 211 ° 0 min 7 W/m² 5,3 °C 6,7 °C 0,0 km/h (0 Bft)
14.03.2022 17:35 23,3 °C 6,7 °C 38 % 91 % 1028,1 hPa 0,0 l/m² 0,0 km/h (0 Bft) S-SW 211 ° 0 min 7 W/m² 5,3 °C 6,7 °C 0,0 km/h (0 Bft)
14.03.2022 17:37 23,3 °C 6,7 °C 38 % 91 % 1028,0 hPa 0,0 l/m² 0,3 km/h (0 Bft) S-SW 211 ° 0 min 7 W/m² 5,3 °C 6,7 °C 4,8 km/h (1 Bft)
14.03.2022 17:39 23,3 °C 6,7 °C 38 % 91 % 1028,1 hPa 0,0 l/m² 0,4 km/h (0 Bft) S-SW 211 ° 0 min 7 W/m² 5,3 °C 6,7 °C 3,2 km/h (1 Bft)
14.03.2022 17:40 23,3 °C 6,7 °C 38 % 91 % 1028,1 hPa 0,0 l/m² 0,7 km/h (0 Bft) S-SW 211 ° 0 min 7 W/m² 5,3 °C 6,7 °C 1,6 km/h (1 Bft)
14.03.2022 17:42 23,2 °C 6,7 °C 38 % 91 % 1028,1 hPa 0,2 l/m² 0,1 km/h (0 Bft) S-SW 211 ° 0 min 7 W/m² 5,3 °C 6,7 °C 1,6 km/h (1 Bft)
14.03.2022 17:43 23,2 °C 6,7 °C 38 % 91 % 1028,1 hPa 0,0 l/m² 1,7 km/h (1 Bft) S-SW 211 ° 0 min 7 W/m² 5,3 °C 6,7 °C 4,8 km/h (1 Bft)
14.03.2022 17:44 23,2 °C 6,7 °C 38 % 91 % 1028,1 hPa 0,0 l/m² 1,5 km/h (1 Bft) S-SW 211 ° 0 min 5 W/m² 5,3 °C 6,7 °C 3,2 km/h (1 Bft)
14.03.2022 17:46 23,3 °C 6,7 °C 38 % 91 % 1028,2 hPa 0,0 l/m² 0,6 km/h (0 Bft) S-SW 211 ° 0 min 5 W/m² 5,3 °C 6,7 °C 3,2 km/h (1 Bft)
14.03.2022 17:48 23,2 °C 6,7 °C 38 % 91 % 1028,1 hPa 0,0 l/m² 1,2 km/h (1 Bft) S-SW 211 ° 0 min 5 W/m² 5,3 °C 6,7 °C 3,2 km/h (1 Bft)
14.03.2022 17:50 23,2 °C 6,7 °C 38 % 91 % 1028,2 hPa 0,0 l/m² 0,2 km/h (0 Bft) S-SW 211 ° 0 min 5 W/m² 5,3 °C 6,7 °C 3,2 km/h (1 Bft)
14.03.2022 17:51 23,2 °C 6,7 °C 38 % 91 % 1028,2 hPa 0,0 l/m² 0,8 km/h (0 Bft) S-SW 211 ° 0 min 5 W/m² 5,3 °C 6,7 °C 3,2 km/h (1 Bft)
14.03.2022 17:52 23,2 °C 6,7 °C 38 % 91 % 1028,2 hPa 0,0 l/m² 3,3 km/h (1 Bft) S-SW 211 ° 0 min 5 W/m² 5,3 °C 6,7 °C 6,4 km/h (2 Bft)
14.03.2022 17:53 23,2 °C 6,7 °C 38 % 91 % 1028,2 hPa 0,0 l/m² 0,7 km/h (0 Bft) S-SW 211 ° 0 min 5 W/m² 5,3 °C 6,7 °C 3,2 km/h (1 Bft)
14.03.2022 17:54 23,2 °C 6,7 °C 38 % 91 % 1028,2 hPa 0,0 l/m² 0,9 km/h (0 Bft) S-SW 211 ° 0 min 5 W/m² 5,3 °C 6,7 °C 3,2 km/h (1 Bft)
14.03.2022 17:56 23,2 °C 6,7 °C 38 % 91 % 1028,1 hPa 0,2 l/m² 0,5 km/h (0 Bft) S-SW 211 ° 0 min 5 W/m² 5,3 °C 6,7 °C 3,2 km/h (1 Bft)
14.03.2022 17:58 23,2 °C 6,7 °C 38 % 91 % 1028,2 hPa 0,0 l/m² 0,3 km/h (0 Bft) S-SW 211 ° 0 min 7 W/m² 5,3 °C 6,7 °C 1,6 km/h (1 Bft)
14.03.2022 18:00 23,2 °C 6,7 °C 38 % 91 % 1028,2 hPa 0,0 l/m² 0,0 km/h (0 Bft) S-SW 211 ° 0 min 5 W/m² 5,3 °C 6,7 °C 0,0 km/h (0 Bft)
14.03.2022 18:01 23,2 °C 6,7 °C 38 % 91 % 1028,2 hPa 0,0 l/m² 0,8 km/h (0 Bft) S-SW 211 ° 0 min 5 W/m² 5,3 °C 6,7 °C 3,2 km/h (1 Bft)
14.03.2022 18:02 23,2 °C 6,7 °C 38 % 91 % 1028,2 hPa 0,0 l/m² 0,0 km/h (0 Bft) S-SW 211 ° 0 min 5 W/m² 5,3 °C 6,7 °C 0,0 km/h (0 Bft)
14.03.2022 18:04 23,2 °C 6,7 °C 38 % 92 % 1028,2 hPa 0,0 l/m² 0,0 km/h (0 Bft) S-SW 211 ° 0 min 5 W/m² 5,5 °C 6,7 °C 1,6 km/h (1 Bft)
14.03.2022 18:05 23,2 °C 6,7 °C 38 % 91 % 1028,2 hPa 0,0 l/m² 0,0 km/h (0 Bft) S-SW 211 ° 0 min 5 W/m² 5,3 °C 6,7 °C 0,0 km/h (0 Bft)
14.03.2022 18:07 23,2 °C 6,7 °C 38 % 92 % 1028,1 hPa 0,0 l/m² 0,0 km/h (0 Bft) S-SW 211 ° 0 min 0 W/m² 5,5 °C 6,7 °C 0,0 km/h (0 Bft)
14.03.2022 18:09 23,2 °C 6,7 °C 38 % 92 % 1028,2 hPa 0,0 l/m² 1,2 km/h (1 Bft) S-SW 211 ° 0 min 0 W/m² 5,5 °C 6,7 °C 4,8 km/h (1 Bft)
14.03.2022 18:10 23,2 °C 6,7 °C 38 % 92 % 1028,2 hPa 0,0 l/m² 0,5 km/h (0 Bft) S-SW 211 ° 0 min 0 W/m² 5,5 °C 6,7 °C 1,6 km/h (1 Bft)
14.03.2022 18:12 23,2 °C 6,7 °C 38 % 92 % 1028,2 hPa 0,0 l/m² 0,6 km/h (0 Bft) S-SW 211 ° 0 min 0 W/m² 5,5 °C 6,7 °C 3,2 km/h (1 Bft)
14.03.2022 18:13 23,2 °C 6,7 °C 38 % 92 % 1028,2 hPa 0,0 l/m² 0,2 km/h (0 Bft) S-SW 211 ° 0 min 0 W/m² 5,5 °C 6,7 °C 1,6 km/h (1 Bft)
14.03.2022 18:14 23,2 °C 6,7 °C 38 % 92 % 1028,2 hPa 0,0 l/m² 0,0 km/h (0 Bft) S-SW 211 ° 0 min 0 W/m² 5,5 °C 6,7 °C 0,0 km/h (0 Bft)
14.03.2022 18:16 23,2 °C 6,7 °C 38 % 92 % 1028,1 hPa 0,0 l/m² 0,3 km/h (0 Bft) S-SW 211 ° 0 min 0 W/m² 5,5 °C 6,7 °C 1,6 km/h (1 Bft)
14.03.2022 18:18 23,2 °C 6,7 °C 38 % 92 % 1028,2 hPa 0,0 l/m² 1,2 km/h (1 Bft) S-SW 211 ° 0 min 0 W/m² 5,5 °C 6,7 °C 4,8 km/h (1 Bft)
14.03.2022 18:20 23,2 °C 6,7 °C 38 % 92 % 1028,2 hPa 0,0 l/m² 0,9 km/h (0 Bft) S-SW 211 ° 0 min 0 W/m² 5,5 °C 6,7 °C 3,2 km/h (1 Bft)
14.03.2022 18:21 23,2 °C 6,7 °C 38 % 92 % 1028,3 hPa 0,0 l/m² 0,1 km/h (0 Bft) S-SW 211 ° 0 min 0 W/m² 5,5 °C 6,7 °C 1,6 km/h (1 Bft)
14.03.2022 18:22 23,2 °C 6,7 °C 38 % 92 % 1028,3 hPa 0,0 l/m² 0,8 km/h (0 Bft) S-SW 211 ° 0 min 0 W/m² 5,5 °C 6,7 °C 3,2 km/h (1 Bft)
14.03.2022 18:23 23,2 °C 6,7 °C 38 % 92 % 1028,3 hPa 0,0 l/m² 0,2 km/h (0 Bft) S-SW 211 ° 0 min 0 W/m² 5,5 °C 6,7 °C 1,6 km/h (1 Bft)
14.03.2022 18:24 23,2 °C 6,7 °C 38 % 92 % 1028,3 hPa 0,0 l/m² 0,0 km/h (0 Bft) S-SW 211 ° 0 min 0 W/m² 5,5 °C 6,7 °C 0,0 km/h (0 Bft)
14.03.2022 18:26 23,2 °C 6,7 °C 38 % 92 % 1028,4 hPa 0,0 l/m² 1,3 km/h (1 Bft) S-SW 211 ° 0 min 0 W/m² 5,5 °C 6,7 °C 4,8 km/h (1 Bft)
14.03.2022 18:28 23,2 °C 6,7 °C 38 % 92 % 1028,4 hPa 0,0 l/m² 0,0 km/h (0 Bft) S-SW 211 ° 0 min 0 W/m² 5,5 °C 6,7 °C 0,0 km/h (0 Bft)
14.03.2022 18:30 23,2 °C 6,6 °C 39 % 92 % 1028,4 hPa 0,0 l/m² 0,0 km/h (0 Bft) S-SW 211 ° 0 min 0 W/m² 5,4 °C 6,6 °C 0,0 km/h (0 Bft)
14.03.2022 18:31 23,2 °C 6,7 °C 39 % 92 % 1028,4 hPa 0,0 l/m² 0,1 km/h (0 Bft) S-SW 211 ° 0 min 0 W/m² 5,5 °C 6,7 °C 1,6 km/h (1 Bft)
14.03.2022 18:32 23,2 °C 6,7 °C 39 % 92 % 1028,4 hPa 0,0 l/m² 0,0 km/h (0 Bft) S-SW 211 ° 0 min 0 W/m² 5,5 °C 6,7 °C 0,0 km/h (0 Bft)
14.03.2022 18:33 23,2 °C 6,7 °C 39 % 92 % 1028,4 hPa 0,0 l/m² 2,3 km/h (1 Bft) S-SW 211 ° 0 min 0 W/m² 5,5 °C 6,7 °C 4,8 km/h (1 Bft)
14.03.2022 18:34 23,2 °C 6,7 °C 39 % 92 % 1028,4 hPa 0,0 l/m² 0,6 km/h (0 Bft) S-SW 211 ° 0 min 0 W/m² 5,5 °C 6,7 °C 1,6 km/h (1 Bft)
14.03.2022 18:36 23,2 °C 6,7 °C 39 % 92 % 1028,3 hPa 0,0 l/m² 2,5 km/h (1 Bft) S-SW 211 ° 0 min 0 W/m² 5,5 °C 6,7 °C 3,2 km/h (1 Bft)
14.03.2022 18:38 23,2 °C 6,7 °C 39 % 92 % 1028,5 hPa 0,2 l/m² 1,4 km/h (1 Bft) S-SW 211 ° 0 min 0 W/m² 5,5 °C 6,7 °C 3,2 km/h (1 Bft)
14.03.2022 18:40 23,2 °C 6,7 °C 39 % 92 % 1028,3 hPa 0,0 l/m² 0,5 km/h (0 Bft) S-SW 211 ° 0 min 0 W/m² 5,5 °C 6,7 °C 1,6 km/h (1 Bft)
14.03.2022 18:41 23,2 °C 6,7 °C 40 % 92 % 1028,4 hPa 0,0 l/m² 0,2 km/h (0 Bft) S-SW 211 ° 0 min 0 W/m² 5,5 °C 6,7 °C 1,6 km/h (1 Bft)
14.03.2022 18:42 23,2 °C 6,6 °C 40 % 92 % 1028,4 hPa 0,0 l/m² 0,0 km/h (0 Bft) S-SW 211 ° 0 min 0 W/m² 5,4 °C 6,6 °C 0,0 km/h (0 Bft)
14.03.2022 18:44 23,2 °C 6,6 °C 40 % 92 % 1028,5 hPa 0,0 l/m² 0,0 km/h (0 Bft) S-SW 211 ° 0 min 0 W/m² 5,4 °C 6,6 °C 0,0 km/h (0 Bft)
14.03.2022 18:46 23,2 °C 6,6 °C 40 % 92 % 1028,5 hPa 0,0 l/m² 0,0 km/h (0 Bft) S-SW 211 ° 0 min 0 W/m² 5,4 °C 6,6 °C 0,0 km/h (0 Bft)
14.03.2022 18:48 23,2 °C 6,6 °C 40 % 92 % 1028,4 hPa 0,0 l/m² 0,0 km/h (0 Bft) S-SW 211 ° 0 min 0 W/m² 5,4 °C 6,6 °C 0,0 km/h (0 Bft)
14.03.2022 18:50 23,2 °C 6,6 °C 40 % 92 % 1028,5 hPa 0,0 l/m² 0,0 km/h (0 Bft) S-SW 211 ° 0 min 0 W/m² 5,4 °C 6,6 °C 0,0 km/h (0 Bft)
14.03.2022 18:51 23,2 °C 6,7 °C 40 % 92 % 1028,6 hPa 0,0 l/m² 0,0 km/h (0 Bft) S-SW 211 ° 0 min 0 W/m² 5,5 °C 6,7 °C 0,0 km/h (0 Bft)
14.03.2022 18:52 23,2 °C 6,6 °C 40 % 92 % 1028,6 hPa 0,0 l/m² 0,0 km/h (0 Bft) S-SW 211 ° 0 min 0 W/m² 5,4 °C 6,6 °C 0,0 km/h (0 Bft)
14.03.2022 18:54 23,2 °C 6,6 °C 40 % 92 % 1028,6 hPa 0,0 l/m² 0,0 km/h (0 Bft) S-SW 211 ° 0 min 0 W/m² 5,4 °C 6,6 °C 0,0 km/h (0 Bft)
14.03.2022 18:55 23,2 °C 6,6 °C 40 % 92 % 1028,6 hPa 0,0 l/m² 0,0 km/h (0 Bft) S-SW 211 ° 0 min 0 W/m² 5,4 °C 6,6 °C 0,0 km/h (0 Bft)
14.03.2022 18:57 23,2 °C 6,6 °C 40 % 92 % 1028,6 hPa 0,0 l/m² 0,0 km/h (0 Bft) S-SW 211 ° 0 min 0 W/m² 5,4 °C 6,6 °C 0,0 km/h (0 Bft)
14.03.2022 18:59 23,2 °C 6,6 °C 40 % 92 % 1028,6 hPa 0,0 l/m² 0,0 km/h (0 Bft) S-SW 211 ° 0 min 0 W/m² 5,4 °C 6,6 °C 0,0 km/h (0 Bft)
14.03.2022 19:00 23,2 °C 6,6 °C 40 % 92 % 1028,7 hPa 0,0 l/m² 0,0 km/h (0 Bft) S-SW 211 ° 0 min 0 W/m² 5,4 °C 6,6 °C 0,0 km/h (0 Bft)
14.03.2022 19:01 23,2 °C 6,6 °C 40 % 92 % 1028,6 hPa 0,0 l/m² 0,0 km/h (0 Bft) S-SW 211 ° 0 min 0 W/m² 5,4 °C 6,6 °C 0,0 km/h (0 Bft)
14.03.2022 19:02 23,2 °C 6,5 °C 40 % 92 % 1028,7 hPa 0,0 l/m² 0,0 km/h (0 Bft) S-SW 211 ° 0 min 0 W/m² 5,3 °C 6,5 °C 0,0 km/h (0 Bft)
14.03.2022 19:03 23,2 °C 6,4 °C 40 % 92 % 1028,7 hPa 0,0 l/m² 0,0 km/h (0 Bft) S-SW 211 ° 0 min 0 W/m² 5,2 °C 6,4 °C 0,0 km/h (0 Bft)
14.03.2022 19:05 23,2 °C 6,4 °C 40 % 92 % 1028,8 hPa 0,0 l/m² 0,0 km/h (0 Bft) S-SW 211 ° 0 min 0 W/m² 5,2 °C 6,4 °C 0,0 km/h (0 Bft)
14.03.2022 19:06 23,2 °C 6,4 °C 40 % 92 % 1028,7 hPa 0,0 l/m² 0,0 km/h (0 Bft) S-SW 211 ° 0 min 0 W/m² 5,2 °C 6,4 °C 0,0 km/h (0 Bft)
14.03.2022 19:08 23,2 °C 6,4 °C 40 % 92 % 1028,8 hPa 0,0 l/m² 0,1 km/h (0 Bft) S-SW 211 ° 0 min 0 W/m² 5,2 °C 6,4 °C 1,6 km/h (1 Bft)
14.03.2022 19:10 23,2 °C 6,4 °C 40 % 92 % 1028,7 hPa 0,0 l/m² 0,1 km/h (0 Bft) S-SW 211 ° 0 min 0 W/m² 5,2 °C 6,4 °C 1,6 km/h (1 Bft)
14.03.2022 19:11 23,2 °C 6,3 °C 40 % 92 % 1028,8 hPa 0,0 l/m² 0,0 km/h (0 Bft) S-SW 211 ° 0 min 0 W/m² 5,1 °C 6,3 °C 0,0 km/h (0 Bft)
14.03.2022 19:12 23,2 °C 6,3 °C 40 % 92 % 1028,8 hPa 0,0 l/m² 0,0 km/h (0 Bft) S-SW 211 ° 0 min 0 W/m² 5,1 °C 6,3 °C 0,0 km/h (0 Bft)
14.03.2022 19:14 23,2 °C 6,3 °C 40 % 92 % 1028,8 hPa 0,0 l/m² 0,0 km/h (0 Bft) S-SW 211 ° 0 min 0 W/m² 5,1 °C 6,3 °C 0,0 km/h (0 Bft)
14.03.2022 19:15 23,2 °C 6,2 °C 40 % 92 % 1028,8 hPa 0,0 l/m² 0,0 km/h (0 Bft) S-SW 211 ° 0 min 0 W/m² 5,0 °C 6,2 °C 0,0 km/h (0 Bft)
14.03.2022 19:17 23,2 °C 6,2 °C 40 % 92 % 1028,9 hPa 0,0 l/m² 0,0 km/h (0 Bft) S-SW 211 ° 0 min 0 W/m² 5,0 °C 6,2 °C 0,0 km/h (0 Bft)
14.03.2022 19:19 23,2 °C 6,2 °C 40 % 92 % 1028,9 hPa 0,0 l/m² 0,0 km/h (0 Bft) S-SW 211 ° 0 min 0 W/m² 5,0 °C 6,2 °C 0,0 km/h (0 Bft)
14.03.2022 19:20 23,2 °C 6,3 °C 40 % 92 % 1029,0 hPa 0,0 l/m² 0,0 km/h (0 Bft) S-SW 211 ° 0 min 0 W/m² 5,1 °C 6,3 °C 0,0 km/h (0 Bft)
14.03.2022 19:22 23,2 °C 6,2 °C 40 % 92 % 1029,0 hPa 0,0 l/m² 0,0 km/h (0 Bft) S-SW 211 ° 0 min 0 W/m² 5,0 °C 6,2 °C 1,6 km/h (1 Bft)
14.03.2022 19:23 23,2 °C 6,2 °C 40 % 92 % 1029,0 hPa 0,0 l/m² 0,5 km/h (0 Bft) S-SW 211 ° 0 min 0 W/m² 5,0 °C 6,2 °C 1,6 km/h (1 Bft)
14.03.2022 19:24 23,2 °C 6,2 °C 40 % 92 % 1029,0 hPa 0,0 l/m² 1,5 km/h (1 Bft) S-SW 211 ° 0 min 0 W/m² 5,0 °C 6,2 °C 3,2 km/h (1 Bft)
14.03.2022 19:26 23,2 °C 6,1 °C 40 % 92 % 1029,0 hPa 0,0 l/m² 1,9 km/h (1 Bft) S-SW 211 ° 0 min 0 W/m² 4,9 °C 6,1 °C 3,2 km/h (1 Bft)
14.03.2022 19:28 23,2 °C 6,2 °C 40 % 92 % 1029,1 hPa 0,0 l/m² 1,3 km/h (1 Bft) S-SW 211 ° 0 min 0 W/m² 5,0 °C 6,2 °C 3,2 km/h (1 Bft)
14.03.2022 19:30 23,3 °C 6,2 °C 40 % 92 % 1029,2 hPa 0,0 l/m² 0,8 km/h (0 Bft) S-SW 211 ° 0 min 0 W/m² 5,0 °C 6,2 °C 3,2 km/h (1 Bft)
14.03.2022 19:31 23,2 °C 6,2 °C 40 % 92 % 1029,1 hPa 0,0 l/m² 0,2 km/h (0 Bft) S-SW 211 ° 0 min 0 W/m² 5,0 °C 6,2 °C 1,6 km/h (1 Bft)
14.03.2022 19:32 23,2 °C 6,3 °C 40 % 92 % 1029,1 hPa 0,0 l/m² 0,1 km/h (0 Bft) S-SW 211 ° 0 min 0 W/m² 5,1 °C 6,3 °C 1,6 km/h (1 Bft)
14.03.2022 19:34 23,3 °C 6,3 °C 40 % 92 % 1029,2 hPa 0,0 l/m² 0,0 km/h (0 Bft) S-SW 211 ° 0 min 0 W/m² 5,1 °C 6,3 °C 0,0 km/h (0 Bft)
14.03.2022 19:35 23,3 °C 6,3 °C 40 % 92 % 1029,2 hPa 0,0 l/m² 0,0 km/h (0 Bft) S-SW 211 ° 0 min 0 W/m² 5,1 °C 6,3 °C 0,0 km/h (0 Bft)
14.03.2022 19:37 23,3 °C 6,3 °C 41 % 93 % 1029,2 hPa 0,0 l/m² 0,0 km/h (0 Bft) S-SW 211 ° 0 min 0 W/m² 5,3 °C 6,3 °C 1,6 km/h (1 Bft)
14.03.2022 19:39 23,3 °C 6,3 °C 41 % 92 % 1029,2 hPa 0,0 l/m² 0,6 km/h (0 Bft) S-SW 211 ° 0 min 0 W/m² 5,1 °C 6,3 °C 3,2 km/h (1 Bft)
14.03.2022 19:40 23,3 °C 6,3 °C 41 % 93 % 1029,3 hPa 0,0 l/m² 0,8 km/h (0 Bft) S-SW 211 ° 0 min 0 W/m² 5,3 °C 6,3 °C 3,2 km/h (1 Bft)
14.03.2022 19:41 23,3 °C 6,3 °C 41 % 92 % 1029,4 hPa 0,0 l/m² 0,1 km/h (0 Bft) S-SW 211 ° 0 min 0 W/m² 5,1 °C 6,3 °C 1,6 km/h (1 Bft)
14.03.2022 19:42 23,3 °C 6,3 °C 41 % 93 % 1029,4 hPa 0,0 l/m² 0,0 km/h (0 Bft) S-SW 211 ° 0 min 0 W/m² 5,3 °C 6,3 °C 0,0 km/h (0 Bft)
14.03.2022 19:44 23,2 °C 6,3 °C 40 % 93 % 1029,3 hPa 0,0 l/m² 0,4 km/h (0 Bft) S-SW 211 ° 0 min 0 W/m² 5,3 °C 6,3 °C 1,6 km/h (1 Bft)
14.03.2022 19:45 23,3 °C 6,3 °C 40 % 93 % 1029,4 hPa 0,0 l/m² 0,2 km/h (0 Bft) S-SW 211 ° 0 min 0 W/m² 5,3 °C 6,3 °C 3,2 km/h (1 Bft)
14.03.2022 19:47 23,3 °C 6,3 °C 41 % 93 % 1029,3 hPa 0,0 l/m² 1,1 km/h (1 Bft) S-SW 211 ° 0 min 0 W/m² 5,3 °C 6,3 °C 3,2 km/h (1 Bft)
14.03.2022 19:49 23,2 °C 6,3 °C 41 % 93 % 1029,3 hPa 0,0 l/m² 0,0 km/h (0 Bft) S-SW 211 ° 0 min 0 W/m² 5,3 °C 6,3 °C 0,0 km/h (0 Bft)
14.03.2022 19:50 23,2 °C 6,3 °C 41 % 93 % 1029,4 hPa 0,0 l/m² 0,1 km/h (0 Bft) S-SW 211 ° 0 min 0 W/m² 5,3 °C 6,3 °C 1,6 km/h (1 Bft)
14.03.2022 19:52 23,3 °C 6,3 °C 41 % 93 % 1029,4 hPa 0,0 l/m² 0,0 km/h (0 Bft) S-SW 211 ° 0 min 0 W/m² 5,3 °C 6,3 °C 0,0 km/h (0 Bft)
14.03.2022 19:53 23,2 °C 6,3 °C 41 % 92 % 1029,3 hPa 0,0 l/m² 0,0 km/h (0 Bft) S-SW 211 ° 0 min 0 W/m² 5,1 °C 6,3 °C 0,0 km/h (0 Bft)
14.03.2022 19:54 23,2 °C 6,3 °C 41 % 92 % 1029,3 hPa 0,0 l/m² 0,0 km/h (0 Bft) S-SW 211 ° 0 min 0 W/m² 5,1 °C 6,3 °C 0,0 km/h (0 Bft)
14.03.2022 19:56 23,2 °C 6,3 °C 41 % 92 % 1029,3 hPa 0,0 l/m² 0,0 km/h (0 Bft) S-SW 211 ° 0 min 0 W/m² 5,1 °C 6,3 °C 0,0 km/h (0 Bft)
14.03.2022 19:58 23,3 °C 6,2 °C 41 % 92 % 1029,3 hPa 0,0 l/m² 0,0 km/h (0 Bft) S-SW 211 ° 0 min 0 W/m² 5,0 °C 6,2 °C 0,0 km/h (0 Bft)
14.03.2022 20:00 23,3 °C 6,2 °C 41 % 92 % 1029,3 hPa 0,0 l/m² 0,0 km/h (0 Bft) S-SW 211 ° 0 min 0 W/m² 5,0 °C 6,2 °C 0,0 km/h (0 Bft)
14.03.2022 20:01 23,2 °C 6,2 °C 41 % 92 % 1029,4 hPa 0,0 l/m² 0,0 km/h (0 Bft) S-SW 211 ° 0 min 0 W/m² 5,0 °C 6,2 °C 0,0 km/h (0 Bft)
14.03.2022 20:02 23,2 °C 6,2 °C 41 % 92 % 1029,4 hPa 0,0 l/m² 0,0 km/h (0 Bft) S-SW 211 ° 0 min 0 W/m² 5,0 °C 6,2 °C 0,0 km/h (0 Bft)
14.03.2022 20:04 23,3 °C 6,2 °C 41 % 92 % 1029,3 hPa 0,0 l/m² 0,0 km/h (0 Bft) S-SW 211 ° 0 min 0 W/m² 5,0 °C 6,2 °C 0,0 km/h (0 Bft)
14.03.2022 20:05 23,2 °C 6,2 °C 41 % 92 % 1029,3 hPa 0,0 l/m² 0,0 km/h (0 Bft) S-SW 211 ° 0 min 0 W/m² 5,0 °C 6,2 °C 0,0 km/h (0 Bft)
14.03.2022 20:07 23,2 °C 6,2 °C 41 % 93 % 1029,4 hPa 0,0 l/m² 0,0 km/h (0 Bft) S-SW 211 ° 0 min 0 W/m² 5,2 °C 6,2 °C 0,0 km/h (0 Bft)
14.03.2022 20:09 23,2 °C 6,2 °C 41 % 93 % 1029,4 hPa 0,0 l/m² 0,0 km/h (0 Bft) S-SW 211 ° 0 min 0 W/m² 5,2 °C 6,2 °C 0,0 km/h (0 Bft)
14.03.2022 20:10 23,3 °C 6,2 °C 41 % 93 % 1029,3 hPa 0,0 l/m² 0,0 km/h (0 Bft) S-SW 211 ° 0 min 0 W/m² 5,2 °C 6,2 °C 0,0 km/h (0 Bft)
14.03.2022 20:12 23,3 °C 6,3 °C 41 % 93 % 1029,4 hPa 0,0 l/m² 0,0 km/h (0 Bft) S-SW 211 ° 0 min 0 W/m² 5,3 °C 6,3 °C 0,0 km/h (0 Bft)
14.03.2022 20:13 23,3 °C 6,3 °C 41 % 93 % 1029,4 hPa 0,0 l/m² 0,0 km/h (0 Bft) S-SW 211 ° 0 min 0 W/m² 5,3 °C 6,3 °C 0,0 km/h (0 Bft)
14.03.2022 20:14 23,3 °C 6,3 °C 41 % 93 % 1029,4 hPa 0,0 l/m² 0,0 km/h (0 Bft) S-SW 211 ° 0 min 0 W/m² 5,3 °C 6,3 °C 0,0 km/h (0 Bft)
14.03.2022 20:16 23,3 °C 6,3 °C 41 % 93 % 1029,4 hPa 0,0 l/m² 0,0 km/h (0 Bft) S-SW 211 ° 0 min 0 W/m² 5,3 °C 6,3 °C 0,0 km/h (0 Bft)
14.03.2022 20:18 23,3 °C 6,3 °C 41 % 93 % 1029,5 hPa 0,0 l/m² 0,0 km/h (0 Bft) S-SW 211 ° 0 min 0 W/m² 5,3 °C 6,3 °C 1,6 km/h (1 Bft)
14.03.2022 20:20 23,3 °C 6,3 °C 41 % 93 % 1029,5 hPa 0,0 l/m² 0,4 km/h (0 Bft) S-SW 211 ° 0 min 0 W/m² 5,3 °C 6,3 °C 1,6 km/h (1 Bft)
14.03.2022 20:21 23,3 °C 6,3 °C 41 % 93 % 1029,6 hPa 0,0 l/m² 0,0 km/h (0 Bft) S-SW 211 ° 0 min 0 W/m² 5,3 °C 6,3 °C 0,0 km/h (0 Bft)
14.03.2022 20:22 23,3 °C 6,3 °C 41 % 93 % 1029,6 hPa 0,0 l/m² 0,2 km/h (0 Bft) S-SW 211 ° 0 min 0 W/m² 5,3 °C 6,3 °C 1,6 km/h (1 Bft)
14.03.2022 20:24 23,3 °C 6,3 °C 41 % 93 % 1029,6 hPa 0,0 l/m² 0,1 km/h (0 Bft) S-SW 211 ° 0 min 0 W/m² 5,3 °C 6,3 °C 1,6 km/h (1 Bft)
14.03.2022 20:25 23,3 °C 6,3 °C 41 % 93 % 1029,5 hPa 0,0 l/m² 0,0 km/h (0 Bft) S-SW 211 ° 0 min 0 W/m² 5,3 °C 6,3 °C 0,0 km/h (0 Bft)
14.03.2022 20:27 23,3 °C 6,3 °C 41 % 93 % 1029,5 hPa 0,0 l/m² 0,0 km/h (0 Bft) S-SW 211 ° 0 min 0 W/m² 5,3 °C 6,3 °C 0,0 km/h (0 Bft)
14.03.2022 20:29 23,3 °C 6,3 °C 41 % 93 % 1029,6 hPa 0,0 l/m² 0,0 km/h (0 Bft) S-SW 211 ° 0 min 0 W/m² 5,3 °C 6,3 °C 0,0 km/h (0 Bft)
14.03.2022 20:30 23,3 °C 6,4 °C 41 % 93 % 1029,6 hPa 0,0 l/m² 0,0 km/h (0 Bft) S-SW 211 ° 0 min 0 W/m² 5,4 °C 6,4 °C 0,0 km/h (0 Bft)
14.03.2022 20:31 23,3 °C 6,4 °C 41 % 93 % 1029,6 hPa 0,0 l/m² 0,0 km/h (0 Bft) S-SW 211 ° 0 min 0 W/m² 5,4 °C 6,4 °C 0,0 km/h (0 Bft)
14.03.2022 20:32 23,3 °C 6,4 °C 41 % 93 % 1029,6 hPa 0,0 l/m² 0,0 km/h (0 Bft) S-SW 211 ° 0 min 0 W/m² 5,4 °C 6,4 °C 0,0 km/h (0 Bft)
14.03.2022 20:34 23,3 °C 6,4 °C 41 % 93 % 1029,6 hPa 0,0 l/m² 0,1 km/h (0 Bft) S-SW 211 ° 0 min 0 W/m² 5,4 °C 6,4 °C 1,6 km/h (1 Bft)
14.03.2022 20:35 23,3 °C 6,4 °C 41 % 93 % 1029,6 hPa 0,0 l/m² 0,0 km/h (0 Bft) S-SW 211 ° 0 min 0 W/m² 5,4 °C 6,4 °C 0,0 km/h (0 Bft)
14.03.2022 20:37 23,3 °C 6,4 °C 41 % 93 % 1029,6 hPa 0,0 l/m² 0,2 km/h (0 Bft) S-SW 211 ° 0 min 0 W/m² 5,4 °C 6,4 °C 1,6 km/h (1 Bft)
14.03.2022 20:39 23,3 °C 6,4 °C 41 % 93 % 1029,7 hPa 0,0 l/m² 0,1 km/h (0 Bft) S-SW 211 ° 0 min 0 W/m² 5,4 °C 6,4 °C 1,6 km/h (1 Bft)
14.03.2022 20:40 23,3 °C 6,4 °C 41 % 93 % 1029,6 hPa 0,0 l/m² 0,1 km/h (0 Bft) S-SW 211 ° 0 min 0 W/m² 5,4 °C 6,4 °C 1,6 km/h (1 Bft)
14.03.2022 20:41 23,4 °C 6,4 °C 41 % 93 % 1029,6 hPa 0,0 l/m² 0,4 km/h (0 Bft) S-SW 211 ° 0 min 0 W/m² 5,4 °C 6,4 °C 1,6 km/h (1 Bft)
14.03.2022 20:42 23,4 °C 6,4 °C 41 % 93 % 1029,6 hPa 0,0 l/m² 0,1 km/h (0 Bft) S-SW 211 ° 0 min 0 W/m² 5,4 °C 6,4 °C 1,6 km/h (1 Bft)
14.03.2022 20:44 23,4 °C 6,4 °C 41 % 93 % 1029,6 hPa 0,0 l/m² 0,7 km/h (0 Bft) S-SW 211 ° 0 min 0 W/m² 5,4 °C 6,4 °C 3,2 km/h (1 Bft)
14.03.2022 20:45 23,4 °C 6,4 °C 41 % 93 % 1029,6 hPa 0,0 l/m² 0,7 km/h (0 Bft) S-SW 211 ° 0 min 0 W/m² 5,4 °C 6,4 °C 1,6 km/h (1 Bft)
14.03.2022 20:47 23,4 °C 6,4 °C 41 % 93 % 1029,6 hPa 0,0 l/m² 1,6 km/h (1 Bft) S-SW 211 ° 0 min 0 W/m² 5,4 °C 6,4 °C 3,2 km/h (1 Bft)
14.03.2022 20:49 23,4 °C 6,4 °C 41 % 93 % 1029,6 hPa 0,0 l/m² 0,2 km/h (0 Bft) S-SW 211 ° 0 min 0 W/m² 5,4 °C 6,4 °C 1,6 km/h (1 Bft)
14.03.2022 20:50 23,4 °C 6,5 °C 41 % 93 % 1029,6 hPa 0,0 l/m² 0,0 km/h (0 Bft) S-SW 211 ° 0 min 0 W/m² 5,5 °C 6,5 °C 0,0 km/h (0 Bft)
14.03.2022 20:51 23,4 °C 6,5 °C 41 % 93 % 1029,6 hPa 0,0 l/m² 0,0 km/h (0 Bft) S-SW 211 ° 0 min 0 W/m² 5,5 °C 6,5 °C 0,0 km/h (0 Bft)
14.03.2022 20:52 23,4 °C 6,4 °C 41 % 93 % 1029,6 hPa 0,0 l/m² 1,8 km/h (1 Bft) S-SW 211 ° 0 min 0 W/m² 5,4 °C 6,4 °C 3,2 km/h (1 Bft)
14.03.2022 20:54 23,4 °C 6,2 °C 42 % 92 % 1029,5 hPa 0,0 l/m² 1,1 km/h (1 Bft) S-SW 211 ° 0 min 0 W/m² 5,0 °C 6,2 °C 3,2 km/h (1 Bft)
14.03.2022 20:55 23,4 °C 6,2 °C 42 % 92 % 1029,5 hPa 0,0 l/m² 0,0 km/h (0 Bft) S-SW 211 ° 0 min 0 W/m² 5,0 °C 6,2 °C 0,0 km/h (0 Bft)
14.03.2022 20:57 23,4 °C 6,2 °C 42 % 93 % 1029,4 hPa 0,0 l/m² 0,3 km/h (0 Bft) S-SW 211 ° 0 min 0 W/m² 5,2 °C 6,2 °C 1,6 km/h (1 Bft)
14.03.2022 20:59 23,4 °C 6,1 °C 42 % 92 % 1029,5 hPa 0,0 l/m² 0,0 km/h (0 Bft) S-SW 211 ° 0 min 0 W/m² 4,9 °C 6,1 °C 0,0 km/h (0 Bft)
14.03.2022 21:00 23,4 °C 6,0 °C 42 % 92 % 1029,5 hPa 0,0 l/m² 0,0 km/h (0 Bft) S-SW 211 ° 0 min 0 W/m² 4,8 °C 6,0 °C 0,0 km/h (0 Bft)
14.03.2022 21:01 23,4 °C 5,9 °C 42 % 92 % 1029,5 hPa 0,0 l/m² 0,0 km/h (0 Bft) S-SW 211 ° 0 min 0 W/m² 4,7 °C 5,9 °C 0,0 km/h (0 Bft)
14.03.2022 21:02 23,4 °C 5,9 °C 42 % 92 % 1029,5 hPa 0,0 l/m² 0,0 km/h (0 Bft) S-SW 211 ° 0 min 0 W/m² 4,7 °C 5,9 °C 0,0 km/h (0 Bft)
14.03.2022 21:03 23,4 °C 5,9 °C 41 % 92 % 1029,5 hPa 0,0 l/m² 0,0 km/h (0 Bft) S-SW 211 ° 0 min 0 W/m² 4,7 °C 5,9 °C 0,0 km/h (0 Bft)
14.03.2022 21:04 23,4 °C 5,9 °C 41 % 92 % 1029,5 hPa 0,0 l/m² 0,0 km/h (0 Bft) S-SW 211 ° 0 min 0 W/m² 4,7 °C 5,9 °C 0,0 km/h (0 Bft)
14.03.2022 21:06 23,4 °C 5,9 °C 42 % 93 % 1029,5 hPa 0,0 l/m² 0,0 km/h (0 Bft) S-SW 211 ° 0 min 0 W/m² 4,9 °C 5,9 °C 0,0 km/h (0 Bft)
14.03.2022 21:08 23,5 °C 5,9 °C 42 % 93 % 1029,5 hPa 0,0 l/m² 0,0 km/h (0 Bft) S-SW 211 ° 0 min 0 W/m² 4,9 °C 5,9 °C 0,0 km/h (0 Bft)
14.03.2022 21:10 23,4 °C 5,8 °C 41 % 93 % 1029,4 hPa 0,0 l/m² 0,0 km/h (0 Bft) S-SW 211 ° 0 min 0 W/m² 4,8 °C 5,8 °C 0,0 km/h (0 Bft)
14.03.2022 21:11 23,5 °C 5,8 °C 42 % 93 % 1029,4 hPa 0,0 l/m² 0,0 km/h (0 Bft) S-SW 211 ° 0 min 0 W/m² 4,8 °C 5,8 °C 0,0 km/h (0 Bft)
14.03.2022 21:12 23,5 °C 5,8 °C 42 % 93 % 1029,4 hPa 0,0 l/m² 0,0 km/h (0 Bft) S-SW 211 ° 0 min 0 W/m² 4,8 °C 5,8 °C 0,0 km/h (0 Bft)
14.03.2022 21:14 23,5 °C 5,7 °C 42 % 93 % 1029,5 hPa 0,0 l/m² 0,0 km/h (0 Bft) S-SW 211 ° 0 min 0 W/m² 4,7 °C 5,7 °C 0,0 km/h (0 Bft)
14.03.2022 21:15 23,5 °C 5,7 °C 42 % 93 % 1029,5 hPa 0,0 l/m² 0,0 km/h (0 Bft) S-SW 211 ° 0 min 0 W/m² 4,7 °C 5,7 °C 0,0 km/h (0 Bft)
14.03.2022 21:17 23,5 °C 5,6 °C 42 % 92 % 1029,5 hPa 0,0 l/m² 0,0 km/h (0 Bft) S-SW 211 ° 0 min 0 W/m² 4,4 °C 5,6 °C 0,0 km/h (0 Bft)
14.03.2022 21:19 23,5 °C 5,4 °C 42 % 92 % 1029,6 hPa 0,0 l/m² 0,0 km/h (0 Bft) S-SW 211 ° 0 min 0 W/m² 4,2 °C 5,4 °C 0,0 km/h (0 Bft)
14.03.2022 21:20 23,5 °C 5,3 °C 42 % 92 % 1029,6 hPa 0,0 l/m² 0,0 km/h (0 Bft) S-SW 211 ° 0 min 0 W/m² 4,1 °C 5,3 °C 0,0 km/h (0 Bft)
14.03.2022 21:21 23,5 °C 5,2 °C 42 % 92 % 1029,7 hPa 0,0 l/m² 0,0 km/h (0 Bft) S-SW 211 ° 0 min 0 W/m² 4,0 °C 5,2 °C 0,0 km/h (0 Bft)
14.03.2022 21:22 23,5 °C 5,2 °C 42 % 92 % 1029,7 hPa 0,0 l/m² 0,0 km/h (0 Bft) S-SW 211 ° 0 min 0 W/m² 4,0 °C 5,2 °C 0,0 km/h (0 Bft)
14.03.2022 21:24 23,5 °C 5,1 °C 42 % 92 % 1029,8 hPa 0,0 l/m² 0,0 km/h (0 Bft) S-SW 211 ° 0 min 0 W/m² 3,9 °C 5,1 °C 0,0 km/h (0 Bft)
14.03.2022 21:25 23,5 °C 5,1 °C 42 % 93 % 1029,8 hPa 0,0 l/m² 0,0 km/h (0 Bft) S-SW 211 ° 0 min 0 W/m² 4,1 °C 5,1 °C 0,0 km/h (0 Bft)
14.03.2022 21:27 23,6 °C 5,0 °C 42 % 93 % 1029,8 hPa 0,0 l/m² 0,0 km/h (0 Bft) S-SW 211 ° 0 min 0 W/m² 4,0 °C 5,0 °C 0,0 km/h (0 Bft)
14.03.2022 21:29 23,5 °C 4,9 °C 42 % 93 % 1029,9 hPa 0,0 l/m² 0,0 km/h (0 Bft) S-SW 211 ° 0 min 0 W/m² 3,9 °C 4,9 °C 0,0 km/h (0 Bft)
14.03.2022 21:30 23,6 °C 4,9 °C 42 % 93 % 1029,8 hPa 0,0 l/m² 0,0 km/h (0 Bft) S-SW 211 ° 0 min 0 W/m² 3,9 °C 4,9 °C 0,0 km/h (0 Bft)
14.03.2022 21:31 23,6 °C 5,0 °C 42 % 93 % 1030,0 hPa 0,0 l/m² 0,0 km/h (0 Bft) S-SW 211 ° 0 min 0 W/m² 4,0 °C 5,0 °C 0,0 km/h (0 Bft)
14.03.2022 21:32 23,6 °C 5,0 °C 42 % 93 % 1030,0 hPa 0,0 l/m² 0,0 km/h (0 Bft) S-SW 211 ° 0 min 0 W/m² 4,0 °C 5,0 °C 0,0 km/h (0 Bft)
14.03.2022 21:34 23,6 °C 4,9 °C 42 % 93 % 1029,9 hPa 0,0 l/m² 0,0 km/h (0 Bft) S-SW 211 ° 0 min 0 W/m² 3,9 °C 4,9 °C 0,0 km/h (0 Bft)
14.03.2022 21:35 23,6 °C 4,9 °C 42 % 93 % 1029,9 hPa 0,0 l/m² 0,0 km/h (0 Bft) S-SW 211 ° 0 min 0 W/m² 3,9 °C 4,9 °C 0,0 km/h (0 Bft)
14.03.2022 21:37 23,6 °C 4,9 °C 42 % 93 % 1029,9 hPa 0,0 l/m² 0,0 km/h (0 Bft) S-SW 211 ° 0 min 0 W/m² 3,9 °C 4,9 °C 0,0 km/h (0 Bft)
14.03.2022 21:39 23,6 °C 4,8 °C 42 % 93 % 1030,0 hPa 0,0 l/m² 0,0 km/h (0 Bft) S-SW 211 ° 0 min 0 W/m² 3,8 °C 4,8 °C 0,0 km/h (0 Bft)
14.03.2022 21:40 23,6 °C 4,7 °C 42 % 93 % 1030,0 hPa 0,0 l/m² 0,0 km/h (0 Bft) S-SW 211 ° 0 min 0 W/m² 3,7 °C 4,7 °C 0,0 km/h (0 Bft)
14.03.2022 21:41 23,6 °C 4,7 °C 42 % 93 % 1030,0 hPa 0,0 l/m² 0,0 km/h (0 Bft) S-SW 211 ° 0 min 0 W/m² 3,7 °C 4,7 °C 0,0 km/h (0 Bft)
14.03.2022 21:42 23,6 °C 4,7 °C 42 % 93 % 1030,0 hPa 0,0 l/m² 0,1 km/h (0 Bft) S-SW 211 ° 0 min 0 W/m² 3,7 °C 4,7 °C 1,6 km/h (1 Bft)
14.03.2022 21:44 23,6 °C 4,7 °C 42 % 93 % 1030,0 hPa 0,0 l/m² 0,0 km/h (0 Bft) S-SW 211 ° 0 min 0 W/m² 3,7 °C 4,7 °C 0,0 km/h (0 Bft)
14.03.2022 21:46 23,6 °C 4,7 °C 42 % 93 % 1030,0 hPa 0,0 l/m² 0,0 km/h (0 Bft) S-SW 211 ° 0 min 0 W/m² 3,7 °C 4,7 °C 0,0 km/h (0 Bft)
14.03.2022 21:48 23,6 °C 4,7 °C 42 % 93 % 1030,0 hPa 0,0 l/m² 0,0 km/h (0 Bft) S-SW 211 ° 0 min 0 W/m² 3,7 °C 4,7 °C 0,0 km/h (0 Bft)
14.03.2022 21:50 23,6 °C 4,6 °C 42 % 93 % 1030,0 hPa 0,0 l/m² 0,0 km/h (0 Bft) S-SW 211 ° 0 min 0 W/m² 3,6 °C 4,6 °C 0,0 km/h (0 Bft)
14.03.2022 21:51 23,6 °C 4,6 °C 42 % 93 % 1030,0 hPa 0,0 l/m² 1,0 km/h (0 Bft) S-SW 211 ° 0 min 0 W/m² 3,6 °C 4,6 °C 1,6 km/h (1 Bft)
14.03.2022 21:52 23,6 °C 4,6 °C 42 % 93 % 1030,0 hPa 0,0 l/m² 0,6 km/h (0 Bft) S-SW 211 ° 0 min 0 W/m² 3,6 °C 4,6 °C 1,6 km/h (1 Bft)
14.03.2022 21:54 23,6 °C 4,7 °C 42 % 93 % 1030,0 hPa 0,0 l/m² 1,4 km/h (1 Bft) S-SW 211 ° 0 min 0 W/m² 3,7 °C 4,7 °C 3,2 km/h (1 Bft)
14.03.2022 21:55 23,6 °C 4,7 °C 42 % 93 % 1030,1 hPa 0,0 l/m² 0,8 km/h (0 Bft) S-SW 211 ° 0 min 0 W/m² 3,7 °C 4,7 °C 1,6 km/h (1 Bft)
14.03.2022 21:57 23,6 °C 4,8 °C 42 % 93 % 1030,0 hPa 0,0 l/m² 1,6 km/h (1 Bft) S-SW 211 ° 0 min 0 W/m² 3,8 °C 4,8 °C 3,2 km/h (1 Bft)
14.03.2022 21:59 23,6 °C 4,8 °C 42 % 93 % 1030,1 hPa 0,0 l/m² 2,9 km/h (1 Bft) S-SW 211 ° 0 min 0 W/m² 3,8 °C 4,8 °C 4,8 km/h (1 Bft)
14.03.2022 22:00 23,6 °C 4,9 °C 42 % 93 % 1030,1 hPa 0,0 l/m² 0,4 km/h (0 Bft) S-SW 211 ° 0 min 0 W/m² 3,9 °C 4,9 °C 1,6 km/h (1 Bft)
14.03.2022 22:01 23,6 °C 4,9 °C 42 % 93 % 1030,1 hPa 0,0 l/m² 0,0 km/h (0 Bft) S-SW 211 ° 0 min 0 W/m² 3,9 °C 4,9 °C 0,0 km/h (0 Bft)
14.03.2022 22:02 23,6 °C 5,0 °C 42 % 93 % 1030,1 hPa 0,0 l/m² 0,8 km/h (0 Bft) S-SW 211 ° 0 min 0 W/m² 4,0 °C 5,0 °C 3,2 km/h (1 Bft)
14.03.2022 22:04 23,6 °C 5,1 °C 43 % 93 % 1030,0 hPa 0,0 l/m² 1,6 km/h (1 Bft) N 5 ° 0 min 0 W/m² 4,1 °C 5,1 °C 4,8 km/h (1 Bft)
14.03.2022 22:05 23,6 °C 5,2 °C 43 % 93 % 1030,1 hPa 0,0 l/m² 1,3 km/h (1 Bft) N 5 ° 0 min 0 W/m² 4,2 °C 5,2 °C 3,2 km/h (1 Bft)
14.03.2022 22:07 23,6 °C 5,3 °C 43 % 94 % 1030,0 hPa 0,0 l/m² 0,3 km/h (0 Bft) N 5 ° 0 min 0 W/m² 4,4 °C 5,3 °C 1,6 km/h (1 Bft)
14.03.2022 22:09 23,6 °C 5,4 °C 43 % 94 % 1030,0 hPa 0,0 l/m² 0,4 km/h (0 Bft) N 355 ° 0 min 0 W/m² 4,5 °C 5,4 °C 3,2 km/h (1 Bft)
14.03.2022 22:10 23,6 °C 5,5 °C 43 % 94 % 1030,0 hPa 0,0 l/m² 0,0 km/h (0 Bft) N 355 ° 0 min 0 W/m² 4,6 °C 5,5 °C 0,0 km/h (0 Bft)
14.03.2022 22:11 23,5 °C 5,4 °C 43 % 94 % 1029,9 hPa 0,0 l/m² 0,0 km/h (0 Bft) N 355 ° 0 min 0 W/m² 4,5 °C 5,4 °C 0,0 km/h (0 Bft)
14.03.2022 22:12 23,5 °C 5,5 °C 43 % 93 % 1029,9 hPa 0,0 l/m² 0,0 km/h (0 Bft) N 355 ° 0 min 0 W/m² 4,5 °C 5,5 °C 0,0 km/h (0 Bft)
14.03.2022 22:14 23,5 °C 5,4 °C 43 % 93 % 1029,8 hPa 0,0 l/m² 0,0 km/h (0 Bft) N 355 ° 0 min 0 W/m² 4,4 °C 5,4 °C 0,0 km/h (0 Bft)
14.03.2022 22:15 23,6 °C 5,6 °C 43 % 93 % 1029,8 hPa 0,0 l/m² 0,0 km/h (0 Bft) N 355 ° 0 min 0 W/m² 4,6 °C 5,6 °C 0,0 km/h (0 Bft)
14.03.2022 22:17 23,5 °C 5,5 °C 43 % 93 % 1029,8 hPa 0,0 l/m² 0,0 km/h (0 Bft) N 355 ° 0 min 0 W/m² 4,5 °C 5,5 °C 0,0 km/h (0 Bft)
14.03.2022 22:19 23,5 °C 5,4 °C 42 % 93 % 1029,8 hPa 0,0 l/m² 0,0 km/h (0 Bft) N 355 ° 0 min 0 W/m² 4,4 °C 5,4 °C 0,0 km/h (0 Bft)
14.03.2022 22:20 23,5 °C 5,5 °C 42 % 93 % 1029,8 hPa 0,0 l/m² 0,0 km/h (0 Bft) N 355 ° 0 min 0 W/m² 4,5 °C 5,5 °C 0,0 km/h (0 Bft)
14.03.2022 22:21 23,5 °C 5,5 °C 42 % 93 % 1029,8 hPa 0,0 l/m² 0,0 km/h (0 Bft) N 355 ° 0 min 0 W/m² 4,5 °C 5,5 °C 0,0 km/h (0 Bft)
14.03.2022 22:22 23,5 °C 5,4 °C 42 % 93 % 1029,8 hPa 0,0 l/m² 0,0 km/h (0 Bft) N 355 ° 0 min 0 W/m² 4,4 °C 5,4 °C 0,0 km/h (0 Bft)
14.03.2022 22:24 23,5 °C 5,4 °C 42 % 93 % 1029,7 hPa 0,0 l/m² 0,0 km/h (0 Bft) N 355 ° 0 min 0 W/m² 4,4 °C 5,4 °C 1,6 km/h (1 Bft)
14.03.2022 22:25 23,4 °C 5,3 °C 42 % 93 % 1029,8 hPa 0,0 l/m² 0,0 km/h (0 Bft) N 355 ° 0 min 0 W/m² 4,3 °C 5,3 °C 0,0 km/h (0 Bft)
14.03.2022 22:27 23,4 °C 5,3 °C 42 % 93 % 1029,7 hPa 0,0 l/m² 0,1 km/h (0 Bft) N 355 ° 0 min 0 W/m² 4,3 °C 5,3 °C 1,6 km/h (1 Bft)
14.03.2022 22:29 23,5 °C 5,3 °C 42 % 93 % 1029,7 hPa 0,0 l/m² 0,1 km/h (0 Bft) N 355 ° 0 min 0 W/m² 4,3 °C 5,3 °C 1,6 km/h (1 Bft)
14.03.2022 22:30 23,5 °C 5,3 °C 42 % 93 % 1029,7 hPa 0,0 l/m² 0,0 km/h (0 Bft) N 355 ° 0 min 0 W/m² 4,3 °C 5,3 °C 0,0 km/h (0 Bft)
14.03.2022 22:31 23,5 °C 5,3 °C 42 % 93 % 1029,7 hPa 0,0 l/m² 0,0 km/h (0 Bft) N 355 ° 0 min 0 W/m² 4,3 °C 5,3 °C 0,0 km/h (0 Bft)
14.03.2022 22:32 23,5 °C 5,3 °C 42 % 93 % 1029,7 hPa 0,0 l/m² 0,0 km/h (0 Bft) N 355 ° 0 min 0 W/m² 4,3 °C 5,3 °C 0,0 km/h (0 Bft)
14.03.2022 22:34 23,5 °C 5,2 °C 42 % 93 % 1029,6 hPa 0,0 l/m² 2,1 km/h (1 Bft) N 355 ° 0 min 0 W/m² 4,2 °C 5,2 °C 3,2 km/h (1 Bft)
14.03.2022 22:35 23,5 °C 5,2 °C 42 % 93 % 1029,6 hPa 0,0 l/m² 2,1 km/h (1 Bft) N 355 ° 0 min 0 W/m² 4,2 °C 5,2 °C 3,2 km/h (1 Bft)
14.03.2022 22:37 23,4 °C 5,2 °C 42 % 93 % 1029,6 hPa 0,0 l/m² 0,9 km/h (0 Bft) N 355 ° 0 min 0 W/m² 4,2 °C 5,2 °C 3,2 km/h (1 Bft)
14.03.2022 22:39 23,4 °C 5,2 °C 42 % 93 % 1029,7 hPa 0,0 l/m² 0,4 km/h (0 Bft) N 355 ° 0 min 0 W/m² 4,2 °C 5,2 °C 1,6 km/h (1 Bft)
14.03.2022 22:40 23,4 °C 5,2 °C 42 % 93 % 1029,7 hPa 0,0 l/m² 0,0 km/h (0 Bft) N 355 ° 0 min 0 W/m² 4,2 °C 5,2 °C 0,0 km/h (0 Bft)
14.03.2022 22:41 23,4 °C 5,1 °C 42 % 93 % 1029,7 hPa 0,0 l/m² 0,3 km/h (0 Bft) N 355 ° 0 min 0 W/m² 4,1 °C 5,1 °C 1,6 km/h (1 Bft)
14.03.2022 22:42 23,4 °C 5,1 °C 42 % 93 % 1029,7 hPa 0,0 l/m² 0,6 km/h (0 Bft) N 355 ° 0 min 0 W/m² 4,1 °C 5,1 °C 1,6 km/h (1 Bft)
14.03.2022 22:44 23,5 °C 5,1 °C 42 % 93 % 1029,7 hPa 0,0 l/m² 0,0 km/h (0 Bft) N 355 ° 0 min 0 W/m² 4,1 °C 5,1 °C 0,0 km/h (0 Bft)
14.03.2022 22:45 23,4 °C 5,1 °C 42 % 93 % 1029,7 hPa 0,0 l/m² 0,5 km/h (0 Bft) N-NO 13 ° 0 min 0 W/m² 4,1 °C 5,1 °C 3,2 km/h (1 Bft)
14.03.2022 22:47 23,5 °C 5,2 °C 42 % 93 % 1029,7 hPa 0,0 l/m² 0,3 km/h (0 Bft) O-NO 61 ° 0 min 0 W/m² 4,2 °C 5,2 °C 3,2 km/h (1 Bft)
14.03.2022 22:49 23,4 °C 5,2 °C 42 % 93 % 1029,6 hPa 0,0 l/m² 0,0 km/h (0 Bft) O-NO 61 ° 0 min 0 W/m² 4,2 °C 5,2 °C 0,0 km/h (0 Bft)
14.03.2022 22:50 23,4 °C 5,2 °C 42 % 93 % 1029,5 hPa 0,0 l/m² 0,0 km/h (0 Bft) O-NO 61 ° 0 min 0 W/m² 4,2 °C 5,2 °C 0,0 km/h (0 Bft)
14.03.2022 22:51 23,4 °C 5,1 °C 42 % 93 % 1029,6 hPa 0,0 l/m² 0,0 km/h (0 Bft) O-NO 61 ° 0 min 0 W/m² 4,1 °C 5,1 °C 0,0 km/h (0 Bft)
14.03.2022 22:52 23,4 °C 5,1 °C 42 % 93 % 1029,6 hPa 0,0 l/m² 0,0 km/h (0 Bft) O-NO 61 ° 0 min 0 W/m² 4,1 °C 5,1 °C 0,0 km/h (0 Bft)
14.03.2022 22:54 23,4 °C 4,9 °C 42 % 93 % 1029,6 hPa 0,0 l/m² 0,0 km/h (0 Bft) O-NO 61 ° 0 min 0 W/m² 3,9 °C 4,9 °C 0,0 km/h (0 Bft)
14.03.2022 22:55 23,4 °C 4,9 °C 42 % 93 % 1029,5 hPa 0,0 l/m² 0,0 km/h (0 Bft) O-NO 61 ° 0 min 0 W/m² 3,9 °C 4,9 °C 0,0 km/h (0 Bft)
14.03.2022 22:57 23,4 °C 4,8 °C 42 % 93 % 1029,6 hPa 0,0 l/m² 0,0 km/h (0 Bft) O-NO 61 ° 0 min 0 W/m² 3,8 °C 4,8 °C 0,0 km/h (0 Bft)
14.03.2022 22:59 23,4 °C 4,8 °C 42 % 93 % 1029,6 hPa 0,0 l/m² 0,5 km/h (0 Bft) O-NO 61 ° 0 min 0 W/m² 3,8 °C 4,8 °C 1,6 km/h (1 Bft)
14.03.2022 23:00 23,4 °C 4,9 °C 42 % 94 % 1029,7 hPa 0,0 l/m² 2,0 km/h (1 Bft) O-NO 61 ° 0 min 0 W/m² 4,0 °C 4,9 °C 3,2 km/h (1 Bft)
14.03.2022 23:01 23,4 °C 4,9 °C 42 % 94 % 1029,7 hPa 0,0 l/m² 2,9 km/h (1 Bft) O-NO 61 ° 0 min 0 W/m² 4,0 °C 4,9 °C 4,8 km/h (1 Bft)
14.03.2022 23:02 23,4 °C 4,8 °C 42 % 93 % 1029,7 hPa 0,0 l/m² 2,4 km/h (1 Bft) O-NO 61 ° 0 min 0 W/m² 3,8 °C 4,8 °C 4,8 km/h (1 Bft)
14.03.2022 23:04 23,4 °C 4,7 °C 42 % 93 % 1029,8 hPa 0,0 l/m² 2,8 km/h (1 Bft) SO 133 ° 0 min 0 W/m² 3,7 °C 4,7 °C 4,8 km/h (1 Bft)
14.03.2022 23:05 23,4 °C 4,7 °C 42 % 93 % 1029,8 hPa 0,0 l/m² 3,8 km/h (1 Bft) SW 232 ° 0 min 0 W/m² 3,7 °C 4,7 °C 8,0 km/h (2 Bft)
14.03.2022 23:07 23,4 °C 4,8 °C 42 % 93 % 1029,8 hPa 0,0 l/m² 4,2 km/h (1 Bft) SW 231 ° 0 min 0 W/m² 3,8 °C 4,8 °C 6,4 km/h (2 Bft)
14.03.2022 23:09 23,4 °C 4,9 °C 42 % 93 % 1029,8 hPa 0,0 l/m² 4,4 km/h (1 Bft) SW 231 ° 0 min 0 W/m² 3,9 °C 4,9 °C 6,4 km/h (2 Bft)
14.03.2022 23:10 23,4 °C 4,9 °C 42 % 93 % 1029,9 hPa 0,0 l/m² 4,1 km/h (1 Bft) SW 231 ° 0 min 0 W/m² 3,9 °C 4,9 °C 6,4 km/h (2 Bft)
14.03.2022 23:11 23,4 °C 4,9 °C 42 % 94 % 1029,9 hPa 0,0 l/m² 4,4 km/h (1 Bft) SW 231 ° 0 min 0 W/m² 4,0 °C 4,9 °C 6,4 km/h (2 Bft)
14.03.2022 23:12 23,4 °C 4,9 °C 42 % 94 % 1029,9 hPa 0,0 l/m² 3,6 km/h (1 Bft) SW 231 ° 0 min 0 W/m² 4,0 °C 4,9 °C 6,4 km/h (2 Bft)
14.03.2022 23:14 23,4 °C 5,0 °C 42 % 94 % 1029,9 hPa 0,0 l/m² 3,6 km/h (1 Bft) SW 231 ° 0 min 0 W/m² 4,1 °C 5,0 °C 6,4 km/h (2 Bft)
14.03.2022 23:15 23,4 °C 5,0 °C 42 % 94 % 1029,8 hPa 0,0 l/m² 4,3 km/h (1 Bft) SW 231 ° 0 min 0 W/m² 4,1 °C 5,0 °C 4,8 km/h (1 Bft)
14.03.2022 23:16 23,4 °C 4,9 °C 42 % 94 % 1029,9 hPa 0,0 l/m² 4,8 km/h (1 Bft) SW 225 ° 0 min 0 W/m² 4,0 °C 4,9 °C 6,4 km/h (2 Bft)
14.03.2022 23:17 23,4 °C 4,9 °C 42 % 93 % 1029,9 hPa 0,0 l/m² 4,8 km/h (1 Bft) SW 225 ° 0 min 0 W/m² 3,9 °C 4,9 °C 6,4 km/h (2 Bft)
14.03.2022 23:18 23,4 °C 4,9 °C 42 % 93 % 1029,9 hPa 0,0 l/m² 6,4 km/h (2 Bft) SW 225 ° 0 min 0 W/m² 3,9 °C 4,9 °C 8,0 km/h (2 Bft)
14.03.2022 23:19 23,4 °C 4,9 °C 42 % 93 % 1030,0 hPa 0,0 l/m² 4,8 km/h (1 Bft) SW 225 ° 0 min 0 W/m² 3,9 °C 4,9 °C 6,4 km/h (2 Bft)
14.03.2022 23:20 23,4 °C 4,8 °C 42 % 93 % 1030,0 hPa 0,0 l/m² 4,8 km/h (1 Bft) SW 225 ° 0 min 0 W/m² 3,8 °C 4,8 °C 8,0 km/h (2 Bft)
14.03.2022 23:26 23,4 °C 4,9 °C 42 % 94 % 1030,0 hPa 0,0 l/m² 5,2 km/h (1 Bft) SW 233 ° 0 min 0 W/m² 4,0 °C 4,9 °C 6,4 km/h (2 Bft)
14.03.2022 23:28 23,4 °C 5,0 °C 42 % 94 % 1030,0 hPa 0,0 l/m² 4,8 km/h (1 Bft) SW 223 ° 0 min 0 W/m² 4,1 °C 5,0 °C 8,0 km/h (2 Bft)
14.03.2022 23:29 23,4 °C 5,0 °C 42 % 94 % 1030,0 hPa 0,0 l/m² 3,4 km/h (1 Bft) SW 223 ° 0 min 0 W/m² 4,1 °C 5,0 °C 4,8 km/h (1 Bft)
14.03.2022 23:31 23,4 °C 4,9 °C 42 % 94 % 1030,1 hPa 0,0 l/m² 4,4 km/h (1 Bft) SW 223 ° 0 min 0 W/m² 4,0 °C 4,9 °C 6,4 km/h (2 Bft)
14.03.2022 23:32 23,4 °C 5,0 °C 42 % 94 % 1030,0 hPa 0,0 l/m² 3,4 km/h (1 Bft) SW 223 ° 0 min 0 W/m² 4,1 °C 5,0 °C 4,8 km/h (1 Bft)
14.03.2022 23:34 23,4 °C 4,9 °C 41 % 93 % 1030,0 hPa 0,0 l/m² 4,2 km/h (1 Bft) SW 223 ° 0 min 0 W/m² 3,9 °C 4,9 °C 8,0 km/h (2 Bft)
14.03.2022 23:36 23,4 °C 4,9 °C 41 % 93 % 1030,1 hPa 0,0 l/m² 4,7 km/h (1 Bft) S-SW 208 ° 0 min 0 W/m² 3,9 °C 4,9 °C 8,0 km/h (2 Bft)
14.03.2022 23:38 23,4 °C 4,8 °C 41 % 93 % 1030,1 hPa 0,0 l/m² 4,8 km/h (1 Bft) S-SW 209 ° 0 min 0 W/m² 3,8 °C 4,8 °C 6,4 km/h (2 Bft)
14.03.2022 23:40 23,4 °C 4,8 °C 41 % 94 % 1030,0 hPa 0,0 l/m² 4,0 km/h (1 Bft) S-SW 209 ° 0 min 0 W/m² 3,9 °C 4,8 °C 6,4 km/h (2 Bft)
14.03.2022 23:41 23,4 °C 4,8 °C 41 % 94 % 1030,1 hPa 0,0 l/m² 3,9 km/h (1 Bft) S-SW 209 ° 0 min 0 W/m² 3,9 °C 4,8 °C 6,4 km/h (2 Bft)
14.03.2022 23:42 23,4 °C 4,8 °C 41 % 94 % 1030,1 hPa 0,0 l/m² 4,5 km/h (1 Bft) S-SW 210 ° 0 min 0 W/m² 3,9 °C 4,8 °C 6,4 km/h (2 Bft)
14.03.2022 23:44 23,4 °C 4,8 °C 41 % 93 % 1030,1 hPa 0,0 l/m² 4,0 km/h (1 Bft) S-SW 210 ° 0 min 0 W/m² 3,8 °C 4,8 °C 6,4 km/h (2 Bft)
14.03.2022 23:45 23,4 °C 4,9 °C 41 % 93 % 1030,1 hPa 0,0 l/m² 5,9 km/h (2 Bft) SW 215 ° 0 min 0 W/m² 3,9 °C 4,9 °C 8,0 km/h (2 Bft)
14.03.2022 23:47 23,4 °C 4,9 °C 41 % 93 % 1030,2 hPa 0,0 l/m² 4,1 km/h (1 Bft) SW 216 ° 0 min 0 W/m² 3,9 °C 4,9 °C 8,0 km/h (2 Bft)
14.03.2022 23:49 23,4 °C 4,9 °C 41 % 94 % 1030,1 hPa 0,0 l/m² 2,1 km/h (1 Bft) SW 216 ° 0 min 0 W/m² 4,0 °C 4,9 °C 3,2 km/h (1 Bft)
14.03.2022 23:50 23,4 °C 4,8 °C 41 % 94 % 1030,0 hPa 0,0 l/m² 3,1 km/h (1 Bft) SW 216 ° 0 min 0 W/m² 3,9 °C 4,8 °C 6,4 km/h (2 Bft)
14.03.2022 23:52 23,4 °C 4,8 °C 41 % 93 % 1030,1 hPa 0,0 l/m² 4,5 km/h (1 Bft) W-SW 242 ° 0 min 0 W/m² 3,8 °C 4,8 °C 8,0 km/h (2 Bft)
14.03.2022 23:53 23,4 °C 4,9 °C 41 % 93 % 1030,0 hPa 0,0 l/m² 2,7 km/h (1 Bft) W-SW 242 ° 0 min 0 W/m² 3,9 °C 4,9 °C 4,8 km/h (1 Bft)
14.03.2022 23:54 23,4 °C 4,9 °C 41 % 93 % 1030,1 hPa 0,0 l/m² 4,2 km/h (1 Bft) W-SW 242 ° 0 min 0 W/m² 3,9 °C 4,9 °C 4,8 km/h (1 Bft)
14.03.2022 23:56 23,4 °C 4,9 °C 41 % 94 % 1030,0 hPa 0,0 l/m² 2,8 km/h (1 Bft) W-SW 242 ° 0 min 0 W/m² 4,0 °C 4,9 °C 4,8 km/h (1 Bft)
14.03.2022 23:58 23,4 °C 4,9 °C 41 % 94 % 1029,9 hPa 0,0 l/m² 1,2 km/h (1 Bft) W-SW 242 ° 0 min 0 W/m² 4,0 °C 4,9 °C 3,2 km/h (1 Bft)
14.03.2022 23:59 23,4 °C 4,9 °C 41 % 94 % 1030,0 hPa 0,0 l/m² 3,3 km/h (1 Bft) W-SW 238 ° 0 min 0 W/m² 4,0 °C 4,9 °C 6,4 km/h (2 Bft)
_ Min-Zeit 15:53 05:24 15:40 11:15 00:17 - 22:57 - - - - 04:33 05:24 22:57
Minimum _ 23,1 °C -5,1 °C 36 % 40 % 1020,3 hPa - 0,0 km/h (0 Bft) - - - - -8,3 °C -5,1 °C 0,0 km/h (0 Bft)
_ Max-Zeit 11:50 13:28 22:17 23:59 23:47 18:38 14:06 - - 12:48 11:28 18:51 12:11 14:06
Maximum _ 23,8 °C 11,5 °C 43 % 94 % 1030,2 hPa 0,2 l/m² 25,9 km/h
SW (4 Bft)
- - 3 min 686 W/m² 5,5 °C 9,0 °C 35,4 km/h
S-SW (5 Bft)
Durchschnitt _ 23,5 °C 3,6 °C 38 % 76 % 1025,1 hPa #4,6 l/m² 4,6 km/h (1 Bft) S-SW - #8:28 h 81 W/m² -0,6 °C 2,5 °C 6,8 km/h (2 Bft)
© 2009 Mathias Hoßbach